<?xml version='1.0' encoding='UTF-8'?><gpx version="1.1" creator="JPX - https://github.com/jenetics/jpx" xmlns="http://www.topografix.com/GPX/1/1"><trk><trkseg><trkpt lat="47.791382" lon="12.2612766"><ele>603.0</ele><time>2026-04-06T10:13:56.472Z</time></trkpt><trkpt lat="47.791395" lon="12.261395"><ele>603.0</ele><time>2026-04-06T10:13:59.489Z</time></trkpt><trkpt lat="47.7914233" lon="12.2615034"><ele>603.0</ele><time>2026-04-06T10:14:02.483Z</time></trkpt><trkpt lat="47.7914666" lon="12.2616159"><ele>603.0</ele><time>2026-04-06T10:14:05.525Z</time></trkpt><trkpt lat="47.7915233" lon="12.2617151"><ele>603.0</ele><time>2026-04-06T10:14:08.503Z</time></trkpt><trkpt lat="47.7915758" lon="12.2618226"><ele>603.0</ele><time>2026-04-06T10:14:11.508Z</time></trkpt><trkpt lat="47.7916294" lon="12.2619302"><ele>605.1666666666666</ele><time>2026-04-06T10:14:14.512Z</time></trkpt><trkpt lat="47.7916721" lon="12.2620384"><ele>607.3333333333334</ele><time>2026-04-06T10:14:17.487Z</time></trkpt><trkpt lat="47.7917053" lon="12.2621447"><ele>609.5</ele><time>2026-04-06T10:14:20.504Z</time></trkpt><trkpt lat="47.7917353" lon="12.26226"><ele>611.6666666666667</ele><time>2026-04-06T10:14:23.516Z</time></trkpt><trkpt lat="47.7917661" lon="12.2623907"><ele>613.8333333333334</ele><time>2026-04-06T10:14:26.503Z</time></trkpt><trkpt lat="47.7917849" lon="12.2625215"><ele>616.0</ele><time>2026-04-06T10:14:29.518Z</time></trkpt><trkpt lat="47.7917974" lon="12.2626519"><ele>616.3333333333334</ele><time>2026-04-06T10:14:32.51Z</time></trkpt><trkpt lat="47.7918037" lon="12.2627728"><ele>616.6666666666667</ele><time>2026-04-06T10:14:35.509Z</time></trkpt><trkpt lat="47.7918141" lon="12.2629025"><ele>617.0</ele><time>2026-04-06T10:14:38.516Z</time></trkpt><trkpt lat="47.7918167" lon="12.2629973"><ele>617.3333333333334</ele><time>2026-04-06T10:14:40.515Z</time></trkpt><trkpt lat="47.7918275" lon="12.2631404"><ele>617.6666666666666</ele><time>2026-04-06T10:14:43.513Z</time></trkpt><trkpt lat="47.7918327" lon="12.2632369"><ele>618.0</ele><time>2026-04-06T10:14:45.612Z</time></trkpt><trkpt lat="47.7918471" lon="12.2633392"><ele>617.7142857142858</ele><time>2026-04-06T10:14:47.505Z</time></trkpt><trkpt lat="47.7918595" lon="12.2634422"><ele>617.4285714285714</ele><time>2026-04-06T10:14:49.516Z</time></trkpt><trkpt lat="47.7918737" lon="12.2635598"><ele>617.1428571428571</ele><time>2026-04-06T10:14:51.518Z</time></trkpt><trkpt lat="47.7918894" lon="12.2636637"><ele>616.8571428571429</ele><time>2026-04-06T10:14:53.504Z</time></trkpt><trkpt lat="47.7919073" lon="12.2637661"><ele>616.5714285714286</ele><time>2026-04-06T10:14:55.517Z</time></trkpt><trkpt lat="47.7919322" lon="12.2638586"><ele>616.2857142857143</ele><time>2026-04-06T10:14:57.517Z</time></trkpt><trkpt lat="47.7919566" lon="12.2639495"><ele>616.0</ele><time>2026-04-06T10:14:59.497Z</time></trkpt><trkpt lat="47.7919904" lon="12.264039"><ele>616.0</ele><time>2026-04-06T10:15:01.514Z</time></trkpt><trkpt lat="47.792041" lon="12.2641542"><ele>616.0</ele><time>2026-04-06T10:15:03.528Z</time></trkpt><trkpt lat="47.7920908" lon="12.2642874"><ele>616.0</ele><time>2026-04-06T10:15:05.505Z</time></trkpt><trkpt lat="47.7921397" lon="12.2644235"><ele>616.0</ele><time>2026-04-06T10:15:07.528Z</time></trkpt><trkpt lat="47.7921955" lon="12.2645469"><ele>616.0</ele><time>2026-04-06T10:15:09.506Z</time></trkpt><trkpt lat="47.7922533" lon="12.2646699"><ele>616.2</ele><time>2026-04-06T10:15:11.507Z</time></trkpt><trkpt lat="47.7923123" lon="12.2647992"><ele>616.4000000000001</ele><time>2026-04-06T10:15:13.525Z</time></trkpt><trkpt lat="47.7923646" lon="12.2649222"><ele>616.6</ele><time>2026-04-06T10:15:15.504Z</time></trkpt><trkpt lat="47.7924168" lon="12.2650317"><ele>616.8000000000001</ele><time>2026-04-06T10:15:17.515Z</time></trkpt><trkpt lat="47.7924735" lon="12.2651379"><ele>617.0</ele><time>2026-04-06T10:15:19.515Z</time></trkpt><trkpt lat="47.7925393" lon="12.2652437"><ele>617.0</ele><time>2026-04-06T10:15:21.522Z</time></trkpt><trkpt lat="47.7925954" lon="12.2653428"><ele>617.0</ele><time>2026-04-06T10:15:23.53Z</time></trkpt><trkpt lat="47.7926509" lon="12.2654292"><ele>617.0</ele><time>2026-04-06T10:15:25.51Z</time></trkpt><trkpt lat="47.7927062" lon="12.2655215"><ele>617.0</ele><time>2026-04-06T10:15:27.535Z</time></trkpt><trkpt lat="47.7927667" lon="12.2656059"><ele>617.0</ele><time>2026-04-06T10:15:29.482Z</time></trkpt><trkpt lat="47.792822" lon="12.2656961"><ele>617.0</ele><time>2026-04-06T10:15:31.508Z</time></trkpt><trkpt lat="47.7928816" lon="12.2657812"><ele>616.6666666666666</ele><time>2026-04-06T10:15:33.528Z</time></trkpt><trkpt lat="47.7929375" lon="12.2658663"><ele>616.3333333333333</ele><time>2026-04-06T10:15:35.518Z</time></trkpt><trkpt lat="47.792996" lon="12.2659519"><ele>616.0</ele><time>2026-04-06T10:15:37.527Z</time></trkpt><trkpt lat="47.7930628" lon="12.2660301"><ele>615.6666666666666</ele><time>2026-04-06T10:15:39.485Z</time></trkpt><trkpt lat="47.7931276" lon="12.2661175"><ele>615.3333333333334</ele><time>2026-04-06T10:15:41.496Z</time></trkpt><trkpt lat="47.7931919" lon="12.266198"><ele>615.0</ele><time>2026-04-06T10:15:43.522Z</time></trkpt><trkpt lat="47.7932584" lon="12.2662778"><ele>615.0</ele><time>2026-04-06T10:15:45.513Z</time></trkpt><trkpt lat="47.7933204" lon="12.2663583"><ele>615.0</ele><time>2026-04-06T10:15:47.52Z</time></trkpt><trkpt lat="47.7933859" lon="12.2664422"><ele>615.0</ele><time>2026-04-06T10:15:49.529Z</time></trkpt><trkpt lat="47.7934488" lon="12.2665275"><ele>615.0</ele><time>2026-04-06T10:15:51.523Z</time></trkpt><trkpt lat="47.7935153" lon="12.2666139"><ele>615.0</ele><time>2026-04-06T10:15:53.519Z</time></trkpt><trkpt lat="47.7935818" lon="12.2666954"><ele>615.0</ele><time>2026-04-06T10:15:55.522Z</time></trkpt><trkpt lat="47.7936533" lon="12.2667734"><ele>614.6666666666666</ele><time>2026-04-06T10:15:57.53Z</time></trkpt><trkpt lat="47.7937195" lon="12.2668573"><ele>614.3333333333334</ele><time>2026-04-06T10:15:59.504Z</time></trkpt><trkpt lat="47.7937871" lon="12.2669342"><ele>614.0</ele><time>2026-04-06T10:16:01.496Z</time></trkpt><trkpt lat="47.7938501" lon="12.2670191"><ele>613.6666666666667</ele><time>2026-04-06T10:16:03.524Z</time></trkpt><trkpt lat="47.7939173" lon="12.2671019"><ele>613.3333333333334</ele><time>2026-04-06T10:16:05.518Z</time></trkpt><trkpt lat="47.793982" lon="12.2671864"><ele>613.0</ele><time>2026-04-06T10:16:07.517Z</time></trkpt><trkpt lat="47.7940489" lon="12.2672763"><ele>613.0</ele><time>2026-04-06T10:16:09.512Z</time></trkpt><trkpt lat="47.7941183" lon="12.2673544"><ele>613.0</ele><time>2026-04-06T10:16:11.515Z</time></trkpt><trkpt lat="47.7941852" lon="12.2674381"><ele>613.0</ele><time>2026-04-06T10:16:13.514Z</time></trkpt><trkpt lat="47.7942486" lon="12.2675245"><ele>613.0</ele><time>2026-04-06T10:16:15.529Z</time></trkpt><trkpt lat="47.7943055" lon="12.2676148"><ele>613.0</ele><time>2026-04-06T10:16:17.523Z</time></trkpt><trkpt lat="47.7943647" lon="12.2677093"><ele>613.0</ele><time>2026-04-06T10:16:19.525Z</time></trkpt><trkpt lat="47.7944258" lon="12.2678024"><ele>613.0</ele><time>2026-04-06T10:16:21.514Z</time></trkpt><trkpt lat="47.7944839" lon="12.2678988"><ele>613.0</ele><time>2026-04-06T10:16:23.531Z</time></trkpt><trkpt lat="47.7945396" lon="12.2679958"><ele>613.0</ele><time>2026-04-06T10:16:25.52Z</time></trkpt><trkpt lat="47.7945901" lon="12.2680835"><ele>613.0</ele><time>2026-04-06T10:16:27.517Z</time></trkpt><trkpt lat="47.7946343" lon="12.2681824"><ele>613.0</ele><time>2026-04-06T10:16:29.512Z</time></trkpt><trkpt lat="47.7946749" lon="12.2682679"><ele>613.0</ele><time>2026-04-06T10:16:31.522Z</time></trkpt><trkpt lat="47.7947215" lon="12.26836"><ele>613.8333333333334</ele><time>2026-04-06T10:16:33.509Z</time></trkpt><trkpt lat="47.7947625" lon="12.2684532"><ele>614.6666666666667</ele><time>2026-04-06T10:16:35.516Z</time></trkpt><trkpt lat="47.7948123" lon="12.2685453"><ele>615.5</ele><time>2026-04-06T10:16:37.536Z</time></trkpt><trkpt lat="47.794854" lon="12.268643"><ele>616.3333333333334</ele><time>2026-04-06T10:16:39.529Z</time></trkpt><trkpt lat="47.794893" lon="12.2687482"><ele>617.1666666666666</ele><time>2026-04-06T10:16:41.503Z</time></trkpt><trkpt lat="47.7949365" lon="12.2688474"><ele>618.0</ele><time>2026-04-06T10:16:43.483Z</time></trkpt><trkpt lat="47.7949763" lon="12.2689538"><ele>617.6666666666666</ele><time>2026-04-06T10:16:45.523Z</time></trkpt><trkpt lat="47.7950169" lon="12.269064"><ele>617.3333333333334</ele><time>2026-04-06T10:16:47.518Z</time></trkpt><trkpt lat="47.7950548" lon="12.2691735"><ele>617.0</ele><time>2026-04-06T10:16:49.503Z</time></trkpt><trkpt lat="47.7950906" lon="12.2692845"><ele>616.6666666666667</ele><time>2026-04-06T10:16:51.523Z</time></trkpt><trkpt lat="47.7951302" lon="12.2693954"><ele>616.3333333333334</ele><time>2026-04-06T10:16:53.503Z</time></trkpt><trkpt lat="47.7951661" lon="12.2695063"><ele>616.0</ele><time>2026-04-06T10:16:55.5Z</time></trkpt><trkpt lat="47.7952048" lon="12.2696102"><ele>616.0</ele><time>2026-04-06T10:16:57.521Z</time></trkpt><trkpt lat="47.7952419" lon="12.2697207"><ele>616.0</ele><time>2026-04-06T10:16:59.529Z</time></trkpt><trkpt lat="47.7952811" lon="12.2698343"><ele>616.0</ele><time>2026-04-06T10:17:01.523Z</time></trkpt><trkpt lat="47.7953207" lon="12.2699417"><ele>616.0</ele><time>2026-04-06T10:17:03.526Z</time></trkpt><trkpt lat="47.7953537" lon="12.2700531"><ele>616.0</ele><time>2026-04-06T10:17:05.521Z</time></trkpt><trkpt lat="47.795393" lon="12.2701668"><ele>616.0</ele><time>2026-04-06T10:17:07.502Z</time></trkpt><trkpt lat="47.7954328" lon="12.2702764"><ele>616.1666666666667</ele><time>2026-04-06T10:17:09.509Z</time></trkpt><trkpt lat="47.7954756" lon="12.2703837"><ele>616.3333333333334</ele><time>2026-04-06T10:17:11.51Z</time></trkpt><trkpt lat="47.7955106" lon="12.2704955"><ele>616.5</ele><time>2026-04-06T10:17:13.505Z</time></trkpt><trkpt lat="47.7955469" lon="12.2706022"><ele>616.6666666666666</ele><time>2026-04-06T10:17:15.533Z</time></trkpt><trkpt lat="47.7955865" lon="12.2707052"><ele>616.8333333333333</ele><time>2026-04-06T10:17:17.513Z</time></trkpt><trkpt lat="47.7956217" lon="12.2708179"><ele>617.0</ele><time>2026-04-06T10:17:19.522Z</time></trkpt><trkpt lat="47.7956551" lon="12.2709262"><ele>617.0</ele><time>2026-04-06T10:17:21.523Z</time></trkpt><trkpt lat="47.7956828" lon="12.2710306"><ele>617.0</ele><time>2026-04-06T10:17:23.511Z</time></trkpt><trkpt lat="47.795713" lon="12.2711279"><ele>617.0</ele><time>2026-04-06T10:17:25.518Z</time></trkpt><trkpt lat="47.7957412" lon="12.2712214"><ele>617.0</ele><time>2026-04-06T10:17:27.534Z</time></trkpt><trkpt lat="47.79577" lon="12.2713142"><ele>617.0</ele><time>2026-04-06T10:17:29.495Z</time></trkpt><trkpt lat="47.7957951" lon="12.2714062"><ele>617.0</ele><time>2026-04-06T10:17:31.505Z</time></trkpt><trkpt lat="47.7958162" lon="12.271502"><ele>617.0</ele><time>2026-04-06T10:17:33.522Z</time></trkpt><trkpt lat="47.7958394" lon="12.2715901"><ele>617.4285714285714</ele><time>2026-04-06T10:17:35.537Z</time></trkpt><trkpt lat="47.7958631" lon="12.2716834"><ele>617.8571428571428</ele><time>2026-04-06T10:17:37.526Z</time></trkpt><trkpt lat="47.7958843" lon="12.2717771"><ele>618.2857142857142</ele><time>2026-04-06T10:17:39.536Z</time></trkpt><trkpt lat="47.7959092" lon="12.2718666"><ele>618.7142857142858</ele><time>2026-04-06T10:17:41.539Z</time></trkpt><trkpt lat="47.7959358" lon="12.2719661"><ele>619.1428571428571</ele><time>2026-04-06T10:17:43.51Z</time></trkpt><trkpt lat="47.7959568" lon="12.2720662"><ele>619.5714285714286</ele><time>2026-04-06T10:17:45.529Z</time></trkpt><trkpt lat="47.7959798" lon="12.2721643"><ele>620.0</ele><time>2026-04-06T10:17:47.529Z</time></trkpt><trkpt lat="47.7960013" lon="12.2722625"><ele>620.7142857142858</ele><time>2026-04-06T10:17:49.52Z</time></trkpt><trkpt lat="47.7960237" lon="12.2723562"><ele>621.4285714285714</ele><time>2026-04-06T10:17:51.528Z</time></trkpt><trkpt lat="47.7960545" lon="12.2724867"><ele>622.1428571428571</ele><time>2026-04-06T10:17:54.508Z</time></trkpt><trkpt lat="47.7960788" lon="12.2725808"><ele>622.8571428571429</ele><time>2026-04-06T10:17:56.512Z</time></trkpt><trkpt lat="47.7961028" lon="12.272678"><ele>623.5714285714286</ele><time>2026-04-06T10:17:58.514Z</time></trkpt><trkpt lat="47.7961316" lon="12.2727744"><ele>624.2857142857143</ele><time>2026-04-06T10:18:00.513Z</time></trkpt><trkpt lat="47.7961635" lon="12.2728755"><ele>625.0</ele><time>2026-04-06T10:18:02.507Z</time></trkpt><trkpt lat="47.7962027" lon="12.2729819"><ele>625.0</ele><time>2026-04-06T10:18:04.506Z</time></trkpt><trkpt lat="47.7962412" lon="12.2730987"><ele>625.0</ele><time>2026-04-06T10:18:06.504Z</time></trkpt><trkpt lat="47.7962935" lon="12.2732136"><ele>625.0</ele><time>2026-04-06T10:18:08.501Z</time></trkpt><trkpt lat="47.7963507" lon="12.2733341"><ele>625.0</ele><time>2026-04-06T10:18:10.504Z</time></trkpt><trkpt lat="47.796408" lon="12.2734608"><ele>625.0</ele><time>2026-04-06T10:18:12.516Z</time></trkpt><trkpt lat="47.7964655" lon="12.2735887"><ele>624.6</ele><time>2026-04-06T10:18:14.518Z</time></trkpt><trkpt lat="47.7965186" lon="12.2737123"><ele>624.2</ele><time>2026-04-06T10:18:16.501Z</time></trkpt><trkpt lat="47.7965758" lon="12.2738281"><ele>623.8</ele><time>2026-04-06T10:18:18.516Z</time></trkpt><trkpt lat="47.7966251" lon="12.2739358"><ele>623.4</ele><time>2026-04-06T10:18:20.504Z</time></trkpt><trkpt lat="47.7966709" lon="12.2740522"><ele>623.0</ele><time>2026-04-06T10:18:22.533Z</time></trkpt><trkpt lat="47.7967113" lon="12.2741827"><ele>622.3333333333333</ele><time>2026-04-06T10:18:24.523Z</time></trkpt><trkpt lat="47.7967458" lon="12.274308"><ele>621.6666666666666</ele><time>2026-04-06T10:18:26.522Z</time></trkpt><trkpt lat="47.7967765" lon="12.274436"><ele>621.0</ele><time>2026-04-06T10:18:28.475Z</time></trkpt><trkpt lat="47.7968059" lon="12.2745508"><ele>620.3333333333334</ele><time>2026-04-06T10:18:30.52Z</time></trkpt><trkpt lat="47.7968305" lon="12.2746624"><ele>619.6666666666667</ele><time>2026-04-06T10:18:32.517Z</time></trkpt><trkpt lat="47.7968541" lon="12.2747817"><ele>619.0</ele><time>2026-04-06T10:18:34.509Z</time></trkpt><trkpt lat="47.7968774" lon="12.2748871"><ele>618.0</ele><time>2026-04-06T10:18:36.512Z</time></trkpt><trkpt lat="47.7969041" lon="12.2749959"><ele>617.0</ele><time>2026-04-06T10:18:38.536Z</time></trkpt><trkpt lat="47.7969216" lon="12.2751192"><ele>616.0</ele><time>2026-04-06T10:18:40.538Z</time></trkpt><trkpt lat="47.7969404" lon="12.2752379"><ele>615.0</ele><time>2026-04-06T10:18:42.518Z</time></trkpt><trkpt lat="47.7969597" lon="12.2753493"><ele>614.0</ele><time>2026-04-06T10:18:44.522Z</time></trkpt><trkpt lat="47.7969775" lon="12.2754708"><ele>613.0</ele><time>2026-04-06T10:18:46.53Z</time></trkpt><trkpt lat="47.797006" lon="12.2755767"><ele>612.8333333333334</ele><time>2026-04-06T10:18:48.52Z</time></trkpt><trkpt lat="47.7970214" lon="12.2756887"><ele>612.6666666666667</ele><time>2026-04-06T10:18:50.516Z</time></trkpt><trkpt lat="47.7970442" lon="12.2757995"><ele>612.5</ele><time>2026-04-06T10:18:52.539Z</time></trkpt><trkpt lat="47.797063" lon="12.2759103"><ele>612.3333333333334</ele><time>2026-04-06T10:18:54.518Z</time></trkpt><trkpt lat="47.7970821" lon="12.2760193"><ele>612.1666666666666</ele><time>2026-04-06T10:18:56.525Z</time></trkpt><trkpt lat="47.7971049" lon="12.2761196"><ele>612.0</ele><time>2026-04-06T10:18:58.499Z</time></trkpt><trkpt lat="47.7971306" lon="12.2762319"><ele>612.0</ele><time>2026-04-06T10:19:00.516Z</time></trkpt><trkpt lat="47.7971654" lon="12.2763461"><ele>612.0</ele><time>2026-04-06T10:19:02.522Z</time></trkpt><trkpt lat="47.7971987" lon="12.2764704"><ele>612.0</ele><time>2026-04-06T10:19:04.521Z</time></trkpt><trkpt lat="47.7972347" lon="12.2766096"><ele>612.0</ele><time>2026-04-06T10:19:06.524Z</time></trkpt><trkpt lat="47.7972729" lon="12.2767499"><ele>612.0</ele><time>2026-04-06T10:19:08.515Z</time></trkpt><trkpt lat="47.7973148" lon="12.2768903"><ele>612.2</ele><time>2026-04-06T10:19:10.524Z</time></trkpt><trkpt lat="47.7973476" lon="12.2770337"><ele>612.4000000000001</ele><time>2026-04-06T10:19:12.5Z</time></trkpt><trkpt lat="47.7973868" lon="12.2771743"><ele>612.5999999999999</ele><time>2026-04-06T10:19:14.506Z</time></trkpt><trkpt lat="47.7974259" lon="12.2773093"><ele>612.8</ele><time>2026-04-06T10:19:16.514Z</time></trkpt><trkpt lat="47.7974637" lon="12.2774384"><ele>613.0</ele><time>2026-04-06T10:19:18.532Z</time></trkpt><trkpt lat="47.797514" lon="12.2775756"><ele>612.5</ele><time>2026-04-06T10:19:20.499Z</time></trkpt><trkpt lat="47.7975593" lon="12.2777321"><ele>612.0</ele><time>2026-04-06T10:19:22.524Z</time></trkpt><trkpt lat="47.7976075" lon="12.2778881"><ele>611.5</ele><time>2026-04-06T10:19:24.513Z</time></trkpt><trkpt lat="47.797655" lon="12.2780485"><ele>611.0</ele><time>2026-04-06T10:19:26.515Z</time></trkpt><trkpt lat="47.7977041" lon="12.2782233"><ele>609.8</ele><time>2026-04-06T10:19:28.518Z</time></trkpt><trkpt lat="47.7977272" lon="12.2783138"><ele>608.6</ele><time>2026-04-06T10:19:29.522Z</time></trkpt><trkpt lat="47.7977739" lon="12.2784866"><ele>607.4</ele><time>2026-04-06T10:19:31.531Z</time></trkpt><trkpt lat="47.7978093" lon="12.2786526"><ele>606.2</ele><time>2026-04-06T10:19:33.567Z</time></trkpt><trkpt lat="47.7978457" lon="12.2788168"><ele>605.0</ele><time>2026-04-06T10:19:35.53Z</time></trkpt><trkpt lat="47.7978821" lon="12.2789834"><ele>604.8</ele><time>2026-04-06T10:19:37.528Z</time></trkpt><trkpt lat="47.7979013" lon="12.2790738"><ele>604.6</ele><time>2026-04-06T10:19:38.528Z</time></trkpt><trkpt lat="47.7979385" lon="12.2792468"><ele>604.4</ele><time>2026-04-06T10:19:40.534Z</time></trkpt><trkpt lat="47.7979767" lon="12.2794119"><ele>604.2</ele><time>2026-04-06T10:19:42.52Z</time></trkpt><trkpt lat="47.7980092" lon="12.2795777"><ele>604.0</ele><time>2026-04-06T10:19:44.499Z</time></trkpt><trkpt lat="47.7980416" lon="12.2797383"><ele>604.0</ele><time>2026-04-06T10:19:46.523Z</time></trkpt><trkpt lat="47.7980797" lon="12.2798879"><ele>604.0</ele><time>2026-04-06T10:19:48.503Z</time></trkpt><trkpt lat="47.7981055" lon="12.280041"><ele>604.0</ele><time>2026-04-06T10:19:50.52Z</time></trkpt><trkpt lat="47.7981314" lon="12.2801907"><ele>604.0</ele><time>2026-04-06T10:19:52.505Z</time></trkpt><trkpt lat="47.7981641" lon="12.2803346"><ele>604.0</ele><time>2026-04-06T10:19:54.523Z</time></trkpt><trkpt lat="47.7981959" lon="12.2804739"><ele>604.4</ele><time>2026-04-06T10:19:56.51Z</time></trkpt><trkpt lat="47.7982297" lon="12.2806137"><ele>604.8</ele><time>2026-04-06T10:19:58.527Z</time></trkpt><trkpt lat="47.7982546" lon="12.2807446"><ele>605.2</ele><time>2026-04-06T10:20:00.506Z</time></trkpt><trkpt lat="47.7982853" lon="12.2808728"><ele>605.6</ele><time>2026-04-06T10:20:02.498Z</time></trkpt><trkpt lat="47.7983105" lon="12.2809992"><ele>606.0</ele><time>2026-04-06T10:20:04.507Z</time></trkpt><trkpt lat="47.79836" lon="12.2810999"><ele>606.0</ele><time>2026-04-06T10:20:06.53Z</time></trkpt><trkpt lat="47.7984259" lon="12.2811799"><ele>606.0</ele><time>2026-04-06T10:20:08.496Z</time></trkpt><trkpt lat="47.798499" lon="12.2812318"><ele>606.0</ele><time>2026-04-06T10:20:10.517Z</time></trkpt><trkpt lat="47.7985873" lon="12.2812627"><ele>606.0</ele><time>2026-04-06T10:20:12.49Z</time></trkpt><trkpt lat="47.7986792" lon="12.2812949"><ele>606.0</ele><time>2026-04-06T10:20:14.51Z</time></trkpt><trkpt lat="47.7987651" lon="12.2813214"><ele>606.0</ele><time>2026-04-06T10:20:16.489Z</time></trkpt><trkpt lat="47.7988501" lon="12.2813493"><ele>605.6666666666666</ele><time>2026-04-06T10:20:18.516Z</time></trkpt><trkpt lat="47.7989331" lon="12.2813758"><ele>605.3333333333334</ele><time>2026-04-06T10:20:20.505Z</time></trkpt><trkpt lat="47.799015" lon="12.281407"><ele>605.0</ele><time>2026-04-06T10:20:22.517Z</time></trkpt><trkpt lat="47.7990957" lon="12.2814355"><ele>604.6666666666667</ele><time>2026-04-06T10:20:24.524Z</time></trkpt><trkpt lat="47.7991708" lon="12.281468"><ele>604.3333333333334</ele><time>2026-04-06T10:20:26.492Z</time></trkpt><trkpt lat="47.7992373" lon="12.2815171"><ele>604.0</ele><time>2026-04-06T10:20:28.52Z</time></trkpt><trkpt lat="47.7993016" lon="12.2815712"><ele>603.8333333333334</ele><time>2026-04-06T10:20:30.496Z</time></trkpt><trkpt lat="47.7993679" lon="12.2815969"><ele>603.6666666666667</ele><time>2026-04-06T10:20:32.534Z</time></trkpt><trkpt lat="47.7994412" lon="12.281626"><ele>603.5</ele><time>2026-04-06T10:20:34.53Z</time></trkpt><trkpt lat="47.7995128" lon="12.2816695"><ele>603.3333333333334</ele><time>2026-04-06T10:20:36.511Z</time></trkpt><trkpt lat="47.7995982" lon="12.2817149"><ele>603.1666666666666</ele><time>2026-04-06T10:20:38.52Z</time></trkpt><trkpt lat="47.7996812" lon="12.2817505"><ele>603.0</ele><time>2026-04-06T10:20:40.497Z</time></trkpt><trkpt lat="47.7997614" lon="12.2818204"><ele>603.0</ele><time>2026-04-06T10:20:42.503Z</time></trkpt><trkpt lat="47.7998546" lon="12.2818458"><ele>603.0</ele><time>2026-04-06T10:20:44.524Z</time></trkpt><trkpt lat="47.7999505" lon="12.281885"><ele>603.0</ele><time>2026-04-06T10:20:46.517Z</time></trkpt><trkpt lat="47.8000492" lon="12.281912"><ele>603.0</ele><time>2026-04-06T10:20:48.518Z</time></trkpt><trkpt lat="47.8001452" lon="12.2819396"><ele>603.0</ele><time>2026-04-06T10:20:50.534Z</time></trkpt><trkpt lat="47.8002425" lon="12.2819612"><ele>602.6</ele><time>2026-04-06T10:20:52.51Z</time></trkpt><trkpt lat="47.8003405" lon="12.2819708"><ele>602.1999999999999</ele><time>2026-04-06T10:20:54.519Z</time></trkpt><trkpt lat="47.8004273" lon="12.2819714"><ele>601.8</ele><time>2026-04-06T10:20:56.51Z</time></trkpt><trkpt lat="47.8005156" lon="12.2819981"><ele>601.4</ele><time>2026-04-06T10:20:58.515Z</time></trkpt><trkpt lat="47.8005976" lon="12.2820714"><ele>601.0</ele><time>2026-04-06T10:21:00.517Z</time></trkpt><trkpt lat="47.8006853" lon="12.2821302"><ele>601.0</ele><time>2026-04-06T10:21:02.507Z</time></trkpt><trkpt lat="47.80076" lon="12.2822169"><ele>601.0</ele><time>2026-04-06T10:21:04.511Z</time></trkpt><trkpt lat="47.8008277" lon="12.2823213"><ele>601.0</ele><time>2026-04-06T10:21:06.491Z</time></trkpt><trkpt lat="47.8008993" lon="12.2824209"><ele>601.0</ele><time>2026-04-06T10:21:08.505Z</time></trkpt><trkpt lat="47.8009863" lon="12.2824579"><ele>601.0</ele><time>2026-04-06T10:21:10.505Z</time></trkpt><trkpt lat="47.8010732" lon="12.2824859"><ele>600.6666666666667</ele><time>2026-04-06T10:21:12.508Z</time></trkpt><trkpt lat="47.8011654" lon="12.2825179"><ele>600.3333333333334</ele><time>2026-04-06T10:21:14.519Z</time></trkpt><trkpt lat="47.8012581" lon="12.2825471"><ele>600.0</ele><time>2026-04-06T10:21:16.514Z</time></trkpt><trkpt lat="47.8013412" lon="12.2825722"><ele>599.6666666666666</ele><time>2026-04-06T10:21:18.489Z</time></trkpt><trkpt lat="47.8014109" lon="12.2826282"><ele>599.3333333333333</ele><time>2026-04-06T10:21:20.512Z</time></trkpt><trkpt lat="47.8014523" lon="12.2827247"><ele>599.0</ele><time>2026-04-06T10:21:22.493Z</time></trkpt><trkpt lat="47.8014641" lon="12.282836"><ele>599.0</ele><time>2026-04-06T10:21:24.506Z</time></trkpt><trkpt lat="47.8014813" lon="12.2829494"><ele>599.0</ele><time>2026-04-06T10:21:26.503Z</time></trkpt><trkpt lat="47.8015033" lon="12.2830658"><ele>599.0</ele><time>2026-04-06T10:21:28.495Z</time></trkpt><trkpt lat="47.8015212" lon="12.2831748"><ele>599.0</ele><time>2026-04-06T10:21:30.505Z</time></trkpt><trkpt lat="47.8015248" lon="12.2832968"><ele>599.0</ele><time>2026-04-06T10:21:32.52Z</time></trkpt><trkpt lat="47.8015436" lon="12.2834105"><ele>599.0</ele><time>2026-04-06T10:21:34.506Z</time></trkpt><trkpt lat="47.8015498" lon="12.2835309"><ele>599.0</ele><time>2026-04-06T10:21:36.528Z</time></trkpt><trkpt lat="47.801565" lon="12.2836446"><ele>599.0</ele><time>2026-04-06T10:21:38.524Z</time></trkpt><trkpt lat="47.8015813" lon="12.2837606"><ele>599.0</ele><time>2026-04-06T10:21:40.515Z</time></trkpt><trkpt lat="47.8015899" lon="12.2838838"><ele>599.0</ele><time>2026-04-06T10:21:42.517Z</time></trkpt><trkpt lat="47.8016087" lon="12.2839996"><ele>599.0</ele><time>2026-04-06T10:21:44.504Z</time></trkpt><trkpt lat="47.8016231" lon="12.284112"><ele>599.0</ele><time>2026-04-06T10:21:46.517Z</time></trkpt><trkpt lat="47.8016477" lon="12.2842226"><ele>599.0</ele><time>2026-04-06T10:21:48.504Z</time></trkpt><trkpt lat="47.8016644" lon="12.2843363"><ele>599.0</ele><time>2026-04-06T10:21:50.509Z</time></trkpt><trkpt lat="47.8016845" lon="12.2844512"><ele>599.0</ele><time>2026-04-06T10:21:52.496Z</time></trkpt><trkpt lat="47.8016985" lon="12.2845702"><ele>599.0</ele><time>2026-04-06T10:21:54.529Z</time></trkpt><trkpt lat="47.8017119" lon="12.2846887"><ele>599.0</ele><time>2026-04-06T10:21:56.515Z</time></trkpt><trkpt lat="47.8017334" lon="12.2847988"><ele>599.0</ele><time>2026-04-06T10:21:58.519Z</time></trkpt><trkpt lat="47.8017512" lon="12.2849117"><ele>599.0</ele><time>2026-04-06T10:22:00.506Z</time></trkpt><trkpt lat="47.801769" lon="12.2850127"><ele>599.0</ele><time>2026-04-06T10:22:02.485Z</time></trkpt><trkpt lat="47.8017948" lon="12.2851151"><ele>599.0</ele><time>2026-04-06T10:22:04.516Z</time></trkpt><trkpt lat="47.8018182" lon="12.2852205"><ele>599.0</ele><time>2026-04-06T10:22:06.509Z</time></trkpt><trkpt lat="47.8018505" lon="12.2853224"><ele>599.0</ele><time>2026-04-06T10:22:08.528Z</time></trkpt><trkpt lat="47.8018794" lon="12.2854214"><ele>599.0</ele><time>2026-04-06T10:22:10.511Z</time></trkpt><trkpt lat="47.8018976" lon="12.2855333"><ele>599.0</ele><time>2026-04-06T10:22:14.504Z</time></trkpt><trkpt lat="47.8019236" lon="12.2856396"><ele>599.0</ele><time>2026-04-06T10:22:17.508Z</time></trkpt><trkpt lat="47.8019551" lon="12.2857681"><ele>599.0</ele><time>2026-04-06T10:22:20.504Z</time></trkpt><trkpt lat="47.8019827" lon="12.2858534"><ele>599.0</ele><time>2026-04-06T10:22:22.507Z</time></trkpt><trkpt lat="47.8020079" lon="12.2859441"><ele>599.0</ele><time>2026-04-06T10:22:24.52Z</time></trkpt><trkpt lat="47.8020236" lon="12.28604"><ele>599.0</ele><time>2026-04-06T10:22:26.498Z</time></trkpt><trkpt lat="47.8020426" lon="12.2861804"><ele>599.0</ele><time>2026-04-06T10:22:29.522Z</time></trkpt><trkpt lat="47.8020558" lon="12.2862805"><ele>599.0</ele><time>2026-04-06T10:22:31.534Z</time></trkpt><trkpt lat="47.8020733" lon="12.286392"><ele>599.0</ele><time>2026-04-06T10:22:33.507Z</time></trkpt><trkpt lat="47.8020775" lon="12.2864976"><ele>599.0</ele><time>2026-04-06T10:22:35.533Z</time></trkpt><trkpt lat="47.8020883" lon="12.2865994"><ele>599.0</ele><time>2026-04-06T10:22:37.501Z</time></trkpt><trkpt lat="47.802106" lon="12.2866971"><ele>599.0</ele><time>2026-04-06T10:22:39.513Z</time></trkpt><trkpt lat="47.8021223" lon="12.2867957"><ele>599.0</ele><time>2026-04-06T10:22:41.516Z</time></trkpt><trkpt lat="47.8021443" lon="12.2868865"><ele>599.0</ele><time>2026-04-06T10:22:43.507Z</time></trkpt><trkpt lat="47.8021566" lon="12.2870221"><ele>599.0</ele><time>2026-04-06T10:22:46.512Z</time></trkpt><trkpt lat="47.8021688" lon="12.2871184"><ele>599.0</ele><time>2026-04-06T10:22:48.526Z</time></trkpt><trkpt lat="47.802196" lon="12.2872521"><ele>599.0</ele><time>2026-04-06T10:22:51.533Z</time></trkpt><trkpt lat="47.8022002" lon="12.2873467"><ele>599.0</ele><time>2026-04-06T10:22:53.539Z</time></trkpt><trkpt lat="47.8022175" lon="12.2874779"><ele>599.0</ele><time>2026-04-06T10:22:56.509Z</time></trkpt><trkpt lat="47.8022097" lon="12.2876104"><ele>599.0</ele><time>2026-04-06T10:22:59.508Z</time></trkpt><trkpt lat="47.8021885" lon="12.2877156"><ele>599.1666666666666</ele><time>2026-04-06T10:23:02.531Z</time></trkpt><trkpt lat="47.8021981" lon="12.2878106"><ele>599.3333333333333</ele><time>2026-04-06T10:23:05.526Z</time></trkpt><trkpt lat="47.8022431" lon="12.2879022"><ele>599.5</ele><time>2026-04-06T10:23:09.5Z</time></trkpt><trkpt lat="47.802311" lon="12.287951"><ele>599.6666666666666</ele><time>2026-04-06T10:23:12.516Z</time></trkpt><trkpt lat="47.8024011" lon="12.287943"><ele>599.8333333333334</ele><time>2026-04-06T10:23:15.502Z</time></trkpt><trkpt lat="47.8024913" lon="12.2879265"><ele>600.0</ele><time>2026-04-06T10:23:18.495Z</time></trkpt><trkpt lat="47.8025692" lon="12.2879984"><ele>599.9999999999999</ele><time>2026-04-06T10:23:21.524Z</time></trkpt><trkpt lat="47.8026013" lon="12.2880889"><ele>600.0</ele><time>2026-04-06T10:23:23.488Z</time></trkpt><trkpt lat="47.8026086" lon="12.2881909"><ele>600.0</ele><time>2026-04-06T10:23:25.518Z</time></trkpt><trkpt lat="47.8026108" lon="12.2882894"><ele>600.0</ele><time>2026-04-06T10:23:27.533Z</time></trkpt><trkpt lat="47.8026214" lon="12.2883833"><ele>600.0</ele><time>2026-04-06T10:23:29.509Z</time></trkpt><trkpt lat="47.802646" lon="12.2884782"><ele>599.9999999999999</ele><time>2026-04-06T10:23:31.503Z</time></trkpt><trkpt lat="47.8026936" lon="12.2885527"><ele>600.0</ele><time>2026-04-06T10:23:33.51Z</time></trkpt><trkpt lat="47.8027641" lon="12.2885932"><ele>599.5</ele><time>2026-04-06T10:23:35.542Z</time></trkpt><trkpt lat="47.8028676" lon="12.288625"><ele>599.0</ele><time>2026-04-06T10:23:37.53Z</time></trkpt><trkpt lat="47.802934" lon="12.2886561"><ele>598.5</ele><time>2026-04-06T10:23:39.536Z</time></trkpt><trkpt lat="47.8029804" lon="12.2887227"><ele>598.0</ele><time>2026-04-06T10:23:42.542Z</time></trkpt><trkpt lat="47.8029751" lon="12.2888314"><ele>597.5</ele><time>2026-04-06T10:23:46.498Z</time></trkpt><trkpt lat="47.8030143" lon="12.2889151"><ele>597.0</ele><time>2026-04-06T10:23:50.505Z</time></trkpt><trkpt lat="47.8030707" lon="12.2889983"><ele>597.0000000000001</ele><time>2026-04-06T10:23:54.506Z</time></trkpt><trkpt lat="47.8030884" lon="12.2890914"><ele>597.0</ele><time>2026-04-06T10:23:57.53Z</time></trkpt><trkpt lat="47.8031329" lon="12.2891761"><ele>597.0</ele><time>2026-04-06T10:24:00.519Z</time></trkpt><trkpt lat="47.8031823" lon="12.2892676"><ele>597.0</ele><time>2026-04-06T10:24:03.523Z</time></trkpt><trkpt lat="47.8032097" lon="12.2893722"><ele>597.0</ele><time>2026-04-06T10:24:06.521Z</time></trkpt><trkpt lat="47.8031776" lon="12.2894648"><ele>597.0000000000001</ele><time>2026-04-06T10:24:09.519Z</time></trkpt><trkpt lat="47.8031564" lon="12.2895696"><ele>597.0</ele><time>2026-04-06T10:24:11.532Z</time></trkpt><trkpt lat="47.8031921" lon="12.2896624"><ele>597.0000000000001</ele><time>2026-04-06T10:24:13.542Z</time></trkpt><trkpt lat="47.8032105" lon="12.2897577"><ele>597.0</ele><time>2026-04-06T10:24:15.553Z</time></trkpt><trkpt lat="47.8032452" lon="12.2898896"><ele>597.0</ele><time>2026-04-06T10:24:18.549Z</time></trkpt><trkpt lat="47.8032675" lon="12.2899872"><ele>597.0</ele><time>2026-04-06T10:24:20.522Z</time></trkpt><trkpt lat="47.8032856" lon="12.2900827"><ele>597.0</ele><time>2026-04-06T10:24:22.514Z</time></trkpt><trkpt lat="47.8033009" lon="12.2901787"><ele>597.0000000000001</ele><time>2026-04-06T10:24:24.498Z</time></trkpt><trkpt lat="47.8033144" lon="12.2902721"><ele>597.0</ele><time>2026-04-06T10:24:26.517Z</time></trkpt><trkpt lat="47.803343" lon="12.290357"><ele>597.0</ele><time>2026-04-06T10:24:28.49Z</time></trkpt><trkpt lat="47.8033645" lon="12.2904539"><ele>597.0</ele><time>2026-04-06T10:24:30.524Z</time></trkpt><trkpt lat="47.8034009" lon="12.2905561"><ele>597.0</ele><time>2026-04-06T10:24:32.523Z</time></trkpt><trkpt lat="47.8034459" lon="12.2906844"><ele>597.0</ele><time>2026-04-06T10:24:34.515Z</time></trkpt><trkpt lat="47.80349" lon="12.2908076"><ele>597.0</ele><time>2026-04-06T10:24:36.514Z</time></trkpt><trkpt lat="47.8035316" lon="12.2909314"><ele>597.0</ele><time>2026-04-06T10:24:38.533Z</time></trkpt><trkpt lat="47.8035799" lon="12.2910265"><ele>596.8333333333334</ele><time>2026-04-06T10:24:40.524Z</time></trkpt><trkpt lat="47.8036326" lon="12.2911118"><ele>596.6666666666666</ele><time>2026-04-06T10:24:42.514Z</time></trkpt><trkpt lat="47.8036777" lon="12.291178"><ele>596.5</ele><time>2026-04-06T10:24:44.55Z</time></trkpt><trkpt lat="47.8037583" lon="12.2912491"><ele>596.3333333333333</ele><time>2026-04-06T10:24:47.538Z</time></trkpt><trkpt lat="47.8038245" lon="12.2912899"><ele>596.1666666666666</ele><time>2026-04-06T10:24:49.54Z</time></trkpt><trkpt lat="47.8038996" lon="12.2913195"><ele>596.0</ele><time>2026-04-06T10:24:51.537Z</time></trkpt><trkpt lat="47.8039714" lon="12.291357"><ele>596.0</ele><time>2026-04-06T10:24:53.525Z</time></trkpt><trkpt lat="47.8040308" lon="12.291394"><ele>596.0</ele><time>2026-04-06T10:24:55.522Z</time></trkpt><trkpt lat="47.8040879" lon="12.2914368"><ele>596.0</ele><time>2026-04-06T10:24:57.526Z</time></trkpt><trkpt lat="47.804147" lon="12.2914896"><ele>596.0</ele><time>2026-04-06T10:24:59.505Z</time></trkpt><trkpt lat="47.8042243" lon="12.2915427"><ele>596.0</ele><time>2026-04-06T10:25:02.513Z</time></trkpt><trkpt lat="47.8042973" lon="12.2915774"><ele>596.0</ele><time>2026-04-06T10:25:05.545Z</time></trkpt><trkpt lat="47.8043811" lon="12.2915621"><ele>596.0</ele><time>2026-04-06T10:25:08.519Z</time></trkpt><trkpt lat="47.8044517" lon="12.2915921"><ele>596.2857142857142</ele><time>2026-04-06T10:25:10.538Z</time></trkpt><trkpt lat="47.8045243" lon="12.2916241"><ele>596.5714285714286</ele><time>2026-04-06T10:25:12.525Z</time></trkpt><trkpt lat="47.80459" lon="12.2916514"><ele>596.8571428571429</ele><time>2026-04-06T10:25:14.524Z</time></trkpt><trkpt lat="47.8046579" lon="12.2916805"><ele>597.1428571428571</ele><time>2026-04-06T10:25:16.507Z</time></trkpt><trkpt lat="47.8047275" lon="12.2917073"><ele>597.4285714285714</ele><time>2026-04-06T10:25:18.509Z</time></trkpt><trkpt lat="47.8047949" lon="12.2917356"><ele>597.7142857142857</ele><time>2026-04-06T10:25:20.513Z</time></trkpt><trkpt lat="47.8048684" lon="12.2917659"><ele>598.0</ele><time>2026-04-06T10:25:22.529Z</time></trkpt><trkpt lat="47.8049358" lon="12.2918037"><ele>598.0</ele><time>2026-04-06T10:25:25.526Z</time></trkpt><trkpt lat="47.8049995" lon="12.2918674"><ele>598.0</ele><time>2026-04-06T10:25:28.525Z</time></trkpt><trkpt lat="47.8050703" lon="12.2918983"><ele>598.0</ele><time>2026-04-06T10:25:31.427Z</time></trkpt><trkpt lat="47.8051361" lon="12.2919231"><ele>598.0</ele><time>2026-04-06T10:25:34.532Z</time></trkpt><trkpt lat="47.8052019" lon="12.2919422"><ele>598.0</ele><time>2026-04-06T10:25:38.507Z</time></trkpt><trkpt lat="47.805225" lon="12.2920515"><ele>598.0</ele><time>2026-04-06T10:25:47.529Z</time></trkpt><trkpt lat="47.8052214" lon="12.2921581"><ele>598.0</ele><time>2026-04-06T10:25:54.537Z</time></trkpt><trkpt lat="47.8051851" lon="12.2922647"><ele>598.1999999999999</ele><time>2026-04-06T10:25:57.548Z</time></trkpt><trkpt lat="47.8051506" lon="12.2923586"><ele>598.4</ele><time>2026-04-06T10:25:59.531Z</time></trkpt><trkpt lat="47.805144" lon="12.2925057"><ele>598.5999999999999</ele><time>2026-04-06T10:26:01.535Z</time></trkpt><trkpt lat="47.8051643" lon="12.2926604"><ele>598.8</ele><time>2026-04-06T10:26:03.545Z</time></trkpt><trkpt lat="47.8052015" lon="12.2928031"><ele>599.0</ele><time>2026-04-06T10:26:05.528Z</time></trkpt><trkpt lat="47.805255" lon="12.2929382"><ele>599.0</ele><time>2026-04-06T10:26:07.526Z</time></trkpt><trkpt lat="47.805307" lon="12.2930502"><ele>599.0</ele><time>2026-04-06T10:26:09.548Z</time></trkpt><trkpt lat="47.8053565" lon="12.2931559"><ele>599.0</ele><time>2026-04-06T10:26:11.534Z</time></trkpt><trkpt lat="47.8054046" lon="12.2932511"><ele>599.0</ele><time>2026-04-06T10:26:13.516Z</time></trkpt><trkpt lat="47.8053826" lon="12.2933403"><ele>599.0</ele><time>2026-04-06T10:26:17.525Z</time></trkpt><trkpt lat="47.8053402" lon="12.2934325"><ele>599.0</ele><time>2026-04-06T10:26:28.528Z</time></trkpt><trkpt lat="47.8053869" lon="12.2935258"><ele>598.1666666666666</ele><time>2026-04-06T10:26:35.519Z</time></trkpt><trkpt lat="47.8054518" lon="12.2936169"><ele>597.3333333333333</ele><time>2026-04-06T10:26:39.519Z</time></trkpt><trkpt lat="47.8055166" lon="12.2936962"><ele>596.5</ele><time>2026-04-06T10:26:42.514Z</time></trkpt><trkpt lat="47.80558" lon="12.2937822"><ele>595.6666666666666</ele><time>2026-04-06T10:26:45.482Z</time></trkpt><trkpt lat="47.8056326" lon="12.2938419"><ele>594.8333333333334</ele><time>2026-04-06T10:26:47.544Z</time></trkpt><trkpt lat="47.805687" lon="12.2939213"><ele>594.0</ele><time>2026-04-06T10:26:49.536Z</time></trkpt><trkpt lat="47.805749" lon="12.293996"><ele>593.6666666666666</ele><time>2026-04-06T10:26:51.482Z</time></trkpt><trkpt lat="47.8058102" lon="12.2940615"><ele>593.3333333333334</ele><time>2026-04-06T10:26:53.473Z</time></trkpt><trkpt lat="47.8058711" lon="12.2941571"><ele>593.0</ele><time>2026-04-06T10:26:55.488Z</time></trkpt><trkpt lat="47.8059419" lon="12.2942284"><ele>592.6666666666667</ele><time>2026-04-06T10:26:57.487Z</time></trkpt><trkpt lat="47.806014" lon="12.2943074"><ele>592.3333333333334</ele><time>2026-04-06T10:26:59.479Z</time></trkpt><trkpt lat="47.8060782" lon="12.294391"><ele>592.0</ele><time>2026-04-06T10:27:01.498Z</time></trkpt><trkpt lat="47.8061438" lon="12.2944814"><ele>591.8333333333334</ele><time>2026-04-06T10:27:03.522Z</time></trkpt><trkpt lat="47.8062152" lon="12.2945771"><ele>591.6666666666667</ele><time>2026-04-06T10:27:05.537Z</time></trkpt><trkpt lat="47.8062842" lon="12.2946626"><ele>591.5</ele><time>2026-04-06T10:27:07.508Z</time></trkpt><trkpt lat="47.8063485" lon="12.2947495"><ele>591.3333333333334</ele><time>2026-04-06T10:27:09.523Z</time></trkpt><trkpt lat="47.806412" lon="12.2948351"><ele>591.1666666666666</ele><time>2026-04-06T10:27:11.514Z</time></trkpt><trkpt lat="47.8064697" lon="12.2949311"><ele>591.0</ele><time>2026-04-06T10:27:13.5Z</time></trkpt><trkpt lat="47.8065243" lon="12.2950093"><ele>591.0</ele><time>2026-04-06T10:27:15.51Z</time></trkpt><trkpt lat="47.8065797" lon="12.2950989"><ele>591.0</ele><time>2026-04-06T10:27:17.505Z</time></trkpt><trkpt lat="47.8066323" lon="12.2951937"><ele>591.0</ele><time>2026-04-06T10:27:19.529Z</time></trkpt><trkpt lat="47.8066818" lon="12.295292"><ele>591.0</ele><time>2026-04-06T10:27:21.527Z</time></trkpt><trkpt lat="47.8067347" lon="12.2953861"><ele>591.0</ele><time>2026-04-06T10:27:23.49Z</time></trkpt><trkpt lat="47.8067867" lon="12.2954915"><ele>591.0</ele><time>2026-04-06T10:27:25.512Z</time></trkpt><trkpt lat="47.8068419" lon="12.2955979"><ele>590.1666666666666</ele><time>2026-04-06T10:27:27.53Z</time></trkpt><trkpt lat="47.8068939" lon="12.2957055"><ele>589.3333333333334</ele><time>2026-04-06T10:27:29.538Z</time></trkpt><trkpt lat="47.8069498" lon="12.2958096"><ele>588.5</ele><time>2026-04-06T10:27:31.525Z</time></trkpt><trkpt lat="47.8070077" lon="12.2959235"><ele>587.6666666666667</ele><time>2026-04-06T10:27:33.511Z</time></trkpt><trkpt lat="47.8070571" lon="12.2960185"><ele>586.8333333333334</ele><time>2026-04-06T10:27:35.525Z</time></trkpt><trkpt lat="47.8070941" lon="12.2961082"><ele>586.0</ele><time>2026-04-06T10:27:37.502Z</time></trkpt><trkpt lat="47.8071283" lon="12.2961937"><ele>585.9999999999999</ele><time>2026-04-06T10:27:39.535Z</time></trkpt><trkpt lat="47.8071799" lon="12.2963075"><ele>586.0</ele><time>2026-04-06T10:27:42.511Z</time></trkpt><trkpt lat="47.8072375" lon="12.2964094"><ele>586.0</ele><time>2026-04-06T10:27:45.495Z</time></trkpt><trkpt lat="47.8072728" lon="12.2964936"><ele>586.0</ele><time>2026-04-06T10:27:49.509Z</time></trkpt><trkpt lat="47.8073032" lon="12.296576"><ele>586.0</ele><time>2026-04-06T10:27:56.492Z</time></trkpt><trkpt lat="47.8073326" lon="12.2966741"><ele>585.9999999999999</ele><time>2026-04-06T10:28:02.508Z</time></trkpt><trkpt lat="47.807382" lon="12.2967339"><ele>586.0</ele><time>2026-04-06T10:28:07.513Z</time></trkpt><trkpt lat="47.8074111" lon="12.2968218"><ele>585.0</ele><time>2026-04-06T10:28:10.519Z</time></trkpt><trkpt lat="47.8074442" lon="12.296914"><ele>584.0</ele><time>2026-04-06T10:28:13.514Z</time></trkpt><trkpt lat="47.8074737" lon="12.2970004"><ele>583.0</ele><time>2026-04-06T10:28:17.525Z</time></trkpt><trkpt lat="47.8075129" lon="12.2971098"><ele>582.0</ele><time>2026-04-06T10:28:22.518Z</time></trkpt><trkpt lat="47.8075465" lon="12.2971963"><ele>581.0</ele><time>2026-04-06T10:28:28.515Z</time></trkpt><trkpt lat="47.8075873" lon="12.2973162"><ele>580.0</ele><time>2026-04-06T10:28:32.496Z</time></trkpt><trkpt lat="47.8076418" lon="12.2974452"><ele>579.8333333333334</ele><time>2026-04-06T10:28:35.541Z</time></trkpt><trkpt lat="47.8076759" lon="12.2975521"><ele>579.6666666666667</ele><time>2026-04-06T10:28:37.505Z</time></trkpt><trkpt lat="47.8077172" lon="12.29765"><ele>579.5</ele><time>2026-04-06T10:28:39.536Z</time></trkpt><trkpt lat="47.8077525" lon="12.2977563"><ele>579.3333333333334</ele><time>2026-04-06T10:28:41.512Z</time></trkpt><trkpt lat="47.8077852" lon="12.2978663"><ele>579.1666666666666</ele><time>2026-04-06T10:28:43.504Z</time></trkpt><trkpt lat="47.8078209" lon="12.297968"><ele>579.0</ele><time>2026-04-06T10:28:45.525Z</time></trkpt><trkpt lat="47.8078628" lon="12.2980643"><ele>578.9999999999999</ele><time>2026-04-06T10:28:47.51Z</time></trkpt><trkpt lat="47.8078955" lon="12.2981754"><ele>579.0</ele><time>2026-04-06T10:28:49.502Z</time></trkpt><trkpt lat="47.8079261" lon="12.2982717"><ele>579.0</ele><time>2026-04-06T10:28:51.5Z</time></trkpt><trkpt lat="47.8079559" lon="12.2983569"><ele>579.0</ele><time>2026-04-06T10:28:53.539Z</time></trkpt><trkpt lat="47.8079987" lon="12.2984494"><ele>579.0</ele><time>2026-04-06T10:28:56.518Z</time></trkpt><trkpt lat="47.8080183" lon="12.2985539"><ele>578.9999999999999</ele><time>2026-04-06T10:29:07.516Z</time></trkpt><trkpt lat="47.8080453" lon="12.2986602"><ele>579.0</ele><time>2026-04-06T10:29:09.524Z</time></trkpt><trkpt lat="47.808082" lon="12.2987782"><ele>579.0</ele><time>2026-04-06T10:29:11.513Z</time></trkpt><trkpt lat="47.8081055" lon="12.2988951"><ele>579.0</ele><time>2026-04-06T10:29:13.52Z</time></trkpt><trkpt lat="47.8081309" lon="12.2989982"><ele>579.0</ele><time>2026-04-06T10:29:15.537Z</time></trkpt><trkpt lat="47.8081697" lon="12.2991201"><ele>579.0</ele><time>2026-04-06T10:29:18.502Z</time></trkpt><trkpt lat="47.8081972" lon="12.2992435"><ele>579.0</ele><time>2026-04-06T10:29:21.493Z</time></trkpt><trkpt lat="47.808194" lon="12.2993691"><ele>579.0</ele><time>2026-04-06T10:29:24.514Z</time></trkpt><trkpt lat="47.8081345" lon="12.2994327"><ele>579.0</ele><time>2026-04-06T10:29:26.524Z</time></trkpt><trkpt lat="47.8080738" lon="12.299483"><ele>579.0</ele><time>2026-04-06T10:29:28.506Z</time></trkpt><trkpt lat="47.8080184" lon="12.299551"><ele>579.0</ele><time>2026-04-06T10:29:30.507Z</time></trkpt><trkpt lat="47.8079584" lon="12.2996289"><ele>579.0</ele><time>2026-04-06T10:29:32.514Z</time></trkpt><trkpt lat="47.8079036" lon="12.2996935"><ele>579.0</ele><time>2026-04-06T10:29:34.516Z</time></trkpt><trkpt lat="47.807844" lon="12.299767"><ele>579.0</ele><time>2026-04-06T10:29:36.5Z</time></trkpt><trkpt lat="47.8077824" lon="12.2998494"><ele>579.0</ele><time>2026-04-06T10:29:38.477Z</time></trkpt><trkpt lat="47.8077193" lon="12.2999239"><ele>579.0</ele><time>2026-04-06T10:29:40.517Z</time></trkpt><trkpt lat="47.8076623" lon="12.2999933"><ele>579.0</ele><time>2026-04-06T10:29:42.443Z</time></trkpt><trkpt lat="47.8075983" lon="12.3000683"><ele>579.0</ele><time>2026-04-06T10:29:44.485Z</time></trkpt><trkpt lat="47.8075417" lon="12.3001445"><ele>579.0</ele><time>2026-04-06T10:29:46.367Z</time></trkpt><trkpt lat="47.8074751" lon="12.3001994"><ele>579.0</ele><time>2026-04-06T10:29:48.527Z</time></trkpt><trkpt lat="47.8073882" lon="12.300254"><ele>579.1666666666666</ele><time>2026-04-06T10:29:51.548Z</time></trkpt><trkpt lat="47.8073268" lon="12.3003033"><ele>579.3333333333334</ele><time>2026-04-06T10:29:55.443Z</time></trkpt><trkpt lat="47.8072481" lon="12.3003531"><ele>579.5</ele><time>2026-04-06T10:30:00.497Z</time></trkpt><trkpt lat="47.8071702" lon="12.3003955"><ele>579.6666666666667</ele><time>2026-04-06T10:30:03.52Z</time></trkpt><trkpt lat="47.8070949" lon="12.3004477"><ele>579.8333333333334</ele><time>2026-04-06T10:30:06.523Z</time></trkpt><trkpt lat="47.8070203" lon="12.3004929"><ele>580.0</ele><time>2026-04-06T10:30:09.506Z</time></trkpt><trkpt lat="47.8069383" lon="12.3005264"><ele>580.0</ele><time>2026-04-06T10:30:12.523Z</time></trkpt><trkpt lat="47.8068644" lon="12.3005274"><ele>580.0</ele><time>2026-04-06T10:30:15.508Z</time></trkpt><trkpt lat="47.8067996" lon="12.3005185"><ele>580.0</ele><time>2026-04-06T10:30:20.474Z</time></trkpt><trkpt lat="47.8067302" lon="12.3005029"><ele>580.0</ele><time>2026-04-06T10:30:25.516Z</time></trkpt><trkpt lat="47.8066561" lon="12.3004873"><ele>580.0</ele><time>2026-04-06T10:30:29.498Z</time></trkpt><trkpt lat="47.8065854" lon="12.300441"><ele>580.0</ele><time>2026-04-06T10:30:33.547Z</time></trkpt><trkpt lat="47.8065313" lon="12.3003779"><ele>580.0</ele><time>2026-04-06T10:30:38.528Z</time></trkpt><trkpt lat="47.8065001" lon="12.3002956"><ele>580.4285714285714</ele><time>2026-04-06T10:31:01.501Z</time></trkpt><trkpt lat="47.8064696" lon="12.3001929"><ele>580.8571428571429</ele><time>2026-04-06T10:31:05.54Z</time></trkpt><trkpt lat="47.8064241" lon="12.300107"><ele>581.2857142857143</ele><time>2026-04-06T10:31:10.504Z</time></trkpt><trkpt lat="47.806429" lon="12.3000091"><ele>581.7142857142858</ele><time>2026-04-06T10:31:15.522Z</time></trkpt><trkpt lat="47.8064162" lon="12.2999135"><ele>582.1428571428571</ele><time>2026-04-06T10:31:18.526Z</time></trkpt><trkpt lat="47.8063881" lon="12.2998091"><ele>582.5714285714287</ele><time>2026-04-06T10:31:22.492Z</time></trkpt><trkpt lat="47.8063481" lon="12.299732"><ele>583.0</ele><time>2026-04-06T10:31:26.502Z</time></trkpt><trkpt lat="47.8062683" lon="12.2996843"><ele>583.0000000000001</ele><time>2026-04-06T10:31:30.54Z</time></trkpt><trkpt lat="47.8062027" lon="12.2996778"><ele>583.0</ele><time>2026-04-06T10:31:33.526Z</time></trkpt><trkpt lat="47.8061242" lon="12.299673"><ele>583.0</ele><time>2026-04-06T10:31:38.509Z</time></trkpt><trkpt lat="47.8060575" lon="12.2996847"><ele>583.0</ele><time>2026-04-06T10:31:41.537Z</time></trkpt><trkpt lat="47.8060044" lon="12.2996267"><ele>583.0</ele><time>2026-04-06T10:32:01.513Z</time></trkpt><trkpt lat="47.8059353" lon="12.2995801"><ele>583.0000000000001</ele><time>2026-04-06T10:32:04.517Z</time></trkpt><trkpt lat="47.8058792" lon="12.2995374"><ele>583.0</ele><time>2026-04-06T10:32:07.535Z</time></trkpt><trkpt lat="47.8058179" lon="12.2995082"><ele>584.0000000000001</ele><time>2026-04-06T10:32:12.51Z</time></trkpt><trkpt lat="47.8057615" lon="12.2994536"><ele>585.0</ele><time>2026-04-06T10:32:17.498Z</time></trkpt><trkpt lat="47.8057121" lon="12.2993901"><ele>586.0</ele><time>2026-04-06T10:32:21.522Z</time></trkpt><trkpt lat="47.8056422" lon="12.2993465"><ele>587.0</ele><time>2026-04-06T10:32:25.523Z</time></trkpt><trkpt lat="47.8055811" lon="12.2992984"><ele>588.0</ele><time>2026-04-06T10:32:28.51Z</time></trkpt><trkpt lat="47.8055089" lon="12.2992523"><ele>589.0000000000001</ele><time>2026-04-06T10:32:31.503Z</time></trkpt><trkpt lat="47.8054377" lon="12.299202"><ele>590.0</ele><time>2026-04-06T10:32:35.516Z</time></trkpt><trkpt lat="47.805371" lon="12.2991592"><ele>590.0</ele><time>2026-04-06T10:32:39.541Z</time></trkpt><trkpt lat="47.8053204" lon="12.2990954"><ele>590.0</ele><time>2026-04-06T10:32:41.518Z</time></trkpt><trkpt lat="47.8052124" lon="12.2990304"><ele>590.0</ele><time>2026-04-06T10:32:43.541Z</time></trkpt><trkpt lat="47.8051129" lon="12.2989876"><ele>590.0</ele><time>2026-04-06T10:32:45.506Z</time></trkpt><trkpt lat="47.80503" lon="12.2989476"><ele>590.0</ele><time>2026-04-06T10:32:47.541Z</time></trkpt><trkpt lat="47.8049479" lon="12.2989039"><ele>589.2857142857143</ele><time>2026-04-06T10:32:49.537Z</time></trkpt><trkpt lat="47.8048714" lon="12.2988856"><ele>588.5714285714286</ele><time>2026-04-06T10:32:51.544Z</time></trkpt><trkpt lat="47.8047906" lon="12.2989073"><ele>587.8571428571429</ele><time>2026-04-06T10:32:53.51Z</time></trkpt><trkpt lat="47.8047154" lon="12.2989293"><ele>587.1428571428571</ele><time>2026-04-06T10:32:55.48Z</time></trkpt><trkpt lat="47.8046498" lon="12.2989899"><ele>586.4285714285714</ele><time>2026-04-06T10:32:57.536Z</time></trkpt><trkpt lat="47.8045969" lon="12.2990491"><ele>585.7142857142858</ele><time>2026-04-06T10:32:59.512Z</time></trkpt><trkpt lat="47.8045369" lon="12.2991002"><ele>585.0</ele><time>2026-04-06T10:33:01.489Z</time></trkpt><trkpt lat="47.8044655" lon="12.2991339"><ele>585.5</ele><time>2026-04-06T10:33:03.499Z</time></trkpt><trkpt lat="47.8043853" lon="12.299166"><ele>586.0</ele><time>2026-04-06T10:33:05.487Z</time></trkpt><trkpt lat="47.8043007" lon="12.2992029"><ele>586.5</ele><time>2026-04-06T10:33:07.519Z</time></trkpt><trkpt lat="47.8042363" lon="12.2992516"><ele>587.0</ele><time>2026-04-06T10:33:09.493Z</time></trkpt><trkpt lat="47.8041738" lon="12.2992885"><ele>587.5</ele><time>2026-04-06T10:33:11.512Z</time></trkpt><trkpt lat="47.8041086" lon="12.29931"><ele>588.0</ele><time>2026-04-06T10:33:13.489Z</time></trkpt><trkpt lat="47.8040279" lon="12.2993383"><ele>588.0</ele><time>2026-04-06T10:33:16.506Z</time></trkpt><trkpt lat="47.8039564" lon="12.2993541"><ele>588.0</ele><time>2026-04-06T10:33:21.506Z</time></trkpt><trkpt lat="47.8038872" lon="12.2993551"><ele>588.0</ele><time>2026-04-06T10:33:26.475Z</time></trkpt><trkpt lat="47.8038196" lon="12.2993708"><ele>588.0</ele><time>2026-04-06T10:33:31.488Z</time></trkpt><trkpt lat="47.8037592" lon="12.2993406"><ele>588.0</ele><time>2026-04-06T10:33:34.484Z</time></trkpt><trkpt lat="47.8036798" lon="12.2993621"><ele>588.0</ele><time>2026-04-06T10:33:38.492Z</time></trkpt><trkpt lat="47.8035964" lon="12.2993671"><ele>588.0</ele><time>2026-04-06T10:33:41.522Z</time></trkpt><trkpt lat="47.8035338" lon="12.2994192"><ele>587.8571428571429</ele><time>2026-04-06T10:33:46.524Z</time></trkpt><trkpt lat="47.8034732" lon="12.2994797"><ele>587.7142857142858</ele><time>2026-04-06T10:33:58.49Z</time></trkpt><trkpt lat="47.8034206" lon="12.2995652"><ele>587.5714285714286</ele><time>2026-04-06T10:34:03.533Z</time></trkpt><trkpt lat="47.8033686" lon="12.2996235"><ele>587.4285714285714</ele><time>2026-04-06T10:34:06.508Z</time></trkpt><trkpt lat="47.8033052" lon="12.2996811"><ele>587.2857142857143</ele><time>2026-04-06T10:34:11.528Z</time></trkpt><trkpt lat="47.8032455" lon="12.2997432"><ele>587.1428571428571</ele><time>2026-04-06T10:34:15.523Z</time></trkpt><trkpt lat="47.8031771" lon="12.2998033"><ele>587.0</ele><time>2026-04-06T10:34:19.499Z</time></trkpt><trkpt lat="47.8031319" lon="12.2998749"><ele>588.1428571428571</ele><time>2026-04-06T10:34:22.485Z</time></trkpt><trkpt lat="47.8030835" lon="12.299967"><ele>589.2857142857143</ele><time>2026-04-06T10:34:26.5Z</time></trkpt><trkpt lat="47.8030457" lon="12.3000449"><ele>590.4285714285714</ele><time>2026-04-06T10:34:29.503Z</time></trkpt><trkpt lat="47.8029981" lon="12.3001162"><ele>591.5714285714286</ele><time>2026-04-06T10:34:32.509Z</time></trkpt><trkpt lat="47.8029414" lon="12.3002001"><ele>592.7142857142858</ele><time>2026-04-06T10:34:35.518Z</time></trkpt><trkpt lat="47.8028824" lon="12.3002755"><ele>593.8571428571429</ele><time>2026-04-06T10:34:38.526Z</time></trkpt><trkpt lat="47.802822" lon="12.3003282"><ele>595.0</ele><time>2026-04-06T10:34:41.512Z</time></trkpt><trkpt lat="47.8027451" lon="12.3003617"><ele>595.0</ele><time>2026-04-06T10:34:44.493Z</time></trkpt><trkpt lat="47.8026779" lon="12.300381"><ele>595.0</ele><time>2026-04-06T10:34:46.51Z</time></trkpt><trkpt lat="47.8025974" lon="12.3004354"><ele>595.0</ele><time>2026-04-06T10:34:49.517Z</time></trkpt><trkpt lat="47.8025286" lon="12.3005087"><ele>595.0</ele><time>2026-04-06T10:34:52.527Z</time></trkpt><trkpt lat="47.8024635" lon="12.3005834"><ele>595.0</ele><time>2026-04-06T10:34:55.52Z</time></trkpt><trkpt lat="47.8023935" lon="12.3006613"><ele>595.0</ele><time>2026-04-06T10:34:58.521Z</time></trkpt><trkpt lat="47.8023352" lon="12.3007144"><ele>594.7142857142857</ele><time>2026-04-06T10:35:01.519Z</time></trkpt><trkpt lat="47.80229" lon="12.3007924"><ele>594.4285714285714</ele><time>2026-04-06T10:35:04.518Z</time></trkpt><trkpt lat="47.8022292" lon="12.300862"><ele>594.1428571428571</ele><time>2026-04-06T10:35:08.511Z</time></trkpt><trkpt lat="47.8021589" lon="12.3009047"><ele>593.8571428571429</ele><time>2026-04-06T10:35:11.535Z</time></trkpt><trkpt lat="47.8020975" lon="12.3009532"><ele>593.5714285714286</ele><time>2026-04-06T10:35:13.528Z</time></trkpt><trkpt lat="47.8020325" lon="12.3009942"><ele>593.2857142857142</ele><time>2026-04-06T10:35:15.521Z</time></trkpt><trkpt lat="47.8019598" lon="12.3010379"><ele>593.0</ele><time>2026-04-06T10:35:17.492Z</time></trkpt><trkpt lat="47.8018582" lon="12.3010793"><ele>592.9999999999999</ele><time>2026-04-06T10:35:19.51Z</time></trkpt><trkpt lat="47.8017933" lon="12.3010945"><ele>593.0</ele><time>2026-04-06T10:35:21.517Z</time></trkpt><trkpt lat="47.8017308" lon="12.3011158"><ele>593.0</ele><time>2026-04-06T10:35:23.5Z</time></trkpt><trkpt lat="47.8016669" lon="12.3011756"><ele>593.0</ele><time>2026-04-06T10:35:26.485Z</time></trkpt><trkpt lat="47.8015965" lon="12.3012322"><ele>593.0</ele><time>2026-04-06T10:35:29.518Z</time></trkpt><trkpt lat="47.8015162" lon="12.3012639"><ele>592.9999999999999</ele><time>2026-04-06T10:35:34.49Z</time></trkpt><trkpt lat="47.8014425" lon="12.3012655"><ele>593.0</ele><time>2026-04-06T10:35:36.491Z</time></trkpt><trkpt lat="47.8013612" lon="12.3012896"><ele>592.9999999999999</ele><time>2026-04-06T10:35:39.494Z</time></trkpt><trkpt lat="47.8012918" lon="12.3013493"><ele>593.0</ele><time>2026-04-06T10:35:42.528Z</time></trkpt><trkpt lat="47.8012275" lon="12.3013877"><ele>593.0</ele><time>2026-04-06T10:35:46.508Z</time></trkpt><trkpt lat="47.801163" lon="12.3014339"><ele>593.0</ele><time>2026-04-06T10:35:50.53Z</time></trkpt><trkpt lat="47.8011014" lon="12.3014745"><ele>593.0</ele><time>2026-04-06T10:36:09.533Z</time></trkpt><trkpt lat="47.801029" lon="12.3015326"><ele>592.9999999999999</ele><time>2026-04-06T10:36:19.531Z</time></trkpt><trkpt lat="47.8009579" lon="12.3015774"><ele>593.0</ele><time>2026-04-06T10:36:23.521Z</time></trkpt><trkpt lat="47.8008866" lon="12.3016381"><ele>594.5714285714286</ele><time>2026-04-06T10:36:26.511Z</time></trkpt><trkpt lat="47.8008279" lon="12.3016873"><ele>596.1428571428571</ele><time>2026-04-06T10:36:28.483Z</time></trkpt><trkpt lat="47.8007534" lon="12.301715"><ele>597.7142857142858</ele><time>2026-04-06T10:36:30.519Z</time></trkpt><trkpt lat="47.8006829" lon="12.3017715"><ele>599.2857142857142</ele><time>2026-04-06T10:36:32.635Z</time></trkpt><trkpt lat="47.8006259" lon="12.3018329"><ele>600.8571428571429</ele><time>2026-04-06T10:36:34.982Z</time></trkpt><trkpt lat="47.8005749" lon="12.3018897"><ele>602.4285714285714</ele><time>2026-04-06T10:36:37.221Z</time></trkpt><trkpt lat="47.8005255" lon="12.3019549"><ele>604.0</ele><time>2026-04-06T10:36:40.511Z</time></trkpt><trkpt lat="47.8004537" lon="12.3020191"><ele>604.0</ele><time>2026-04-06T10:36:43.521Z</time></trkpt><trkpt lat="47.8003988" lon="12.3021065"><ele>604.0</ele><time>2026-04-06T10:36:46.486Z</time></trkpt><trkpt lat="47.8003729" lon="12.3022093"><ele>604.0</ele><time>2026-04-06T10:36:49.504Z</time></trkpt><trkpt lat="47.8003573" lon="12.3023164"><ele>604.0</ele><time>2026-04-06T10:36:52.5Z</time></trkpt><trkpt lat="47.8003316" lon="12.3024208"><ele>604.0</ele><time>2026-04-06T10:36:56.483Z</time></trkpt><trkpt lat="47.8002939" lon="12.3025302"><ele>604.0</ele><time>2026-04-06T10:37:02.523Z</time></trkpt><trkpt lat="47.8002368" lon="12.3026181"><ele>602.8333333333334</ele><time>2026-04-06T10:37:05.5Z</time></trkpt><trkpt lat="47.8001766" lon="12.3026888"><ele>601.6666666666667</ele><time>2026-04-06T10:37:08.5Z</time></trkpt><trkpt lat="47.8001099" lon="12.3027665"><ele>600.5</ele><time>2026-04-06T10:37:11.496Z</time></trkpt><trkpt lat="47.8000523" lon="12.3028518"><ele>599.3333333333334</ele><time>2026-04-06T10:37:14.482Z</time></trkpt><trkpt lat="47.7999806" lon="12.3029378"><ele>598.1666666666666</ele><time>2026-04-06T10:37:17.54Z</time></trkpt><trkpt lat="47.7999073" lon="12.3030118"><ele>597.0</ele><time>2026-04-06T10:37:20.503Z</time></trkpt><trkpt lat="47.7998351" lon="12.3030446"><ele>599.8571428571429</ele><time>2026-04-06T10:37:23.385Z</time></trkpt><trkpt lat="47.7997935" lon="12.3031483"><ele>602.7142857142858</ele><time>2026-04-06T10:37:27.535Z</time></trkpt><trkpt lat="47.799738" lon="12.3032273"><ele>605.5714285714287</ele><time>2026-04-06T10:37:30.497Z</time></trkpt><trkpt lat="47.7996838" lon="12.3032834"><ele>608.4285714285714</ele><time>2026-04-06T10:37:33.505Z</time></trkpt><trkpt lat="47.79962" lon="12.3033159"><ele>611.2857142857142</ele><time>2026-04-06T10:37:36.519Z</time></trkpt><trkpt lat="47.7995503" lon="12.3033407"><ele>614.1428571428572</ele><time>2026-04-06T10:37:39.523Z</time></trkpt><trkpt lat="47.7994889" lon="12.3033762"><ele>617.0</ele><time>2026-04-06T10:37:42.525Z</time></trkpt><trkpt lat="47.7994597" lon="12.3034689"><ele>617.0</ele><time>2026-04-06T10:37:46.483Z</time></trkpt><trkpt lat="47.7994052" lon="12.3035359"><ele>617.0</ele><time>2026-04-06T10:37:50.502Z</time></trkpt><trkpt lat="47.7993761" lon="12.3034089"><ele>617.0</ele><time>2026-04-06T10:37:54.523Z</time></trkpt><trkpt lat="47.7993708" lon="12.3032832"><ele>617.0</ele><time>2026-04-06T10:37:57.515Z</time></trkpt><trkpt lat="47.7993506" lon="12.3031686"><ele>617.0</ele><time>2026-04-06T10:37:59.508Z</time></trkpt><trkpt lat="47.7993452" lon="12.3030573"><ele>617.0</ele><time>2026-04-06T10:38:01.509Z</time></trkpt><trkpt lat="47.7992787" lon="12.303029"><ele>612.8571428571429</ele><time>2026-04-06T10:38:04.488Z</time></trkpt><trkpt lat="47.7991967" lon="12.303011"><ele>608.7142857142857</ele><time>2026-04-06T10:38:08.496Z</time></trkpt><trkpt lat="47.7991298" lon="12.3030211"><ele>604.5714285714286</ele><time>2026-04-06T10:38:11.473Z</time></trkpt><trkpt lat="47.799064" lon="12.3030668"><ele>600.4285714285714</ele><time>2026-04-06T10:38:48.601Z</time></trkpt><trkpt lat="47.7989921" lon="12.3030547"><ele>596.2857142857142</ele><time>2026-04-06T10:39:05.522Z</time></trkpt><trkpt lat="47.798924" lon="12.3030493"><ele>592.1428571428571</ele><time>2026-04-06T10:39:08.537Z</time></trkpt><trkpt lat="47.7988491" lon="12.3030194"><ele>588.0</ele><time>2026-04-06T10:39:11.522Z</time></trkpt><trkpt lat="47.798777" lon="12.302987"><ele>588.0</ele><time>2026-04-06T10:39:14.502Z</time></trkpt><trkpt lat="47.798715" lon="12.3029694"><ele>588.0</ele><time>2026-04-06T10:39:18.482Z</time></trkpt><trkpt lat="47.7986383" lon="12.3029882"><ele>588.0</ele><time>2026-04-06T10:39:23.513Z</time></trkpt><trkpt lat="47.7985625" lon="12.3029924"><ele>588.0</ele><time>2026-04-06T10:39:27.502Z</time></trkpt><trkpt lat="47.7984886" lon="12.3029997"><ele>588.0</ele><time>2026-04-06T10:39:31.513Z</time></trkpt><trkpt lat="47.7984245" lon="12.3029982"><ele>588.0</ele><time>2026-04-06T10:39:34.488Z</time></trkpt><trkpt lat="47.7983542" lon="12.3029792"><ele>588.0</ele><time>2026-04-06T10:40:00.512Z</time></trkpt><trkpt lat="47.7983094" lon="12.302898"><ele>588.2857142857143</ele><time>2026-04-06T10:40:04.56Z</time></trkpt><trkpt lat="47.7982877" lon="12.3027883"><ele>588.5714285714286</ele><time>2026-04-06T10:40:09.494Z</time></trkpt><trkpt lat="47.7983001" lon="12.3026894"><ele>588.8571428571429</ele><time>2026-04-06T10:40:12.511Z</time></trkpt><trkpt lat="47.7983039" lon="12.3025789"><ele>589.1428571428571</ele><time>2026-04-06T10:40:15.527Z</time></trkpt><trkpt lat="47.7983121" lon="12.3024733"><ele>589.4285714285714</ele><time>2026-04-06T10:40:18.506Z</time></trkpt><trkpt lat="47.7983053" lon="12.3023749"><ele>589.7142857142858</ele><time>2026-04-06T10:40:21.492Z</time></trkpt><trkpt lat="47.7982429" lon="12.3023193"><ele>590.0</ele><time>2026-04-06T10:40:27.513Z</time></trkpt><trkpt lat="47.7981714" lon="12.3023324"><ele>590.0</ele><time>2026-04-06T10:40:31.515Z</time></trkpt><trkpt lat="47.7980982" lon="12.3022866"><ele>590.0</ele><time>2026-04-06T10:40:35.513Z</time></trkpt><trkpt lat="47.7980239" lon="12.3022771"><ele>590.0</ele><time>2026-04-06T10:40:39.515Z</time></trkpt><trkpt lat="47.797971" lon="12.3023691"><ele>590.0</ele><time>2026-04-06T10:40:44.525Z</time></trkpt><trkpt lat="47.797902" lon="12.3024336"><ele>590.0</ele><time>2026-04-06T10:40:47.508Z</time></trkpt><trkpt lat="47.7978319" lon="12.3024531"><ele>590.0</ele><time>2026-04-06T10:40:50.516Z</time></trkpt><trkpt lat="47.7977638" lon="12.3024525"><ele>590.0000000000001</ele><time>2026-04-06T10:40:53.532Z</time></trkpt><trkpt lat="47.7976956" lon="12.3024497"><ele>590.0</ele><time>2026-04-06T10:40:56.494Z</time></trkpt><trkpt lat="47.7976284" lon="12.302438"><ele>590.0</ele><time>2026-04-06T10:40:59.486Z</time></trkpt><trkpt lat="47.7975657" lon="12.3024508"><ele>590.0</ele><time>2026-04-06T10:41:03.52Z</time></trkpt><trkpt lat="47.7975047" lon="12.3024759"><ele>590.0</ele><time>2026-04-06T10:41:06.545Z</time></trkpt><trkpt lat="47.7974642" lon="12.3025764"><ele>590.0000000000001</ele><time>2026-04-06T10:41:11.524Z</time></trkpt><trkpt lat="47.7973989" lon="12.302634"><ele>590.0</ele><time>2026-04-06T10:41:40.515Z</time></trkpt><trkpt lat="47.797363" lon="12.3027255"><ele>590.2857142857143</ele><time>2026-04-06T10:41:44.518Z</time></trkpt><trkpt lat="47.7973205" lon="12.3028027"><ele>590.5714285714286</ele><time>2026-04-06T10:41:48.508Z</time></trkpt><trkpt lat="47.7972651" lon="12.3028611"><ele>590.8571428571429</ele><time>2026-04-06T10:41:51.501Z</time></trkpt><trkpt lat="47.7972124" lon="12.3029513"><ele>591.1428571428571</ele><time>2026-04-06T10:41:56.505Z</time></trkpt><trkpt lat="47.7971682" lon="12.3030508"><ele>591.4285714285714</ele><time>2026-04-06T10:42:00.52Z</time></trkpt><trkpt lat="47.7971262" lon="12.3031413"><ele>591.7142857142858</ele><time>2026-04-06T10:42:04.489Z</time></trkpt><trkpt lat="47.797073" lon="12.3032078"><ele>592.0</ele><time>2026-04-06T10:42:07.493Z</time></trkpt><trkpt lat="47.7970316" lon="12.3032876"><ele>592.5714285714286</ele><time>2026-04-06T10:42:10.504Z</time></trkpt><trkpt lat="47.7969874" lon="12.3033575"><ele>593.1428571428571</ele><time>2026-04-06T10:42:13.526Z</time></trkpt><trkpt lat="47.7969178" lon="12.3033854"><ele>593.7142857142857</ele><time>2026-04-06T10:42:17.5Z</time></trkpt><trkpt lat="47.796879" lon="12.3034615"><ele>594.2857142857142</ele><time>2026-04-06T10:42:20.516Z</time></trkpt><trkpt lat="47.7968159" lon="12.3035506"><ele>594.8571428571428</ele><time>2026-04-06T10:42:23.524Z</time></trkpt><trkpt lat="47.7967346" lon="12.3035803"><ele>595.4285714285714</ele><time>2026-04-06T10:42:26.493Z</time></trkpt><trkpt lat="47.7966681" lon="12.3036087"><ele>596.0</ele><time>2026-04-06T10:42:49.507Z</time></trkpt><trkpt lat="47.7966081" lon="12.3036802"><ele>596.0</ele><time>2026-04-06T10:42:53.517Z</time></trkpt><trkpt lat="47.7965474" lon="12.303766"><ele>596.0</ele><time>2026-04-06T10:43:12.52Z</time></trkpt><trkpt lat="47.7964975" lon="12.303852"><ele>596.0</ele><time>2026-04-06T10:43:17.526Z</time></trkpt><trkpt lat="47.7964291" lon="12.3039536"><ele>596.0</ele><time>2026-04-06T10:43:22.512Z</time></trkpt><trkpt lat="47.7963801" lon="12.3040252"><ele>596.0</ele><time>2026-04-06T10:43:25.513Z</time></trkpt><trkpt lat="47.7963416" lon="12.3041066"><ele>596.0</ele><time>2026-04-06T10:43:28.51Z</time></trkpt><trkpt lat="47.7962887" lon="12.3041733"><ele>595.8571428571429</ele><time>2026-04-06T10:43:31.49Z</time></trkpt><trkpt lat="47.7962489" lon="12.3042512"><ele>595.7142857142857</ele><time>2026-04-06T10:43:34.523Z</time></trkpt><trkpt lat="47.7962051" lon="12.3043325"><ele>595.5714285714286</ele><time>2026-04-06T10:43:37.484Z</time></trkpt><trkpt lat="47.7961665" lon="12.3044078"><ele>595.4285714285714</ele><time>2026-04-06T10:43:40.518Z</time></trkpt><trkpt lat="47.7961247" lon="12.3044837"><ele>595.2857142857142</ele><time>2026-04-06T10:43:45.53Z</time></trkpt><trkpt lat="47.7960917" lon="12.3045738"><ele>595.1428571428571</ele><time>2026-04-06T10:43:49.535Z</time></trkpt><trkpt lat="47.7960472" lon="12.304657"><ele>595.0</ele><time>2026-04-06T10:43:52.523Z</time></trkpt><trkpt lat="47.7959994" lon="12.3047396"><ele>594.7142857142857</ele><time>2026-04-06T10:43:56.521Z</time></trkpt><trkpt lat="47.7959631" lon="12.3048203"><ele>594.4285714285714</ele><time>2026-04-06T10:43:59.517Z</time></trkpt><trkpt lat="47.7959223" lon="12.3049039"><ele>594.1428571428571</ele><time>2026-04-06T10:44:02.511Z</time></trkpt><trkpt lat="47.7958814" lon="12.3049788"><ele>593.8571428571429</ele><time>2026-04-06T10:44:05.499Z</time></trkpt><trkpt lat="47.7958403" lon="12.305065"><ele>593.5714285714286</ele><time>2026-04-06T10:44:11.516Z</time></trkpt><trkpt lat="47.795795" lon="12.3051545"><ele>593.2857142857142</ele><time>2026-04-06T10:44:17.511Z</time></trkpt><trkpt lat="47.7957429" lon="12.3052519"><ele>593.0</ele><time>2026-04-06T10:44:22.517Z</time></trkpt><trkpt lat="47.7957011" lon="12.3053422"><ele>592.9999999999999</ele><time>2026-04-06T10:44:26.517Z</time></trkpt><trkpt lat="47.7956591" lon="12.3054166"><ele>593.0</ele><time>2026-04-06T10:44:38.515Z</time></trkpt><trkpt lat="47.7956173" lon="12.3054912"><ele>593.0</ele><time>2026-04-06T10:44:57.512Z</time></trkpt><trkpt lat="47.7955706" lon="12.3055692"><ele>593.0</ele><time>2026-04-06T10:45:05.53Z</time></trkpt><trkpt lat="47.7955376" lon="12.3056494"><ele>593.0</ele><time>2026-04-06T10:45:09.536Z</time></trkpt><trkpt lat="47.7954989" lon="12.305724"><ele>592.9999999999999</ele><time>2026-04-06T10:45:12.513Z</time></trkpt><trkpt lat="47.795464" lon="12.305806"><ele>593.0</ele><time>2026-04-06T10:45:15.524Z</time></trkpt><trkpt lat="47.7954272" lon="12.3058911"><ele>593.1428571428571</ele><time>2026-04-06T10:45:18.508Z</time></trkpt><trkpt lat="47.7953951" lon="12.3059734"><ele>593.2857142857142</ele><time>2026-04-06T10:45:21.519Z</time></trkpt><trkpt lat="47.7953587" lon="12.3060551"><ele>593.4285714285714</ele><time>2026-04-06T10:45:24.519Z</time></trkpt><trkpt lat="47.7953255" lon="12.3061473"><ele>593.5714285714286</ele><time>2026-04-06T10:45:28.506Z</time></trkpt><trkpt lat="47.7952845" lon="12.3062516"><ele>593.7142857142858</ele><time>2026-04-06T10:45:32.522Z</time></trkpt><trkpt lat="47.795245" lon="12.3063549"><ele>593.8571428571429</ele><time>2026-04-06T10:45:36.488Z</time></trkpt><trkpt lat="47.7952054" lon="12.3064617"><ele>594.0</ele><time>2026-04-06T10:45:40.524Z</time></trkpt><trkpt lat="47.7951598" lon="12.3065524"><ele>593.4285714285714</ele><time>2026-04-06T10:45:44.513Z</time></trkpt><trkpt lat="47.7951205" lon="12.3066388"><ele>592.8571428571429</ele><time>2026-04-06T10:45:48.503Z</time></trkpt><trkpt lat="47.7950806" lon="12.3067366"><ele>592.2857142857143</ele><time>2026-04-06T10:45:52.462Z</time></trkpt><trkpt lat="47.7950444" lon="12.3068144"><ele>591.7142857142858</ele><time>2026-04-06T10:45:55.53Z</time></trkpt><trkpt lat="47.7950097" lon="12.3069186"><ele>591.1428571428571</ele><time>2026-04-06T10:45:59.516Z</time></trkpt><trkpt lat="47.794965" lon="12.3069983"><ele>590.5714285714287</ele><time>2026-04-06T10:46:03.524Z</time></trkpt><trkpt lat="47.7949279" lon="12.3070953"><ele>590.0</ele><time>2026-04-06T10:46:07.538Z</time></trkpt><trkpt lat="47.7948893" lon="12.3071896"><ele>590.2857142857143</ele><time>2026-04-06T10:46:11.507Z</time></trkpt><trkpt lat="47.7948606" lon="12.3072754"><ele>590.5714285714286</ele><time>2026-04-06T10:46:15.506Z</time></trkpt><trkpt lat="47.7948299" lon="12.3073668"><ele>590.8571428571429</ele><time>2026-04-06T10:46:19.522Z</time></trkpt><trkpt lat="47.7947931" lon="12.3074613"><ele>591.1428571428571</ele><time>2026-04-06T10:46:23.53Z</time></trkpt><trkpt lat="47.794751" lon="12.3075424"><ele>591.4285714285714</ele><time>2026-04-06T10:46:26.511Z</time></trkpt><trkpt lat="47.7947144" lon="12.3076352"><ele>591.7142857142858</ele><time>2026-04-06T10:46:29.517Z</time></trkpt><trkpt lat="47.7946781" lon="12.3077357"><ele>592.0</ele><time>2026-04-06T10:46:32.513Z</time></trkpt><trkpt lat="47.7946447" lon="12.3078344"><ele>592.0</ele><time>2026-04-06T10:46:35.512Z</time></trkpt><trkpt lat="47.7946131" lon="12.3079412"><ele>592.0</ele><time>2026-04-06T10:46:38.499Z</time></trkpt><trkpt lat="47.7945763" lon="12.3080314"><ele>592.0</ele><time>2026-04-06T10:46:41.505Z</time></trkpt><trkpt lat="47.7945431" lon="12.3081363"><ele>592.0</ele><time>2026-04-06T10:46:44.514Z</time></trkpt><trkpt lat="47.794506" lon="12.3082365"><ele>592.0</ele><time>2026-04-06T10:46:47.583Z</time></trkpt><trkpt lat="47.7944739" lon="12.3083443"><ele>592.0</ele><time>2026-04-06T10:46:50.496Z</time></trkpt><trkpt lat="47.7944375" lon="12.3084491"><ele>592.1666666666667</ele><time>2026-04-06T10:46:53.502Z</time></trkpt><trkpt lat="47.7944077" lon="12.3085395"><ele>592.3333333333334</ele><time>2026-04-06T10:47:05.507Z</time></trkpt><trkpt lat="47.7943652" lon="12.3086473"><ele>592.5</ele><time>2026-04-06T10:47:09.526Z</time></trkpt><trkpt lat="47.7943426" lon="12.3087363"><ele>592.6666666666666</ele><time>2026-04-06T10:47:12.519Z</time></trkpt><trkpt lat="47.7943062" lon="12.3088256"><ele>592.8333333333333</ele><time>2026-04-06T10:47:15.491Z</time></trkpt><trkpt lat="47.7942566" lon="12.3089306"><ele>593.0</ele><time>2026-04-06T10:47:19.515Z</time></trkpt><trkpt lat="47.7942247" lon="12.3090366"><ele>593.5</ele><time>2026-04-06T10:47:22.5Z</time></trkpt><trkpt lat="47.7941899" lon="12.3091493"><ele>594.0</ele><time>2026-04-06T10:47:25.507Z</time></trkpt><trkpt lat="47.794151" lon="12.3092639"><ele>594.5</ele><time>2026-04-06T10:47:28.511Z</time></trkpt><trkpt lat="47.7941193" lon="12.3093733"><ele>595.0</ele><time>2026-04-06T10:47:31.517Z</time></trkpt><trkpt lat="47.7940831" lon="12.3094959"><ele>595.5</ele><time>2026-04-06T10:47:34.522Z</time></trkpt><trkpt lat="47.7940466" lon="12.3096115"><ele>596.0</ele><time>2026-04-06T10:47:37.517Z</time></trkpt><trkpt lat="47.7940191" lon="12.3097024"><ele>596.8571428571429</ele><time>2026-04-06T10:47:40.53Z</time></trkpt><trkpt lat="47.7939884" lon="12.3098053"><ele>597.7142857142857</ele><time>2026-04-06T10:47:54.51Z</time></trkpt><trkpt lat="47.7939595" lon="12.3099154"><ele>598.5714285714286</ele><time>2026-04-06T10:47:59.506Z</time></trkpt><trkpt lat="47.7939279" lon="12.3100209"><ele>599.4285714285714</ele><time>2026-04-06T10:48:02.523Z</time></trkpt><trkpt lat="47.7939107" lon="12.3101367"><ele>600.2857142857142</ele><time>2026-04-06T10:48:05.523Z</time></trkpt><trkpt lat="47.7938758" lon="12.3102157"><ele>601.1428571428571</ele><time>2026-04-06T10:48:08.524Z</time></trkpt><trkpt lat="47.7938571" lon="12.310313"><ele>602.0</ele><time>2026-04-06T10:48:11.501Z</time></trkpt><trkpt lat="47.7938294" lon="12.3104015"><ele>602.0</ele><time>2026-04-06T10:48:14.525Z</time></trkpt><trkpt lat="47.7937979" lon="12.3105066"><ele>602.0</ele><time>2026-04-06T10:48:17.485Z</time></trkpt><trkpt lat="47.7937753" lon="12.3106262"><ele>602.0</ele><time>2026-04-06T10:48:21.531Z</time></trkpt><trkpt lat="47.7937596" lon="12.310721"><ele>602.0</ele><time>2026-04-06T10:48:24.524Z</time></trkpt><trkpt lat="47.7937338" lon="12.3108423"><ele>602.0</ele><time>2026-04-06T10:48:28.548Z</time></trkpt><trkpt lat="47.7937143" lon="12.3109524"><ele>602.0</ele><time>2026-04-06T10:48:31.512Z</time></trkpt><trkpt lat="47.7936807" lon="12.3110627"><ele>601.8333333333333</ele><time>2026-04-06T10:48:34.525Z</time></trkpt><trkpt lat="47.7936507" lon="12.3111815"><ele>601.6666666666666</ele><time>2026-04-06T10:48:37.513Z</time></trkpt><trkpt lat="47.7936262" lon="12.3112882"><ele>601.5</ele><time>2026-04-06T10:48:40.503Z</time></trkpt><trkpt lat="47.7936088" lon="12.3114049"><ele>601.3333333333334</ele><time>2026-04-06T10:48:43.509Z</time></trkpt><trkpt lat="47.7935819" lon="12.3115261"><ele>601.1666666666667</ele><time>2026-04-06T10:48:46.502Z</time></trkpt><trkpt lat="47.7935546" lon="12.3116541"><ele>601.0</ele><time>2026-04-06T10:48:49.524Z</time></trkpt><trkpt lat="47.7935302" lon="12.3117685"><ele>600.0</ele><time>2026-04-06T10:48:52.513Z</time></trkpt><trkpt lat="47.7934969" lon="12.3118957"><ele>599.0</ele><time>2026-04-06T10:48:55.509Z</time></trkpt><trkpt lat="47.7934663" lon="12.3119999"><ele>598.0</ele><time>2026-04-06T10:48:58.483Z</time></trkpt><trkpt lat="47.7934363" lon="12.3121159"><ele>597.0</ele><time>2026-04-06T10:49:01.53Z</time></trkpt><trkpt lat="47.7934079" lon="12.3122661"><ele>596.0</ele><time>2026-04-06T10:49:04.949Z</time></trkpt><trkpt lat="47.7933827" lon="12.3124036"><ele>595.8333333333333</ele><time>2026-04-06T10:49:08.337Z</time></trkpt><trkpt lat="47.7933612" lon="12.3125223"><ele>595.6666666666666</ele><time>2026-04-06T10:49:11.525Z</time></trkpt><trkpt lat="47.7933369" lon="12.3126261"><ele>595.5</ele><time>2026-04-06T10:49:14.535Z</time></trkpt><trkpt lat="47.7932898" lon="12.3127432"><ele>595.3333333333334</ele><time>2026-04-06T10:49:17.529Z</time></trkpt><trkpt lat="47.7932667" lon="12.3128513"><ele>595.1666666666667</ele><time>2026-04-06T10:49:20.465Z</time></trkpt><trkpt lat="47.7932449" lon="12.312965"><ele>595.0</ele><time>2026-04-06T10:49:23.532Z</time></trkpt><trkpt lat="47.7932143" lon="12.3130825"><ele>595.0</ele><time>2026-04-06T10:49:26.523Z</time></trkpt><trkpt lat="47.7931876" lon="12.3132086"><ele>595.0</ele><time>2026-04-06T10:49:29.502Z</time></trkpt><trkpt lat="47.7931611" lon="12.3133346"><ele>595.0</ele><time>2026-04-06T10:49:32.487Z</time></trkpt><trkpt lat="47.7931332" lon="12.3134622"><ele>595.0</ele><time>2026-04-06T10:49:35.521Z</time></trkpt><trkpt lat="47.7931083" lon="12.3135778"><ele>595.0</ele><time>2026-04-06T10:49:38.526Z</time></trkpt><trkpt lat="47.7930785" lon="12.3136892"><ele>595.0</ele><time>2026-04-06T10:49:41.524Z</time></trkpt><trkpt lat="47.7930582" lon="12.3138156"><ele>595.0</ele><time>2026-04-06T10:49:44.501Z</time></trkpt><trkpt lat="47.7930411" lon="12.3139434"><ele>595.0</ele><time>2026-04-06T10:49:47.517Z</time></trkpt><trkpt lat="47.793024" lon="12.3140336"><ele>595.0</ele><time>2026-04-06T10:49:49.532Z</time></trkpt><trkpt lat="47.7929949" lon="12.314158"><ele>595.0</ele><time>2026-04-06T10:49:52.511Z</time></trkpt><trkpt lat="47.792973" lon="12.3142826"><ele>595.0</ele><time>2026-04-06T10:49:55.522Z</time></trkpt><trkpt lat="47.7929487" lon="12.3144059"><ele>595.0</ele><time>2026-04-06T10:49:58.504Z</time></trkpt><trkpt lat="47.7929257" lon="12.3145383"><ele>595.0</ele><time>2026-04-06T10:50:01.535Z</time></trkpt><trkpt lat="47.7928981" lon="12.3146684"><ele>595.0</ele><time>2026-04-06T10:50:04.512Z</time></trkpt><trkpt lat="47.7928704" lon="12.3147785"><ele>595.0</ele><time>2026-04-06T10:50:07.534Z</time></trkpt><trkpt lat="47.7928403" lon="12.3148615"><ele>595.0</ele><time>2026-04-06T10:50:10.527Z</time></trkpt><trkpt lat="47.7928164" lon="12.3149696"><ele>595.0</ele><time>2026-04-06T10:50:13.531Z</time></trkpt><trkpt lat="47.792793" lon="12.3150964"><ele>595.0</ele><time>2026-04-06T10:50:16.489Z</time></trkpt><trkpt lat="47.7927698" lon="12.3151877"><ele>594.7142857142857</ele><time>2026-04-06T10:50:18.485Z</time></trkpt><trkpt lat="47.7927413" lon="12.315327"><ele>594.4285714285714</ele><time>2026-04-06T10:50:21.5Z</time></trkpt><trkpt lat="47.7927212" lon="12.3154169"><ele>594.1428571428571</ele><time>2026-04-06T10:50:23.437Z</time></trkpt><trkpt lat="47.7926985" lon="12.3155198"><ele>593.8571428571429</ele><time>2026-04-06T10:50:25.518Z</time></trkpt><trkpt lat="47.7926833" lon="12.3156178"><ele>593.5714285714286</ele><time>2026-04-06T10:50:27.511Z</time></trkpt><trkpt lat="47.7926638" lon="12.3157177"><ele>593.2857142857142</ele><time>2026-04-06T10:50:29.525Z</time></trkpt><trkpt lat="47.7926436" lon="12.3158204"><ele>593.0</ele><time>2026-04-06T10:50:31.515Z</time></trkpt><trkpt lat="47.7926195" lon="12.3159196"><ele>593.0</ele><time>2026-04-06T10:50:33.506Z</time></trkpt><trkpt lat="47.7925891" lon="12.3160417"><ele>593.0</ele><time>2026-04-06T10:50:36.471Z</time></trkpt><trkpt lat="47.7925591" lon="12.316159"><ele>593.0</ele><time>2026-04-06T10:50:40.518Z</time></trkpt><trkpt lat="47.7925265" lon="12.3162787"><ele>593.0</ele><time>2026-04-06T10:50:44.495Z</time></trkpt><trkpt lat="47.7924965" lon="12.3163858"><ele>593.0</ele><time>2026-04-06T10:50:47.505Z</time></trkpt><trkpt lat="47.792471" lon="12.3164963"><ele>593.0</ele><time>2026-04-06T10:50:50.501Z</time></trkpt><trkpt lat="47.7924368" lon="12.3166139"><ele>592.8333333333333</ele><time>2026-04-06T10:50:53.508Z</time></trkpt><trkpt lat="47.792403" lon="12.3167299"><ele>592.6666666666666</ele><time>2026-04-06T10:50:56.504Z</time></trkpt><trkpt lat="47.792367" lon="12.3168475"><ele>592.5</ele><time>2026-04-06T10:50:59.522Z</time></trkpt><trkpt lat="47.7923284" lon="12.3169711"><ele>592.3333333333334</ele><time>2026-04-06T10:51:02.495Z</time></trkpt><trkpt lat="47.7922981" lon="12.3170923"><ele>592.1666666666667</ele><time>2026-04-06T10:51:05.504Z</time></trkpt><trkpt lat="47.7922542" lon="12.3172"><ele>592.0</ele><time>2026-04-06T10:51:08.436Z</time></trkpt><trkpt lat="47.7922103" lon="12.3173045"><ele>592.0</ele><time>2026-04-06T10:51:11.41Z</time></trkpt><trkpt lat="47.7921799" lon="12.3174237"><ele>592.0</ele><time>2026-04-06T10:51:14.542Z</time></trkpt><trkpt lat="47.7921399" lon="12.3175408"><ele>592.0</ele><time>2026-04-06T10:51:17.542Z</time></trkpt><trkpt lat="47.7921094" lon="12.317631"><ele>592.0</ele><time>2026-04-06T10:51:19.566Z</time></trkpt><trkpt lat="47.7920594" lon="12.3177404"><ele>592.0</ele><time>2026-04-06T10:51:22.533Z</time></trkpt><trkpt lat="47.7920278" lon="12.3178215"><ele>592.0</ele><time>2026-04-06T10:51:24.521Z</time></trkpt><trkpt lat="47.791999" lon="12.3179055"><ele>592.0</ele><time>2026-04-06T10:51:26.555Z</time></trkpt><trkpt lat="47.7919638" lon="12.3180177"><ele>592.0</ele><time>2026-04-06T10:51:29.515Z</time></trkpt><trkpt lat="47.7919305" lon="12.3180982"><ele>592.0</ele><time>2026-04-06T10:51:31.524Z</time></trkpt><trkpt lat="47.7918979" lon="12.3181798"><ele>592.0</ele><time>2026-04-06T10:51:33.687Z</time></trkpt><trkpt lat="47.7918454" lon="12.3183077"><ele>592.0</ele><time>2026-04-06T10:51:36.463Z</time></trkpt><trkpt lat="47.7918101" lon="12.3183905"><ele>592.0</ele><time>2026-04-06T10:51:38.501Z</time></trkpt><trkpt lat="47.7917626" lon="12.3185138"><ele>592.0</ele><time>2026-04-06T10:51:41.529Z</time></trkpt><trkpt lat="47.7917136" lon="12.318631"><ele>592.0</ele><time>2026-04-06T10:51:44.503Z</time></trkpt><trkpt lat="47.7916636" lon="12.3187434"><ele>592.0</ele><time>2026-04-06T10:51:47.505Z</time></trkpt><trkpt lat="47.7916273" lon="12.3188244"><ele>592.0</ele><time>2026-04-06T10:51:49.503Z</time></trkpt><trkpt lat="47.7915735" lon="12.3189385"><ele>592.0</ele><time>2026-04-06T10:51:52.528Z</time></trkpt><trkpt lat="47.7915216" lon="12.3190522"><ele>592.0</ele><time>2026-04-06T10:51:55.509Z</time></trkpt><trkpt lat="47.7914841" lon="12.3191298"><ele>592.0</ele><time>2026-04-06T10:51:57.509Z</time></trkpt><trkpt lat="47.7914367" lon="12.3192344"><ele>592.0</ele><time>2026-04-06T10:52:00.526Z</time></trkpt><trkpt lat="47.7913861" lon="12.3193391"><ele>592.0</ele><time>2026-04-06T10:52:04.507Z</time></trkpt><trkpt lat="47.7913361" lon="12.3194453"><ele>592.0</ele><time>2026-04-06T10:52:07.527Z</time></trkpt><trkpt lat="47.7912972" lon="12.3195345"><ele>592.0</ele><time>2026-04-06T10:52:11.541Z</time></trkpt><trkpt lat="47.7912501" lon="12.3196234"><ele>592.0</ele><time>2026-04-06T10:52:14.535Z</time></trkpt><trkpt lat="47.7911913" lon="12.3197302"><ele>592.0</ele><time>2026-04-06T10:52:17.538Z</time></trkpt><trkpt lat="47.7911463" lon="12.3198235"><ele>592.0</ele><time>2026-04-06T10:52:20.51Z</time></trkpt><trkpt lat="47.7910925" lon="12.3199223"><ele>592.0</ele><time>2026-04-06T10:52:23.538Z</time></trkpt><trkpt lat="47.7910363" lon="12.32003"><ele>592.0</ele><time>2026-04-06T10:52:26.544Z</time></trkpt><trkpt lat="47.7909959" lon="12.3201041"><ele>592.0</ele><time>2026-04-06T10:52:28.595Z</time></trkpt><trkpt lat="47.7909554" lon="12.3201788"><ele>592.0</ele><time>2026-04-06T10:52:30.511Z</time></trkpt><trkpt lat="47.7909118" lon="12.3202545"><ele>592.6666666666667</ele><time>2026-04-06T10:52:32.513Z</time></trkpt><trkpt lat="47.7908581" lon="12.3203644"><ele>593.3333333333334</ele><time>2026-04-06T10:52:35.488Z</time></trkpt><trkpt lat="47.7908149" lon="12.3204385"><ele>594.0</ele><time>2026-04-06T10:52:37.518Z</time></trkpt><trkpt lat="47.7907548" lon="12.3205402"><ele>594.6666666666666</ele><time>2026-04-06T10:52:40.496Z</time></trkpt><trkpt lat="47.7906954" lon="12.3206317"><ele>595.3333333333333</ele><time>2026-04-06T10:52:43.514Z</time></trkpt><trkpt lat="47.7906395" lon="12.3207253"><ele>596.0</ele><time>2026-04-06T10:52:46.534Z</time></trkpt><trkpt lat="47.790587" lon="12.3208108"><ele>596.3333333333333</ele><time>2026-04-06T10:52:49.517Z</time></trkpt><trkpt lat="47.7905493" lon="12.3208933"><ele>596.6666666666666</ele><time>2026-04-06T10:52:53.512Z</time></trkpt><trkpt lat="47.7906298" lon="12.3209567"><ele>597.0</ele><time>2026-04-06T10:52:56.516Z</time></trkpt><trkpt lat="47.790611" lon="12.3210663"><ele>597.3333333333334</ele><time>2026-04-06T10:52:59.532Z</time></trkpt><trkpt lat="47.7905462" lon="12.3211515"><ele>597.6666666666667</ele><time>2026-04-06T10:53:02.521Z</time></trkpt><trkpt lat="47.7904885" lon="12.3212358"><ele>598.0</ele><time>2026-04-06T10:53:05.539Z</time></trkpt><trkpt lat="47.7904351" lon="12.3213319"><ele>597.8333333333334</ele><time>2026-04-06T10:53:08.514Z</time></trkpt><trkpt lat="47.7903909" lon="12.3214433"><ele>597.6666666666667</ele><time>2026-04-06T10:53:11.51Z</time></trkpt><trkpt lat="47.7903611" lon="12.3215696"><ele>597.5</ele><time>2026-04-06T10:53:14.52Z</time></trkpt><trkpt lat="47.7903316" lon="12.321696"><ele>597.3333333333334</ele><time>2026-04-06T10:53:17.522Z</time></trkpt><trkpt lat="47.7902968" lon="12.3217797"><ele>597.1666666666666</ele><time>2026-04-06T10:53:19.519Z</time></trkpt><trkpt lat="47.7902295" lon="12.3218894"><ele>597.0</ele><time>2026-04-06T10:53:22.522Z</time></trkpt><trkpt lat="47.790172" lon="12.3219483"><ele>596.8571428571429</ele><time>2026-04-06T10:53:24.522Z</time></trkpt><trkpt lat="47.7901112" lon="12.3220021"><ele>596.7142857142858</ele><time>2026-04-06T10:53:26.502Z</time></trkpt><trkpt lat="47.7900505" lon="12.3220598"><ele>596.5714285714286</ele><time>2026-04-06T10:53:28.504Z</time></trkpt><trkpt lat="47.7899868" lon="12.3221032"><ele>596.4285714285714</ele><time>2026-04-06T10:53:30.528Z</time></trkpt><trkpt lat="47.7899142" lon="12.3221345"><ele>596.2857142857142</ele><time>2026-04-06T10:53:32.527Z</time></trkpt><trkpt lat="47.7898446" lon="12.3221819"><ele>596.1428571428571</ele><time>2026-04-06T10:53:34.512Z</time></trkpt><trkpt lat="47.7897812" lon="12.3222245"><ele>596.0</ele><time>2026-04-06T10:53:36.494Z</time></trkpt><trkpt lat="47.7897063" lon="12.3222728"><ele>595.8571428571429</ele><time>2026-04-06T10:53:38.529Z</time></trkpt><trkpt lat="47.7896415" lon="12.3223112"><ele>595.7142857142857</ele><time>2026-04-06T10:53:40.511Z</time></trkpt><trkpt lat="47.7895719" lon="12.3223462"><ele>595.5714285714286</ele><time>2026-04-06T10:53:44.508Z</time></trkpt><trkpt lat="47.7895017" lon="12.322397"><ele>595.4285714285714</ele><time>2026-04-06T10:53:49.497Z</time></trkpt><trkpt lat="47.7894391" lon="12.3224287"><ele>595.2857142857142</ele><time>2026-04-06T10:53:52.517Z</time></trkpt><trkpt lat="47.7893704" lon="12.3224826"><ele>595.1428571428571</ele><time>2026-04-06T10:53:55.507Z</time></trkpt><trkpt lat="47.7892981" lon="12.3225322"><ele>595.0</ele><time>2026-04-06T10:53:59.524Z</time></trkpt><trkpt lat="47.7892269" lon="12.3225964"><ele>595.1428571428571</ele><time>2026-04-06T10:54:03.529Z</time></trkpt><trkpt lat="47.7891755" lon="12.3226559"><ele>595.2857142857142</ele><time>2026-04-06T10:54:06.52Z</time></trkpt><trkpt lat="47.7891046" lon="12.3227148"><ele>595.4285714285714</ele><time>2026-04-06T10:54:09.537Z</time></trkpt><trkpt lat="47.7890516" lon="12.3227718"><ele>595.5714285714286</ele><time>2026-04-06T10:54:12.527Z</time></trkpt><trkpt lat="47.7889937" lon="12.3228513"><ele>595.7142857142857</ele><time>2026-04-06T10:54:15.522Z</time></trkpt><trkpt lat="47.7889445" lon="12.3229213"><ele>595.8571428571429</ele><time>2026-04-06T10:54:18.503Z</time></trkpt><trkpt lat="47.7888951" lon="12.3230087"><ele>596.0</ele><time>2026-04-06T10:54:21.516Z</time></trkpt><trkpt lat="47.7888534" lon="12.3231078"><ele>596.0</ele><time>2026-04-06T10:54:24.49Z</time></trkpt><trkpt lat="47.7888129" lon="12.323198"><ele>596.0</ele><time>2026-04-06T10:54:27.504Z</time></trkpt><trkpt lat="47.7887806" lon="12.3232785"><ele>596.0</ele><time>2026-04-06T10:54:29.53Z</time></trkpt><trkpt lat="47.788747" lon="12.3233655"><ele>596.0</ele><time>2026-04-06T10:54:31.527Z</time></trkpt><trkpt lat="47.78872" lon="12.3234604"><ele>596.0</ele><time>2026-04-06T10:54:33.509Z</time></trkpt><trkpt lat="47.7887042" lon="12.3235635"><ele>596.0</ele><time>2026-04-06T10:54:35.506Z</time></trkpt><trkpt lat="47.788698" lon="12.3236593"><ele>596.0</ele><time>2026-04-06T10:54:37.527Z</time></trkpt><trkpt lat="47.7887153" lon="12.3237672"><ele>596.0</ele><time>2026-04-06T10:54:39.491Z</time></trkpt><trkpt lat="47.7887346" lon="12.3238578"><ele>596.0</ele><time>2026-04-06T10:54:41.504Z</time></trkpt><trkpt lat="47.788763" lon="12.3239795"><ele>596.0</ele><time>2026-04-06T10:54:44.494Z</time></trkpt><trkpt lat="47.788786" lon="12.3240771"><ele>596.0</ele><time>2026-04-06T10:54:47.513Z</time></trkpt><trkpt lat="47.7888127" lon="12.3241806"><ele>596.0</ele><time>2026-04-06T10:54:50.497Z</time></trkpt><trkpt lat="47.7888423" lon="12.3242862"><ele>596.0</ele><time>2026-04-06T10:54:54.494Z</time></trkpt><trkpt lat="47.7888713" lon="12.3243903"><ele>596.0</ele><time>2026-04-06T10:54:57.538Z</time></trkpt><trkpt lat="47.7889067" lon="12.3245281"><ele>596.0</ele><time>2026-04-06T10:55:00.529Z</time></trkpt><trkpt lat="47.7889364" lon="12.3246362"><ele>596.0</ele><time>2026-04-06T10:55:02.517Z</time></trkpt><trkpt lat="47.7889735" lon="12.3247381"><ele>596.0</ele><time>2026-04-06T10:55:04.51Z</time></trkpt><trkpt lat="47.7890069" lon="12.3248711"><ele>596.0</ele><time>2026-04-06T10:55:06.496Z</time></trkpt><trkpt lat="47.7890416" lon="12.325012"><ele>596.0</ele><time>2026-04-06T10:55:08.526Z</time></trkpt><trkpt lat="47.7890834" lon="12.325163"><ele>595.4</ele><time>2026-04-06T10:55:10.54Z</time></trkpt><trkpt lat="47.7891243" lon="12.3253068"><ele>594.8</ele><time>2026-04-06T10:55:12.513Z</time></trkpt><trkpt lat="47.7891624" lon="12.3254429"><ele>594.1999999999999</ele><time>2026-04-06T10:55:14.522Z</time></trkpt><trkpt lat="47.7892039" lon="12.3255724"><ele>593.6</ele><time>2026-04-06T10:55:16.519Z</time></trkpt><trkpt lat="47.789246" lon="12.3256871"><ele>593.0</ele><time>2026-04-06T10:55:18.505Z</time></trkpt><trkpt lat="47.7892846" lon="12.3257972"><ele>592.8571428571428</ele><time>2026-04-06T10:55:20.522Z</time></trkpt><trkpt lat="47.7893134" lon="12.3258987"><ele>592.7142857142857</ele><time>2026-04-06T10:55:22.513Z</time></trkpt><trkpt lat="47.789274" lon="12.3259896"><ele>592.5714285714286</ele><time>2026-04-06T10:55:51.52Z</time></trkpt><trkpt lat="47.7892135" lon="12.3260292"><ele>592.4285714285713</ele><time>2026-04-06T10:55:55.519Z</time></trkpt><trkpt lat="47.7891393" lon="12.3260568"><ele>592.2857142857142</ele><time>2026-04-06T10:55:59.523Z</time></trkpt><trkpt lat="47.7890722" lon="12.3260887"><ele>592.1428571428571</ele><time>2026-04-06T10:56:02.5Z</time></trkpt><trkpt lat="47.7890132" lon="12.3261225"><ele>592.0</ele><time>2026-04-06T10:56:05.492Z</time></trkpt><trkpt lat="47.7889346" lon="12.3261758"><ele>592.0</ele><time>2026-04-06T10:56:09.517Z</time></trkpt><trkpt lat="47.7888727" lon="12.326219"><ele>592.0</ele><time>2026-04-06T10:56:12.517Z</time></trkpt><trkpt lat="47.7888119" lon="12.3262695"><ele>592.0</ele><time>2026-04-06T10:56:15.533Z</time></trkpt><trkpt lat="47.7887517" lon="12.3263344"><ele>592.0</ele><time>2026-04-06T10:56:18.513Z</time></trkpt><trkpt lat="47.7887025" lon="12.3263968"><ele>592.0</ele><time>2026-04-06T10:56:21.519Z</time></trkpt><trkpt lat="47.7886503" lon="12.3264579"><ele>592.0</ele><time>2026-04-06T10:56:24.515Z</time></trkpt><trkpt lat="47.7885946" lon="12.3265458"><ele>592.0</ele><time>2026-04-06T10:56:27.521Z</time></trkpt><trkpt lat="47.7885306" lon="12.3266248"><ele>592.5</ele><time>2026-04-06T10:56:30.522Z</time></trkpt><trkpt lat="47.7884773" lon="12.3267067"><ele>593.0</ele><time>2026-04-06T10:56:33.525Z</time></trkpt><trkpt lat="47.7884173" lon="12.3267935"><ele>593.5</ele><time>2026-04-06T10:56:36.48Z</time></trkpt><trkpt lat="47.7883571" lon="12.3268829"><ele>594.0</ele><time>2026-04-06T10:56:39.491Z</time></trkpt><trkpt lat="47.7883051" lon="12.3269572"><ele>594.5</ele><time>2026-04-06T10:56:42.471Z</time></trkpt><trkpt lat="47.7882477" lon="12.327049"><ele>595.0</ele><time>2026-04-06T10:56:45.475Z</time></trkpt><trkpt lat="47.7881831" lon="12.3271248"><ele>595.0</ele><time>2026-04-06T10:56:48.497Z</time></trkpt><trkpt lat="47.7881331" lon="12.3271936"><ele>595.0</ele><time>2026-04-06T10:56:50.521Z</time></trkpt><trkpt lat="47.7880677" lon="12.3272855"><ele>595.0</ele><time>2026-04-06T10:56:53.491Z</time></trkpt><trkpt lat="47.7880137" lon="12.3273458"><ele>595.0</ele><time>2026-04-06T10:56:56.503Z</time></trkpt><trkpt lat="47.7879517" lon="12.327409"><ele>595.0</ele><time>2026-04-06T10:57:00.523Z</time></trkpt><trkpt lat="47.7878855" lon="12.3274695"><ele>595.0</ele><time>2026-04-06T10:57:03.483Z</time></trkpt><trkpt lat="47.7878308" lon="12.3275363"><ele>595.0</ele><time>2026-04-06T10:57:06.496Z</time></trkpt><trkpt lat="47.7877676" lon="12.3275979"><ele>595.0</ele><time>2026-04-06T10:57:10.508Z</time></trkpt><trkpt lat="47.7877005" lon="12.3276365"><ele>595.0</ele><time>2026-04-06T10:57:14.521Z</time></trkpt><trkpt lat="47.7876191" lon="12.327694"><ele>595.0</ele><time>2026-04-06T10:57:17.499Z</time></trkpt><trkpt lat="47.7875467" lon="12.3277391"><ele>595.0</ele><time>2026-04-06T10:57:20.507Z</time></trkpt><trkpt lat="47.787463" lon="12.3277935"><ele>595.0</ele><time>2026-04-06T10:57:23.504Z</time></trkpt><trkpt lat="47.7874013" lon="12.3278236"><ele>595.0</ele><time>2026-04-06T10:57:25.492Z</time></trkpt><trkpt lat="47.7873373" lon="12.3278568"><ele>595.0</ele><time>2026-04-06T10:57:27.503Z</time></trkpt><trkpt lat="47.7872512" lon="12.3279018"><ele>595.0</ele><time>2026-04-06T10:57:30.521Z</time></trkpt><trkpt lat="47.7871827" lon="12.3279423"><ele>595.0</ele><time>2026-04-06T10:57:33.509Z</time></trkpt><trkpt lat="47.7871195" lon="12.3279729"><ele>595.0</ele><time>2026-04-06T10:57:36.477Z</time></trkpt><trkpt lat="47.7870468" lon="12.3280107"><ele>595.0</ele><time>2026-04-06T10:57:40.463Z</time></trkpt><trkpt lat="47.7869706" lon="12.3280588"><ele>595.0</ele><time>2026-04-06T10:57:45.504Z</time></trkpt><trkpt lat="47.7869052" lon="12.3280901"><ele>595.3333333333334</ele><time>2026-04-06T10:57:49.521Z</time></trkpt><trkpt lat="47.7868385" lon="12.3281158"><ele>595.6666666666667</ele><time>2026-04-06T10:57:52.486Z</time></trkpt><trkpt lat="47.7867649" lon="12.3281531"><ele>596.0</ele><time>2026-04-06T10:57:55.5Z</time></trkpt><trkpt lat="47.7866999" lon="12.328181"><ele>596.3333333333334</ele><time>2026-04-06T10:57:58.507Z</time></trkpt><trkpt lat="47.7866198" lon="12.328208"><ele>596.6666666666666</ele><time>2026-04-06T10:58:01.496Z</time></trkpt><trkpt lat="47.7865341" lon="12.3282447"><ele>597.0</ele><time>2026-04-06T10:58:04.467Z</time></trkpt><trkpt lat="47.7864699" lon="12.3282621"><ele>597.0000000000001</ele><time>2026-04-06T10:58:07.488Z</time></trkpt><trkpt lat="47.7863964" lon="12.3282817"><ele>597.0</ele><time>2026-04-06T10:58:13.509Z</time></trkpt><trkpt lat="47.7863322" lon="12.3283002"><ele>597.0</ele><time>2026-04-06T10:58:16.497Z</time></trkpt><trkpt lat="47.7862706" lon="12.3283397"><ele>597.0</ele><time>2026-04-06T10:58:19.49Z</time></trkpt><trkpt lat="47.786312" lon="12.3284396"><ele>597.0</ele><time>2026-04-06T10:58:23.519Z</time></trkpt><trkpt lat="47.7863812" lon="12.328512"><ele>597.0000000000001</ele><time>2026-04-06T10:58:26.515Z</time></trkpt><trkpt lat="47.7864339" lon="12.3285633"><ele>597.0</ele><time>2026-04-06T10:58:29.49Z</time></trkpt><trkpt lat="47.7864846" lon="12.328628"><ele>597.0000000000001</ele><time>2026-04-06T10:58:31.506Z</time></trkpt><trkpt lat="47.7865401" lon="12.3286952"><ele>597.0</ele><time>2026-04-06T10:58:33.524Z</time></trkpt><trkpt lat="47.7865907" lon="12.3287531"><ele>597.0</ele><time>2026-04-06T10:58:35.493Z</time></trkpt><trkpt lat="47.7866409" lon="12.3288111"><ele>597.0</ele><time>2026-04-06T10:58:37.486Z</time></trkpt><trkpt lat="47.7867116" lon="12.3288987"><ele>597.0</ele><time>2026-04-06T10:58:40.509Z</time></trkpt><trkpt lat="47.7867648" lon="12.3289508"><ele>597.0000000000001</ele><time>2026-04-06T10:58:42.521Z</time></trkpt><trkpt lat="47.7868432" lon="12.3290043"><ele>597.0</ele><time>2026-04-06T10:58:45.498Z</time></trkpt><trkpt lat="47.7869265" lon="12.3290593"><ele>596.7142857142858</ele><time>2026-04-06T10:58:48.505Z</time></trkpt><trkpt lat="47.7869878" lon="12.3290972"><ele>596.4285714285714</ele><time>2026-04-06T10:58:50.506Z</time></trkpt><trkpt lat="47.787047" lon="12.3291356"><ele>596.1428571428571</ele><time>2026-04-06T10:58:52.519Z</time></trkpt><trkpt lat="47.7871067" lon="12.3291754"><ele>595.8571428571429</ele><time>2026-04-06T10:58:54.493Z</time></trkpt><trkpt lat="47.787185" lon="12.3292273"><ele>595.5714285714286</ele><time>2026-04-06T10:58:57.502Z</time></trkpt><trkpt lat="47.7872437" lon="12.3292649"><ele>595.2857142857143</ele><time>2026-04-06T10:58:59.513Z</time></trkpt><trkpt lat="47.7873066" lon="12.3293139"><ele>595.0</ele><time>2026-04-06T10:59:01.519Z</time></trkpt><trkpt lat="47.7873649" lon="12.3293625"><ele>595.0</ele><time>2026-04-06T10:59:03.514Z</time></trkpt><trkpt lat="47.7874276" lon="12.3294177"><ele>595.0</ele><time>2026-04-06T10:59:05.518Z</time></trkpt><trkpt lat="47.7874876" lon="12.3294782"><ele>595.0</ele><time>2026-04-06T10:59:07.519Z</time></trkpt><trkpt lat="47.7875439" lon="12.3295366"><ele>595.0</ele><time>2026-04-06T10:59:09.509Z</time></trkpt><trkpt lat="47.7876064" lon="12.3296072"><ele>595.0</ele><time>2026-04-06T10:59:11.496Z</time></trkpt><trkpt lat="47.7876641" lon="12.3296836"><ele>595.0</ele><time>2026-04-06T10:59:13.509Z</time></trkpt><trkpt lat="47.787716" lon="12.32975"><ele>595.0</ele><time>2026-04-06T10:59:15.487Z</time></trkpt><trkpt lat="47.7877635" lon="12.3298149"><ele>595.1666666666667</ele><time>2026-04-06T10:59:17.503Z</time></trkpt><trkpt lat="47.787836" lon="12.3298884"><ele>595.3333333333334</ele><time>2026-04-06T10:59:20.517Z</time></trkpt><trkpt lat="47.787911" lon="12.3299358"><ele>595.5</ele><time>2026-04-06T10:59:23.516Z</time></trkpt><trkpt lat="47.7879853" lon="12.3299703"><ele>595.6666666666666</ele><time>2026-04-06T10:59:26.5Z</time></trkpt><trkpt lat="47.7880511" lon="12.3299824"><ele>595.8333333333333</ele><time>2026-04-06T10:59:28.509Z</time></trkpt><trkpt lat="47.78814" lon="12.3299884"><ele>596.0</ele><time>2026-04-06T10:59:31.506Z</time></trkpt><trkpt lat="47.7882271" lon="12.3299859"><ele>596.0</ele><time>2026-04-06T10:59:34.501Z</time></trkpt><trkpt lat="47.7883132" lon="12.3299855"><ele>596.0</ele><time>2026-04-06T10:59:37.514Z</time></trkpt><trkpt lat="47.7883976" lon="12.329981"><ele>596.0</ele><time>2026-04-06T10:59:40.512Z</time></trkpt><trkpt lat="47.7884773" lon="12.3299867"><ele>596.0</ele><time>2026-04-06T10:59:43.493Z</time></trkpt><trkpt lat="47.7885542" lon="12.329992"><ele>596.0</ele><time>2026-04-06T10:59:46.495Z</time></trkpt><trkpt lat="47.788632" lon="12.33"><ele>596.0</ele><time>2026-04-06T10:59:49.511Z</time></trkpt><trkpt lat="47.7887091" lon="12.329995"><ele>596.0</ele><time>2026-04-06T10:59:52.518Z</time></trkpt><trkpt lat="47.7887826" lon="12.3299928"><ele>596.0</ele><time>2026-04-06T10:59:55.519Z</time></trkpt><trkpt lat="47.7888588" lon="12.3299704"><ele>596.0</ele><time>2026-04-06T10:59:58.517Z</time></trkpt><trkpt lat="47.7889414" lon="12.3299443"><ele>596.0</ele><time>2026-04-06T11:00:01.532Z</time></trkpt><trkpt lat="47.7890176" lon="12.3299079"><ele>596.0</ele><time>2026-04-06T11:00:04.515Z</time></trkpt><trkpt lat="47.7890888" lon="12.3298683"><ele>596.0</ele><time>2026-04-06T11:00:07.53Z</time></trkpt><trkpt lat="47.7891691" lon="12.329823"><ele>596.0</ele><time>2026-04-06T11:00:10.492Z</time></trkpt><trkpt lat="47.7892561" lon="12.3297954"><ele>596.0</ele><time>2026-04-06T11:00:13.473Z</time></trkpt><trkpt lat="47.7893206" lon="12.3298001"><ele>596.0</ele><time>2026-04-06T11:00:16.508Z</time></trkpt><trkpt lat="47.7893884" lon="12.3298195"><ele>596.0</ele><time>2026-04-06T11:00:19.511Z</time></trkpt><trkpt lat="47.7894548" lon="12.3298336"><ele>596.0</ele><time>2026-04-06T11:00:21.53Z</time></trkpt><trkpt lat="47.7895252" lon="12.329848"><ele>596.0</ele><time>2026-04-06T11:00:23.52Z</time></trkpt><trkpt lat="47.789611" lon="12.329869"><ele>596.0</ele><time>2026-04-06T11:00:26.526Z</time></trkpt><trkpt lat="47.7896756" lon="12.3298872"><ele>595.7142857142857</ele><time>2026-04-06T11:00:28.494Z</time></trkpt><trkpt lat="47.7897567" lon="12.3299194"><ele>595.4285714285713</ele><time>2026-04-06T11:00:31.513Z</time></trkpt><trkpt lat="47.7898266" lon="12.3299271"><ele>595.1428571428571</ele><time>2026-04-06T11:00:33.519Z</time></trkpt><trkpt lat="47.7898924" lon="12.3299346"><ele>594.8571428571429</ele><time>2026-04-06T11:00:35.524Z</time></trkpt><trkpt lat="47.7899828" lon="12.3299698"><ele>594.5714285714287</ele><time>2026-04-06T11:00:38.494Z</time></trkpt><trkpt lat="47.7900321" lon="12.3300335"><ele>594.2857142857143</ele><time>2026-04-06T11:00:40.528Z</time></trkpt><trkpt lat="47.7900583" lon="12.330121"><ele>594.0</ele><time>2026-04-06T11:00:42.507Z</time></trkpt><trkpt lat="47.7900608" lon="12.3302192"><ele>594.0</ele><time>2026-04-06T11:00:44.502Z</time></trkpt><trkpt lat="47.7900524" lon="12.3303183"><ele>594.0</ele><time>2026-04-06T11:00:46.509Z</time></trkpt><trkpt lat="47.7900385" lon="12.3304125"><ele>594.0</ele><time>2026-04-06T11:00:48.488Z</time></trkpt><trkpt lat="47.7900289" lon="12.3305234"><ele>594.0</ele><time>2026-04-06T11:00:51.504Z</time></trkpt><trkpt lat="47.7900257" lon="12.3306282"><ele>594.0</ele><time>2026-04-06T11:00:54.521Z</time></trkpt><trkpt lat="47.7900267" lon="12.3307479"><ele>594.0</ele><time>2026-04-06T11:00:57.475Z</time></trkpt><trkpt lat="47.7900222" lon="12.3308483"><ele>594.0</ele><time>2026-04-06T11:01:01.52Z</time></trkpt><trkpt lat="47.7900218" lon="12.3309447"><ele>594.3333333333334</ele><time>2026-04-06T11:01:05.501Z</time></trkpt><trkpt lat="47.7900178" lon="12.3310557"><ele>594.6666666666666</ele><time>2026-04-06T11:01:08.51Z</time></trkpt><trkpt lat="47.7900232" lon="12.3311907"><ele>595.0</ele><time>2026-04-06T11:01:11.524Z</time></trkpt><trkpt lat="47.7900728" lon="12.3312852"><ele>595.3333333333333</ele><time>2026-04-06T11:01:13.513Z</time></trkpt><trkpt lat="47.7901482" lon="12.3313622"><ele>595.6666666666666</ele><time>2026-04-06T11:01:16.492Z</time></trkpt><trkpt lat="47.7902129" lon="12.3313571"><ele>596.0</ele><time>2026-04-06T11:01:18.527Z</time></trkpt><trkpt lat="47.7902743" lon="12.3313318"><ele>596.4285714285714</ele><time>2026-04-06T11:01:20.603Z</time></trkpt><trkpt lat="47.7903445" lon="12.3312827"><ele>596.8571428571428</ele><time>2026-04-06T11:01:22.544Z</time></trkpt><trkpt lat="47.7904109" lon="12.331235"><ele>597.2857142857142</ele><time>2026-04-06T11:01:24.518Z</time></trkpt><trkpt lat="47.7904801" lon="12.3311864"><ele>597.7142857142857</ele><time>2026-04-06T11:01:26.529Z</time></trkpt><trkpt lat="47.7905392" lon="12.3311453"><ele>598.1428571428571</ele><time>2026-04-06T11:01:28.506Z</time></trkpt><trkpt lat="47.7905984" lon="12.3311032"><ele>598.5714285714286</ele><time>2026-04-06T11:01:30.518Z</time></trkpt><trkpt lat="47.7906613" lon="12.3310537"><ele>599.0</ele><time>2026-04-06T11:01:32.521Z</time></trkpt><trkpt lat="47.7907464" lon="12.330998"><ele>599.0</ele><time>2026-04-06T11:01:35.524Z</time></trkpt><trkpt lat="47.7908056" lon="12.3309571"><ele>599.0</ele><time>2026-04-06T11:01:37.519Z</time></trkpt><trkpt lat="47.7908915" lon="12.330899"><ele>599.0</ele><time>2026-04-06T11:01:40.519Z</time></trkpt><trkpt lat="47.7909693" lon="12.330838"><ele>599.0</ele><time>2026-04-06T11:01:43.514Z</time></trkpt><trkpt lat="47.7910295" lon="12.3307949"><ele>599.0</ele><time>2026-04-06T11:01:45.508Z</time></trkpt><trkpt lat="47.7910869" lon="12.3307516"><ele>599.0</ele><time>2026-04-06T11:01:47.509Z</time></trkpt><trkpt lat="47.791145" lon="12.3307131"><ele>599.0</ele><time>2026-04-06T11:01:49.492Z</time></trkpt><trkpt lat="47.7912051" lon="12.3306722"><ele>600.2857142857143</ele><time>2026-04-06T11:01:51.52Z</time></trkpt><trkpt lat="47.7912785" lon="12.3306224"><ele>601.5714285714286</ele><time>2026-04-06T11:01:54.508Z</time></trkpt><trkpt lat="47.7913383" lon="12.3305786"><ele>602.8571428571429</ele><time>2026-04-06T11:01:57.507Z</time></trkpt><trkpt lat="47.7913935" lon="12.3305304"><ele>604.1428571428571</ele><time>2026-04-06T11:02:00.509Z</time></trkpt><trkpt lat="47.7914328" lon="12.3304397"><ele>605.4285714285714</ele><time>2026-04-06T11:02:07.513Z</time></trkpt><trkpt lat="47.7914406" lon="12.3303198"><ele>606.7142857142857</ele><time>2026-04-06T11:02:10.519Z</time></trkpt><trkpt lat="47.7914554" lon="12.3302189"><ele>608.0</ele><time>2026-04-06T11:02:13.508Z</time></trkpt><trkpt lat="47.7914885" lon="12.3301099"><ele>609.0</ele><time>2026-04-06T11:02:17.515Z</time></trkpt><trkpt lat="47.7915426" lon="12.3300187"><ele>609.0</ele><time>2026-04-06T11:02:21.53Z</time></trkpt><trkpt lat="47.7916099" lon="12.3299834"><ele>609.0</ele><time>2026-04-06T11:02:24.479Z</time></trkpt><trkpt lat="47.7916716" lon="12.32996"><ele>609.0</ele><time>2026-04-06T11:02:30.616Z</time></trkpt><trkpt lat="47.7917415" lon="12.330028"><ele>609.0</ele><time>2026-04-06T11:04:06.49Z</time></trkpt></trkseg><trkseg><trkpt lat="47.7915863" lon="12.3307966"><ele>608.0</ele><time>2026-04-06T12:05:56.279Z</time></trkpt><trkpt lat="47.791527" lon="12.3307617"><ele>608.0</ele><time>2026-04-06T12:06:28.27Z</time></trkpt><trkpt lat="47.7915034" lon="12.330668"><ele>608.0</ele><time>2026-04-06T12:06:32.321Z</time></trkpt><trkpt lat="47.7914847" lon="12.3305634"><ele>608.0</ele><time>2026-04-06T12:06:36.296Z</time></trkpt><trkpt lat="47.7914602" lon="12.3304762"><ele>608.0</ele><time>2026-04-06T12:06:41.284Z</time></trkpt><trkpt lat="47.7914541" lon="12.3303629"><ele>608.0</ele><time>2026-04-06T12:06:45.298Z</time></trkpt><trkpt lat="47.7914628" lon="12.330261"><ele>608.0</ele><time>2026-04-06T12:06:50.274Z</time></trkpt><trkpt lat="47.7914878" lon="12.3301559"><ele>608.1428571428571</ele><time>2026-04-06T12:06:53.302Z</time></trkpt><trkpt lat="47.7915269" lon="12.3300631"><ele>608.2857142857143</ele><time>2026-04-06T12:06:56.283Z</time></trkpt><trkpt lat="47.7915756" lon="12.3299957"><ele>608.4285714285714</ele><time>2026-04-06T12:06:59.287Z</time></trkpt><trkpt lat="47.7916374" lon="12.3299551"><ele>608.5714285714286</ele><time>2026-04-06T12:07:02.285Z</time></trkpt><trkpt lat="47.7916966" lon="12.329918"><ele>608.7142857142858</ele><time>2026-04-06T12:07:05.301Z</time></trkpt><trkpt lat="47.7917586" lon="12.3298957"><ele>608.8571428571429</ele><time>2026-04-06T12:07:08.308Z</time></trkpt><trkpt lat="47.7918264" lon="12.3298905"><ele>609.0</ele><time>2026-04-06T12:07:11.279Z</time></trkpt><trkpt lat="47.7918938" lon="12.3298985"><ele>610.1428571428571</ele><time>2026-04-06T12:07:14.289Z</time></trkpt><trkpt lat="47.7919652" lon="12.3299069"><ele>611.2857142857142</ele><time>2026-04-06T12:07:17.31Z</time></trkpt><trkpt lat="47.7920303" lon="12.3298985"><ele>612.4285714285714</ele><time>2026-04-06T12:07:20.274Z</time></trkpt><trkpt lat="47.7920943" lon="12.3298594"><ele>613.5714285714286</ele><time>2026-04-06T12:07:23.295Z</time></trkpt><trkpt lat="47.7921528" lon="12.3298159"><ele>614.7142857142857</ele><time>2026-04-06T12:07:26.29Z</time></trkpt><trkpt lat="47.792216" lon="12.329779"><ele>615.8571428571429</ele><time>2026-04-06T12:07:29.288Z</time></trkpt><trkpt lat="47.7922832" lon="12.3297425"><ele>617.0</ele><time>2026-04-06T12:07:32.273Z</time></trkpt><trkpt lat="47.7923642" lon="12.3297083"><ele>617.4285714285714</ele><time>2026-04-06T12:07:36.299Z</time></trkpt><trkpt lat="47.7924254" lon="12.3296839"><ele>617.8571428571428</ele><time>2026-04-06T12:07:39.286Z</time></trkpt><trkpt lat="47.7924932" lon="12.3296577"><ele>618.2857142857142</ele><time>2026-04-06T12:07:42.278Z</time></trkpt><trkpt lat="47.7925537" lon="12.3296183"><ele>618.7142857142858</ele><time>2026-04-06T12:07:45.299Z</time></trkpt><trkpt lat="47.7926157" lon="12.329574"><ele>619.1428571428571</ele><time>2026-04-06T12:07:48.295Z</time></trkpt><trkpt lat="47.7926806" lon="12.3295301"><ele>619.5714285714286</ele><time>2026-04-06T12:07:51.286Z</time></trkpt><trkpt lat="47.7927495" lon="12.3294841"><ele>620.0</ele><time>2026-04-06T12:07:54.309Z</time></trkpt><trkpt lat="47.7928174" lon="12.329452"><ele>620.1666666666666</ele><time>2026-04-06T12:07:57.301Z</time></trkpt><trkpt lat="47.7928795" lon="12.3294049"><ele>620.3333333333333</ele><time>2026-04-06T12:08:00.292Z</time></trkpt><trkpt lat="47.7929455" lon="12.3293751"><ele>620.5</ele><time>2026-04-06T12:08:03.286Z</time></trkpt><trkpt lat="47.7930426" lon="12.3293362"><ele>620.6666666666666</ele><time>2026-04-06T12:08:07.286Z</time></trkpt><trkpt lat="47.7931249" lon="12.3293198"><ele>620.8333333333334</ele><time>2026-04-06T12:08:10.296Z</time></trkpt><trkpt lat="47.7931987" lon="12.3292989"><ele>621.0</ele><time>2026-04-06T12:08:13.315Z</time></trkpt><trkpt lat="47.7932675" lon="12.3292836"><ele>620.9999999999999</ele><time>2026-04-06T12:08:16.29Z</time></trkpt><trkpt lat="47.7933316" lon="12.3292685"><ele>621.0</ele><time>2026-04-06T12:08:19.287Z</time></trkpt><trkpt lat="47.7933935" lon="12.3292458"><ele>621.0</ele><time>2026-04-06T12:08:22.307Z</time></trkpt><trkpt lat="47.7934631" lon="12.3292373"><ele>621.0</ele><time>2026-04-06T12:08:25.373Z</time></trkpt><trkpt lat="47.7935343" lon="12.3292253"><ele>621.0</ele><time>2026-04-06T12:08:28.277Z</time></trkpt><trkpt lat="47.793604" lon="12.3292017"><ele>620.9999999999999</ele><time>2026-04-06T12:08:31.287Z</time></trkpt><trkpt lat="47.7936778" lon="12.329187"><ele>621.0</ele><time>2026-04-06T12:08:34.273Z</time></trkpt><trkpt lat="47.7937416" lon="12.3291688"><ele>622.6666666666666</ele><time>2026-04-06T12:08:37.28Z</time></trkpt><trkpt lat="47.793825" lon="12.3291618"><ele>624.3333333333334</ele><time>2026-04-06T12:08:41.277Z</time></trkpt><trkpt lat="47.7938903" lon="12.3291487"><ele>626.0</ele><time>2026-04-06T12:08:44.203Z</time></trkpt><trkpt lat="47.7939727" lon="12.3291361"><ele>627.6666666666667</ele><time>2026-04-06T12:08:48.272Z</time></trkpt><trkpt lat="47.794053" lon="12.3291282"><ele>629.3333333333334</ele><time>2026-04-06T12:08:52.289Z</time></trkpt><trkpt lat="47.7941313" lon="12.3291355"><ele>631.0</ele><time>2026-04-06T12:10:32.292Z</time></trkpt><trkpt lat="47.79421" lon="12.3291312"><ele>631.0</ele><time>2026-04-06T12:10:36.301Z</time></trkpt><trkpt lat="47.7942798" lon="12.3291351"><ele>631.0</ele><time>2026-04-06T12:10:42.297Z</time></trkpt><trkpt lat="47.7943505" lon="12.329107"><ele>631.0</ele><time>2026-04-06T12:10:49.285Z</time></trkpt><trkpt lat="47.7944159" lon="12.3290643"><ele>631.0</ele><time>2026-04-06T12:10:54.296Z</time></trkpt><trkpt lat="47.7944514" lon="12.3289811"><ele>631.0</ele><time>2026-04-06T12:10:58.3Z</time></trkpt><trkpt lat="47.7944213" lon="12.3288899"><ele>631.0</ele><time>2026-04-06T12:11:02.281Z</time></trkpt><trkpt lat="47.7943908" lon="12.3287836"><ele>631.0</ele><time>2026-04-06T12:11:05.309Z</time></trkpt><trkpt lat="47.7943615" lon="12.3286666"><ele>630.6666666666667</ele><time>2026-04-06T12:11:08.271Z</time></trkpt><trkpt lat="47.7943756" lon="12.3285627"><ele>630.3333333333334</ele><time>2026-04-06T12:11:10.3Z</time></trkpt><trkpt lat="47.794375" lon="12.3284677"><ele>630.0</ele><time>2026-04-06T12:11:12.299Z</time></trkpt><trkpt lat="47.794384" lon="12.3283341"><ele>629.6666666666666</ele><time>2026-04-06T12:11:15.302Z</time></trkpt><trkpt lat="47.7943937" lon="12.3282116"><ele>629.3333333333333</ele><time>2026-04-06T12:11:18.292Z</time></trkpt><trkpt lat="47.7944295" lon="12.3281004"><ele>629.0</ele><time>2026-04-06T12:11:21.274Z</time></trkpt><trkpt lat="47.794479" lon="12.328019"><ele>626.8333333333333</ele><time>2026-04-06T12:11:25.298Z</time></trkpt><trkpt lat="47.7945311" lon="12.3279481"><ele>624.6666666666666</ele><time>2026-04-06T12:11:36.297Z</time></trkpt><trkpt lat="47.7946071" lon="12.3278537"><ele>622.5</ele><time>2026-04-06T12:11:39.297Z</time></trkpt><trkpt lat="47.7946556" lon="12.3277934"><ele>620.3333333333334</ele><time>2026-04-06T12:11:41.281Z</time></trkpt><trkpt lat="47.7947154" lon="12.327729"><ele>618.1666666666667</ele><time>2026-04-06T12:11:44.292Z</time></trkpt><trkpt lat="47.7947656" lon="12.3276635"><ele>616.0</ele><time>2026-04-06T12:11:47.28Z</time></trkpt><trkpt lat="47.7948149" lon="12.3275409"><ele>616.0</ele><time>2026-04-06T12:11:50.304Z</time></trkpt><trkpt lat="47.7948435" lon="12.3273909"><ele>616.0</ele><time>2026-04-06T12:11:52.313Z</time></trkpt><trkpt lat="47.7948512" lon="12.3272942"><ele>616.0</ele><time>2026-04-06T12:11:53.309Z</time></trkpt><trkpt lat="47.7948642" lon="12.3271924"><ele>616.0</ele><time>2026-04-06T12:11:54.28Z</time></trkpt><trkpt lat="47.7948806" lon="12.3270955"><ele>616.0</ele><time>2026-04-06T12:11:55.329Z</time></trkpt><trkpt lat="47.7948934" lon="12.3269961"><ele>616.0</ele><time>2026-04-06T12:11:56.335Z</time></trkpt><trkpt lat="47.7949056" lon="12.3268982"><ele>616.0</ele><time>2026-04-06T12:11:57.321Z</time></trkpt><trkpt lat="47.794924" lon="12.3268067"><ele>615.5</ele><time>2026-04-06T12:11:58.454Z</time></trkpt><trkpt lat="47.7949801" lon="12.3266447"><ele>615.0</ele><time>2026-04-06T12:12:00.303Z</time></trkpt><trkpt lat="47.7950408" lon="12.3265305"><ele>614.5</ele><time>2026-04-06T12:12:02.316Z</time></trkpt><trkpt lat="47.7950959" lon="12.3264765"><ele>614.0</ele><time>2026-04-06T12:12:04.288Z</time></trkpt><trkpt lat="47.7951683" lon="12.3264589"><ele>613.5</ele><time>2026-04-06T12:12:07.286Z</time></trkpt><trkpt lat="47.7952356" lon="12.3264526"><ele>613.0</ele><time>2026-04-06T12:12:11.31Z</time></trkpt><trkpt lat="47.7953065" lon="12.3264547"><ele>613.0</ele><time>2026-04-06T12:12:15.316Z</time></trkpt><trkpt lat="47.795387" lon="12.3264437"><ele>613.0</ele><time>2026-04-06T12:12:19.26Z</time></trkpt><trkpt lat="47.7954577" lon="12.3264434"><ele>613.0</ele><time>2026-04-06T12:12:22.294Z</time></trkpt><trkpt lat="47.7955382" lon="12.3264271"><ele>613.0</ele><time>2026-04-06T12:12:25.325Z</time></trkpt><trkpt lat="47.7956079" lon="12.3264161"><ele>613.0</ele><time>2026-04-06T12:12:28.318Z</time></trkpt><trkpt lat="47.7956837" lon="12.3263939"><ele>613.0</ele><time>2026-04-06T12:12:31.3Z</time></trkpt><trkpt lat="47.7957659" lon="12.3263748"><ele>612.5</ele><time>2026-04-06T12:12:34.318Z</time></trkpt><trkpt lat="47.7958472" lon="12.3263599"><ele>612.0</ele><time>2026-04-06T12:12:38.297Z</time></trkpt><trkpt lat="47.7959114" lon="12.3263184"><ele>611.5</ele><time>2026-04-06T12:13:17.315Z</time></trkpt><trkpt lat="47.7959833" lon="12.3262832"><ele>611.0</ele><time>2026-04-06T12:13:21.307Z</time></trkpt><trkpt lat="47.7960628" lon="12.3262624"><ele>610.5</ele><time>2026-04-06T12:13:25.318Z</time></trkpt><trkpt lat="47.7961346" lon="12.3262261"><ele>610.0</ele><time>2026-04-06T12:13:28.297Z</time></trkpt><trkpt lat="47.7962138" lon="12.326189"><ele>609.5714285714286</ele><time>2026-04-06T12:13:31.288Z</time></trkpt><trkpt lat="47.7963" lon="12.3261424"><ele>609.1428571428571</ele><time>2026-04-06T12:13:34.272Z</time></trkpt><trkpt lat="47.7963622" lon="12.3261161"><ele>608.7142857142857</ele><time>2026-04-06T12:13:36.303Z</time></trkpt><trkpt lat="47.7964195" lon="12.3260736"><ele>608.2857142857142</ele><time>2026-04-06T12:13:38.297Z</time></trkpt><trkpt lat="47.7964797" lon="12.3260319"><ele>607.8571428571429</ele><time>2026-04-06T12:13:40.316Z</time></trkpt><trkpt lat="47.7965546" lon="12.3259745"><ele>607.4285714285713</ele><time>2026-04-06T12:13:43.329Z</time></trkpt><trkpt lat="47.7966155" lon="12.3259255"><ele>607.0</ele><time>2026-04-06T12:13:45.314Z</time></trkpt><trkpt lat="47.7966808" lon="12.3258719"><ele>606.9999999999999</ele><time>2026-04-06T12:13:47.289Z</time></trkpt><trkpt lat="47.7967492" lon="12.3258143"><ele>607.0</ele><time>2026-04-06T12:13:49.296Z</time></trkpt><trkpt lat="47.7968109" lon="12.3257561"><ele>607.0</ele><time>2026-04-06T12:13:51.299Z</time></trkpt><trkpt lat="47.7968651" lon="12.3256931"><ele>607.0</ele><time>2026-04-06T12:13:53.296Z</time></trkpt><trkpt lat="47.7969242" lon="12.325637"><ele>607.0</ele><time>2026-04-06T12:13:55.295Z</time></trkpt><trkpt lat="47.7969818" lon="12.3255668"><ele>606.9999999999999</ele><time>2026-04-06T12:13:57.29Z</time></trkpt><trkpt lat="47.7970377" lon="12.3255017"><ele>607.0</ele><time>2026-04-06T12:13:59.301Z</time></trkpt><trkpt lat="47.7970969" lon="12.3254288"><ele>607.4285714285713</ele><time>2026-04-06T12:14:01.302Z</time></trkpt><trkpt lat="47.797146" lon="12.3253555"><ele>607.8571428571429</ele><time>2026-04-06T12:14:03.279Z</time></trkpt><trkpt lat="47.7971975" lon="12.3252889"><ele>608.2857142857142</ele><time>2026-04-06T12:14:05.297Z</time></trkpt><trkpt lat="47.7972505" lon="12.325208"><ele>608.7142857142857</ele><time>2026-04-06T12:14:07.293Z</time></trkpt><trkpt lat="47.7973" lon="12.3251382"><ele>609.1428571428571</ele><time>2026-04-06T12:14:09.296Z</time></trkpt><trkpt lat="47.7973459" lon="12.3250699"><ele>609.5714285714286</ele><time>2026-04-06T12:14:11.26Z</time></trkpt><trkpt lat="47.7973965" lon="12.3250115"><ele>610.0</ele><time>2026-04-06T12:14:13.294Z</time></trkpt><trkpt lat="47.7974426" lon="12.3249475"><ele>610.0</ele><time>2026-04-06T12:14:16.294Z</time></trkpt><trkpt lat="47.7974964" lon="12.3248765"><ele>610.0</ele><time>2026-04-06T12:14:19.301Z</time></trkpt><trkpt lat="47.7975474" lon="12.3247969"><ele>610.0</ele><time>2026-04-06T12:14:22.302Z</time></trkpt><trkpt lat="47.7976163" lon="12.3247058"><ele>610.0</ele><time>2026-04-06T12:14:25.297Z</time></trkpt><trkpt lat="47.7976815" lon="12.3246107"><ele>610.0</ele><time>2026-04-06T12:14:28.284Z</time></trkpt><trkpt lat="47.7977483" lon="12.3245182"><ele>610.0</ele><time>2026-04-06T12:14:31.277Z</time></trkpt><trkpt lat="47.797795" lon="12.3244542"><ele>609.8333333333334</ele><time>2026-04-06T12:14:33.305Z</time></trkpt><trkpt lat="47.7978385" lon="12.3243852"><ele>609.6666666666667</ele><time>2026-04-06T12:14:35.304Z</time></trkpt><trkpt lat="47.7978874" lon="12.3243185"><ele>609.5</ele><time>2026-04-06T12:14:37.289Z</time></trkpt><trkpt lat="47.7979558" lon="12.3242193"><ele>609.3333333333334</ele><time>2026-04-06T12:14:40.3Z</time></trkpt><trkpt lat="47.7980168" lon="12.3241295"><ele>609.1666666666666</ele><time>2026-04-06T12:14:43.305Z</time></trkpt><trkpt lat="47.7980775" lon="12.3240398"><ele>609.0</ele><time>2026-04-06T12:14:46.3Z</time></trkpt><trkpt lat="47.7981293" lon="12.3239771"><ele>609.0</ele><time>2026-04-06T12:14:48.295Z</time></trkpt><trkpt lat="47.7981726" lon="12.3239034"><ele>609.0</ele><time>2026-04-06T12:14:50.312Z</time></trkpt><trkpt lat="47.7982382" lon="12.3238021"><ele>609.0</ele><time>2026-04-06T12:14:53.308Z</time></trkpt><trkpt lat="47.7982859" lon="12.323739"><ele>609.0</ele><time>2026-04-06T12:14:55.301Z</time></trkpt><trkpt lat="47.7983334" lon="12.3236718"><ele>609.0</ele><time>2026-04-06T12:14:57.299Z</time></trkpt><trkpt lat="47.7983779" lon="12.3236035"><ele>609.0</ele><time>2026-04-06T12:14:59.308Z</time></trkpt><trkpt lat="47.79844" lon="12.3235048"><ele>609.0</ele><time>2026-04-06T12:15:02.305Z</time></trkpt><trkpt lat="47.7984939" lon="12.3234309"><ele>608.6666666666666</ele><time>2026-04-06T12:15:04.288Z</time></trkpt><trkpt lat="47.7985428" lon="12.323349"><ele>608.3333333333334</ele><time>2026-04-06T12:15:06.279Z</time></trkpt><trkpt lat="47.7985978" lon="12.323257"><ele>608.0</ele><time>2026-04-06T12:15:08.283Z</time></trkpt><trkpt lat="47.7986471" lon="12.3231473"><ele>607.6666666666667</ele><time>2026-04-06T12:15:10.315Z</time></trkpt><trkpt lat="47.7986947" lon="12.323031"><ele>607.3333333333334</ele><time>2026-04-06T12:15:12.312Z</time></trkpt><trkpt lat="47.798736" lon="12.3229042"><ele>607.0</ele><time>2026-04-06T12:15:14.323Z</time></trkpt><trkpt lat="47.7987714" lon="12.322763"><ele>607.8000000000001</ele><time>2026-04-06T12:15:16.318Z</time></trkpt><trkpt lat="47.7988036" lon="12.3226104"><ele>608.6</ele><time>2026-04-06T12:15:18.341Z</time></trkpt><trkpt lat="47.7988283" lon="12.322441"><ele>609.4000000000001</ele><time>2026-04-06T12:15:20.32Z</time></trkpt><trkpt lat="47.7988417" lon="12.3222774"><ele>610.2</ele><time>2026-04-06T12:15:22.343Z</time></trkpt><trkpt lat="47.7988453" lon="12.322111"><ele>611.0</ele><time>2026-04-06T12:15:24.308Z</time></trkpt><trkpt lat="47.7988433" lon="12.3219348"><ele>611.0</ele><time>2026-04-06T12:15:26.303Z</time></trkpt><trkpt lat="47.7988368" lon="12.3217547"><ele>611.0</ele><time>2026-04-06T12:15:28.284Z</time></trkpt><trkpt lat="47.7988265" lon="12.3215764"><ele>611.0</ele><time>2026-04-06T12:15:30.299Z</time></trkpt><trkpt lat="47.7988204" lon="12.3214782"><ele>611.0</ele><time>2026-04-06T12:15:31.292Z</time></trkpt><trkpt lat="47.7988178" lon="12.3213827"><ele>611.0</ele><time>2026-04-06T12:15:32.317Z</time></trkpt><trkpt lat="47.7988168" lon="12.3212879"><ele>611.0</ele><time>2026-04-06T12:15:33.298Z</time></trkpt><trkpt lat="47.7988173" lon="12.3211938"><ele>611.0</ele><time>2026-04-06T12:15:34.301Z</time></trkpt><trkpt lat="47.7988087" lon="12.3210134"><ele>611.0</ele><time>2026-04-06T12:15:36.291Z</time></trkpt><trkpt lat="47.7988077" lon="12.3208583"><ele>611.0</ele><time>2026-04-06T12:15:38.295Z</time></trkpt><trkpt lat="47.7988179" lon="12.3207049"><ele>611.0</ele><time>2026-04-06T12:15:40.307Z</time></trkpt><trkpt lat="47.7988361" lon="12.3205694"><ele>611.0</ele><time>2026-04-06T12:15:42.313Z</time></trkpt><trkpt lat="47.7988528" lon="12.3204391"><ele>610.4285714285714</ele><time>2026-04-06T12:15:44.278Z</time></trkpt><trkpt lat="47.7988739" lon="12.3203212"><ele>609.8571428571429</ele><time>2026-04-06T12:15:46.308Z</time></trkpt><trkpt lat="47.7989009" lon="12.3202187"><ele>609.2857142857142</ele><time>2026-04-06T12:15:48.331Z</time></trkpt><trkpt lat="47.7989301" lon="12.320131"><ele>608.7142857142858</ele><time>2026-04-06T12:15:50.299Z</time></trkpt><trkpt lat="47.7989608" lon="12.32003"><ele>608.1428571428571</ele><time>2026-04-06T12:15:52.292Z</time></trkpt><trkpt lat="47.7990075" lon="12.3199359"><ele>607.5714285714286</ele><time>2026-04-06T12:15:54.31Z</time></trkpt><trkpt lat="47.7990532" lon="12.3198506"><ele>607.0</ele><time>2026-04-06T12:15:56.274Z</time></trkpt><trkpt lat="47.7991011" lon="12.3197644"><ele>606.5</ele><time>2026-04-06T12:15:58.297Z</time></trkpt><trkpt lat="47.7991487" lon="12.3196727"><ele>606.0</ele><time>2026-04-06T12:16:00.298Z</time></trkpt><trkpt lat="47.7991975" lon="12.3195852"><ele>605.5</ele><time>2026-04-06T12:16:02.297Z</time></trkpt><trkpt lat="47.7992522" lon="12.3195169"><ele>605.0</ele><time>2026-04-06T12:16:04.322Z</time></trkpt><trkpt lat="47.7993145" lon="12.3194395"><ele>604.5</ele><time>2026-04-06T12:16:06.297Z</time></trkpt><trkpt lat="47.7993848" lon="12.3193791"><ele>604.0</ele><time>2026-04-06T12:16:08.309Z</time></trkpt><trkpt lat="47.7994552" lon="12.3193239"><ele>604.0000000000001</ele><time>2026-04-06T12:16:10.299Z</time></trkpt><trkpt lat="47.7995264" lon="12.3192703"><ele>604.0</ele><time>2026-04-06T12:16:12.281Z</time></trkpt><trkpt lat="47.7995944" lon="12.3192301"><ele>604.0</ele><time>2026-04-06T12:16:14.318Z</time></trkpt><trkpt lat="47.7996643" lon="12.3191909"><ele>604.0</ele><time>2026-04-06T12:16:16.309Z</time></trkpt><trkpt lat="47.7997323" lon="12.319158"><ele>604.0</ele><time>2026-04-06T12:16:18.307Z</time></trkpt><trkpt lat="47.7997925" lon="12.3191162"><ele>604.0000000000001</ele><time>2026-04-06T12:16:20.272Z</time></trkpt><trkpt lat="47.799854" lon="12.319088"><ele>604.0</ele><time>2026-04-06T12:16:22.292Z</time></trkpt><trkpt lat="47.799924" lon="12.3190505"><ele>604.0000000000001</ele><time>2026-04-06T12:16:24.286Z</time></trkpt><trkpt lat="47.799994" lon="12.3190184"><ele>604.0</ele><time>2026-04-06T12:16:26.28Z</time></trkpt><trkpt lat="47.8000626" lon="12.3189861"><ele>604.0</ele><time>2026-04-06T12:16:28.286Z</time></trkpt><trkpt lat="47.8001289" lon="12.3189561"><ele>604.0</ele><time>2026-04-06T12:16:30.304Z</time></trkpt><trkpt lat="47.8001937" lon="12.3189298"><ele>604.0</ele><time>2026-04-06T12:16:32.295Z</time></trkpt><trkpt lat="47.8002597" lon="12.318903"><ele>604.0000000000001</ele><time>2026-04-06T12:16:34.289Z</time></trkpt><trkpt lat="47.8003267" lon="12.3188741"><ele>604.0</ele><time>2026-04-06T12:16:36.3Z</time></trkpt><trkpt lat="47.800394" lon="12.3188413"><ele>604.1428571428572</ele><time>2026-04-06T12:16:38.299Z</time></trkpt><trkpt lat="47.8004613" lon="12.3188154"><ele>604.2857142857143</ele><time>2026-04-06T12:16:40.318Z</time></trkpt><trkpt lat="47.8005287" lon="12.3187915"><ele>604.4285714285714</ele><time>2026-04-06T12:16:42.316Z</time></trkpt><trkpt lat="47.8006" lon="12.3187703"><ele>604.5714285714287</ele><time>2026-04-06T12:16:44.316Z</time></trkpt><trkpt lat="47.8006686" lon="12.3187429"><ele>604.7142857142858</ele><time>2026-04-06T12:16:46.323Z</time></trkpt><trkpt lat="47.8007381" lon="12.3187154"><ele>604.8571428571429</ele><time>2026-04-06T12:16:48.304Z</time></trkpt><trkpt lat="47.8008046" lon="12.3186813"><ele>605.0</ele><time>2026-04-06T12:16:50.301Z</time></trkpt><trkpt lat="47.8008778" lon="12.3186518"><ele>605.0</ele><time>2026-04-06T12:16:52.292Z</time></trkpt><trkpt lat="47.8009502" lon="12.3186207"><ele>605.0</ele><time>2026-04-06T12:16:54.319Z</time></trkpt><trkpt lat="47.801021" lon="12.3185786"><ele>605.0</ele><time>2026-04-06T12:16:56.301Z</time></trkpt><trkpt lat="47.8010928" lon="12.318555"><ele>605.0</ele><time>2026-04-06T12:16:58.309Z</time></trkpt><trkpt lat="47.8011639" lon="12.3185172"><ele>605.0</ele><time>2026-04-06T12:17:00.275Z</time></trkpt><trkpt lat="47.8012305" lon="12.3184812"><ele>605.0</ele><time>2026-04-06T12:17:02.292Z</time></trkpt><trkpt lat="47.8012975" lon="12.3184364"><ele>605.0</ele><time>2026-04-06T12:17:04.318Z</time></trkpt><trkpt lat="47.8013666" lon="12.3183853"><ele>604.7142857142857</ele><time>2026-04-06T12:17:06.29Z</time></trkpt><trkpt lat="47.8014427" lon="12.3183516"><ele>604.4285714285714</ele><time>2026-04-06T12:17:08.294Z</time></trkpt><trkpt lat="47.8015073" lon="12.318321"><ele>604.1428571428571</ele><time>2026-04-06T12:17:10.296Z</time></trkpt><trkpt lat="47.8015725" lon="12.3182879"><ele>603.8571428571429</ele><time>2026-04-06T12:17:12.303Z</time></trkpt><trkpt lat="47.8016257" lon="12.3182189"><ele>603.5714285714286</ele><time>2026-04-06T12:17:14.324Z</time></trkpt><trkpt lat="47.8016504" lon="12.3181255"><ele>603.2857142857143</ele><time>2026-04-06T12:17:16.311Z</time></trkpt><trkpt lat="47.8016367" lon="12.3180221"><ele>603.0</ele><time>2026-04-06T12:17:19.322Z</time></trkpt><trkpt lat="47.8016241" lon="12.3179175"><ele>603.8333333333334</ele><time>2026-04-06T12:17:23.289Z</time></trkpt><trkpt lat="47.8016066" lon="12.3178226"><ele>604.6666666666666</ele><time>2026-04-06T12:17:27.322Z</time></trkpt><trkpt lat="47.8015915" lon="12.3177073"><ele>605.5</ele><time>2026-04-06T12:17:31.308Z</time></trkpt><trkpt lat="47.8015853" lon="12.3175933"><ele>606.3333333333333</ele><time>2026-04-06T12:17:35.325Z</time></trkpt><trkpt lat="47.8015674" lon="12.3174762"><ele>607.1666666666666</ele><time>2026-04-06T12:17:39.287Z</time></trkpt><trkpt lat="47.8015542" lon="12.3173516"><ele>608.0</ele><time>2026-04-06T12:17:43.303Z</time></trkpt><trkpt lat="47.8015407" lon="12.3172414"><ele>608.2857142857142</ele><time>2026-04-06T12:17:46.31Z</time></trkpt><trkpt lat="47.8015259" lon="12.3171265"><ele>608.5714285714287</ele><time>2026-04-06T12:17:49.303Z</time></trkpt><trkpt lat="47.8015141" lon="12.3170281"><ele>608.8571428571429</ele><time>2026-04-06T12:17:52.298Z</time></trkpt><trkpt lat="47.8015031" lon="12.3169111"><ele>609.1428571428571</ele><time>2026-04-06T12:17:56.327Z</time></trkpt><trkpt lat="47.8014887" lon="12.3168102"><ele>609.4285714285713</ele><time>2026-04-06T12:17:59.315Z</time></trkpt><trkpt lat="47.8014747" lon="12.316695"><ele>609.7142857142858</ele><time>2026-04-06T12:18:02.274Z</time></trkpt><trkpt lat="47.801463" lon="12.3166029"><ele>610.0</ele><time>2026-04-06T12:18:05.278Z</time></trkpt><trkpt lat="47.8014458" lon="12.3164927"><ele>610.0</ele><time>2026-04-06T12:18:10.308Z</time></trkpt><trkpt lat="47.8014396" lon="12.3163891"><ele>610.0</ele><time>2026-04-06T12:18:15.296Z</time></trkpt><trkpt lat="47.8014265" lon="12.3162742"><ele>610.0</ele><time>2026-04-06T12:18:19.285Z</time></trkpt><trkpt lat="47.8014155" lon="12.3161706"><ele>610.0</ele><time>2026-04-06T12:18:23.303Z</time></trkpt><trkpt lat="47.8013985" lon="12.3160736"><ele>610.0</ele><time>2026-04-06T12:18:28.304Z</time></trkpt><trkpt lat="47.8013866" lon="12.3159663"><ele>610.0</ele><time>2026-04-06T12:19:54.329Z</time></trkpt><trkpt lat="47.801369" lon="12.315858"><ele>610.0</ele><time>2026-04-06T12:19:59.294Z</time></trkpt><trkpt lat="47.8013516" lon="12.3157474"><ele>610.0</ele><time>2026-04-06T12:20:03.281Z</time></trkpt><trkpt lat="47.8013207" lon="12.3156416"><ele>610.0</ele><time>2026-04-06T12:20:07.29Z</time></trkpt><trkpt lat="47.8012946" lon="12.3155477"><ele>610.0</ele><time>2026-04-06T12:20:10.298Z</time></trkpt><trkpt lat="47.8012738" lon="12.3154477"><ele>610.0</ele><time>2026-04-06T12:20:13.333Z</time></trkpt><trkpt lat="47.801249" lon="12.3153483"><ele>610.0</ele><time>2026-04-06T12:20:16.273Z</time></trkpt><trkpt lat="47.8012265" lon="12.31525"><ele>610.0</ele><time>2026-04-06T12:20:19.297Z</time></trkpt><trkpt lat="47.8012047" lon="12.3151509"><ele>610.0</ele><time>2026-04-06T12:20:22.294Z</time></trkpt><trkpt lat="47.8011787" lon="12.3150587"><ele>610.2857142857143</ele><time>2026-04-06T12:20:25.303Z</time></trkpt><trkpt lat="47.8011611" lon="12.3149631"><ele>610.5714285714286</ele><time>2026-04-06T12:20:28.254Z</time></trkpt><trkpt lat="47.8011385" lon="12.3148518"><ele>610.8571428571429</ele><time>2026-04-06T12:20:32.293Z</time></trkpt><trkpt lat="47.8011172" lon="12.3147416"><ele>611.1428571428571</ele><time>2026-04-06T12:20:36.296Z</time></trkpt><trkpt lat="47.801089" lon="12.3146502"><ele>611.4285714285714</ele><time>2026-04-06T12:20:39.307Z</time></trkpt><trkpt lat="47.8010718" lon="12.314541"><ele>611.7142857142857</ele><time>2026-04-06T12:20:43.31Z</time></trkpt><trkpt lat="47.8010454" lon="12.3144484"><ele>612.0</ele><time>2026-04-06T12:20:47.293Z</time></trkpt><trkpt lat="47.801029" lon="12.3143434"><ele>612.0</ele><time>2026-04-06T12:20:51.288Z</time></trkpt><trkpt lat="47.8010074" lon="12.3142414"><ele>612.0</ele><time>2026-04-06T12:20:54.291Z</time></trkpt><trkpt lat="47.800977" lon="12.3141231"><ele>612.0</ele><time>2026-04-06T12:20:57.3Z</time></trkpt><trkpt lat="47.8009567" lon="12.3140244"><ele>612.0</ele><time>2026-04-06T12:20:59.317Z</time></trkpt><trkpt lat="47.8009335" lon="12.3138925"><ele>612.0</ele><time>2026-04-06T12:21:01.312Z</time></trkpt><trkpt lat="47.8008931" lon="12.313721"><ele>612.0</ele><time>2026-04-06T12:21:03.308Z</time></trkpt><trkpt lat="47.8008688" lon="12.313621"><ele>612.2</ele><time>2026-04-06T12:21:04.298Z</time></trkpt><trkpt lat="47.8008453" lon="12.313524"><ele>612.4000000000001</ele><time>2026-04-06T12:21:05.294Z</time></trkpt><trkpt lat="47.8008089" lon="12.3133573"><ele>612.5999999999999</ele><time>2026-04-06T12:21:07.316Z</time></trkpt><trkpt lat="47.8007796" lon="12.3132131"><ele>612.8</ele><time>2026-04-06T12:21:09.303Z</time></trkpt><trkpt lat="47.8007581" lon="12.3130977"><ele>613.0</ele><time>2026-04-06T12:21:11.277Z</time></trkpt><trkpt lat="47.8007397" lon="12.3129796"><ele>613.0</ele><time>2026-04-06T12:21:14.319Z</time></trkpt><trkpt lat="47.8007287" lon="12.3128832"><ele>613.0</ele><time>2026-04-06T12:21:22.045Z</time></trkpt><trkpt lat="47.8007168" lon="12.3127892"><ele>613.0</ele><time>2026-04-06T12:21:25.063Z</time></trkpt><trkpt lat="47.8007243" lon="12.3126902"><ele>613.0</ele><time>2026-04-06T12:21:29.038Z</time></trkpt><trkpt lat="47.8006996" lon="12.3125638"><ele>613.0</ele><time>2026-04-06T12:21:32.037Z</time></trkpt><trkpt lat="47.8006706" lon="12.3124588"><ele>613.0</ele><time>2026-04-06T12:21:35.06Z</time></trkpt><trkpt lat="47.8006523" lon="12.3123579"><ele>613.0</ele><time>2026-04-06T12:21:38.058Z</time></trkpt><trkpt lat="47.8006475" lon="12.3122423"><ele>615.1666666666667</ele><time>2026-04-06T12:21:41.057Z</time></trkpt><trkpt lat="47.8006772" lon="12.3121324"><ele>617.3333333333334</ele><time>2026-04-06T12:21:44.078Z</time></trkpt><trkpt lat="47.800719" lon="12.3120425"><ele>619.5</ele><time>2026-04-06T12:21:47.067Z</time></trkpt><trkpt lat="47.8007741" lon="12.3119452"><ele>621.6666666666666</ele><time>2026-04-06T12:21:51.068Z</time></trkpt><trkpt lat="47.8008215" lon="12.311862"><ele>623.8333333333333</ele><time>2026-04-06T12:21:54.095Z</time></trkpt><trkpt lat="47.8008693" lon="12.3117799"><ele>626.0</ele><time>2026-04-06T12:21:57.106Z</time></trkpt><trkpt lat="47.8009113" lon="12.3116954"><ele>626.0</ele><time>2026-04-06T12:22:00.084Z</time></trkpt><trkpt lat="47.8009599" lon="12.3115964"><ele>626.0</ele><time>2026-04-06T12:22:03.091Z</time></trkpt><trkpt lat="47.8010114" lon="12.3115031"><ele>626.0</ele><time>2026-04-06T12:22:06.109Z</time></trkpt><trkpt lat="47.8010592" lon="12.3114162"><ele>626.0</ele><time>2026-04-06T12:22:09.104Z</time></trkpt><trkpt lat="47.8011177" lon="12.311346"><ele>626.0</ele><time>2026-04-06T12:22:12.071Z</time></trkpt><trkpt lat="47.8011692" lon="12.3112605"><ele>626.0</ele><time>2026-04-06T12:22:15.084Z</time></trkpt><trkpt lat="47.8012148" lon="12.3111836"><ele>624.7142857142857</ele><time>2026-04-06T12:22:18.06Z</time></trkpt><trkpt lat="47.8012621" lon="12.3111161"><ele>623.4285714285714</ele><time>2026-04-06T12:22:21.093Z</time></trkpt><trkpt lat="47.8012971" lon="12.3110335"><ele>622.1428571428571</ele><time>2026-04-06T12:22:24.089Z</time></trkpt><trkpt lat="47.8013291" lon="12.3109241"><ele>620.8571428571429</ele><time>2026-04-06T12:22:27.086Z</time></trkpt><trkpt lat="47.8013488" lon="12.3108172"><ele>619.5714285714286</ele><time>2026-04-06T12:22:30.09Z</time></trkpt><trkpt lat="47.8013675" lon="12.3107042"><ele>618.2857142857143</ele><time>2026-04-06T12:22:33.075Z</time></trkpt><trkpt lat="47.8013691" lon="12.3105957"><ele>617.0</ele><time>2026-04-06T12:22:36.079Z</time></trkpt><trkpt lat="47.8013719" lon="12.3104896"><ele>617.0</ele><time>2026-04-06T12:22:39.082Z</time></trkpt><trkpt lat="47.801382" lon="12.31039"><ele>617.0</ele><time>2026-04-06T12:22:42.056Z</time></trkpt><trkpt lat="47.8013867" lon="12.3102895"><ele>617.0</ele><time>2026-04-06T12:22:45.096Z</time></trkpt><trkpt lat="47.801386" lon="12.3101832"><ele>617.0</ele><time>2026-04-06T12:22:48.076Z</time></trkpt><trkpt lat="47.8013831" lon="12.3100777"><ele>617.0</ele><time>2026-04-06T12:22:51.081Z</time></trkpt><trkpt lat="47.8014003" lon="12.3099488"><ele>617.0</ele><time>2026-04-06T12:22:54.09Z</time></trkpt><trkpt lat="47.8014071" lon="12.3098389"><ele>617.0</ele><time>2026-04-06T12:22:57.099Z</time></trkpt><trkpt lat="47.8014176" lon="12.3097356"><ele>617.8333333333333</ele><time>2026-04-06T12:23:00.093Z</time></trkpt><trkpt lat="47.8014403" lon="12.3096254"><ele>618.6666666666666</ele><time>2026-04-06T12:23:03.055Z</time></trkpt><trkpt lat="47.8014537" lon="12.309498"><ele>619.5</ele><time>2026-04-06T12:23:06.105Z</time></trkpt><trkpt lat="47.8014575" lon="12.3093618"><ele>620.3333333333334</ele><time>2026-04-06T12:23:09.103Z</time></trkpt><trkpt lat="47.8014765" lon="12.3092327"><ele>621.1666666666667</ele><time>2026-04-06T12:23:12.094Z</time></trkpt><trkpt lat="47.8014887" lon="12.309095"><ele>622.0</ele><time>2026-04-06T12:23:15.087Z</time></trkpt><trkpt lat="47.8014914" lon="12.3089706"><ele>622.1666666666667</ele><time>2026-04-06T12:23:18.093Z</time></trkpt><trkpt lat="47.80148" lon="12.3088334"><ele>622.3333333333334</ele><time>2026-04-06T12:23:21.092Z</time></trkpt><trkpt lat="47.8014861" lon="12.3087351"><ele>622.5</ele><time>2026-04-06T12:23:23.113Z</time></trkpt><trkpt lat="47.8014948" lon="12.3086123"><ele>622.6666666666666</ele><time>2026-04-06T12:23:26.11Z</time></trkpt><trkpt lat="47.8015108" lon="12.3084903"><ele>622.8333333333333</ele><time>2026-04-06T12:23:29.099Z</time></trkpt><trkpt lat="47.8015173" lon="12.3083798"><ele>623.0</ele><time>2026-04-06T12:23:32.074Z</time></trkpt><trkpt lat="47.8015347" lon="12.3082632"><ele>623.0</ele><time>2026-04-06T12:23:36.053Z</time></trkpt><trkpt lat="47.8015461" lon="12.3081564"><ele>623.0</ele><time>2026-04-06T12:23:39.092Z</time></trkpt><trkpt lat="47.8015709" lon="12.3080638"><ele>623.0</ele><time>2026-04-06T12:23:42.106Z</time></trkpt><trkpt lat="47.8015874" lon="12.3079706"><ele>623.0</ele><time>2026-04-06T12:23:44.028Z</time></trkpt><trkpt lat="47.801621" lon="12.3078859"><ele>623.0</ele><time>2026-04-06T12:23:46.096Z</time></trkpt><trkpt lat="47.8016887" lon="12.3078304"><ele>623.0</ele><time>2026-04-06T12:23:49.104Z</time></trkpt><trkpt lat="47.801765" lon="12.3078384"><ele>623.0</ele><time>2026-04-06T12:23:52.085Z</time></trkpt><trkpt lat="47.8018443" lon="12.3078663"><ele>622.6666666666666</ele><time>2026-04-06T12:23:55.083Z</time></trkpt><trkpt lat="47.80192" lon="12.3078861"><ele>622.3333333333333</ele><time>2026-04-06T12:23:58.062Z</time></trkpt><trkpt lat="47.8019889" lon="12.3078981"><ele>622.0</ele><time>2026-04-06T12:24:01.115Z</time></trkpt><trkpt lat="47.8020603" lon="12.3079287"><ele>621.6666666666666</ele><time>2026-04-06T12:24:04.092Z</time></trkpt><trkpt lat="47.8021283" lon="12.3079543"><ele>621.3333333333334</ele><time>2026-04-06T12:24:08.096Z</time></trkpt><trkpt lat="47.8022053" lon="12.307976"><ele>621.0</ele><time>2026-04-06T12:24:35.082Z</time></trkpt><trkpt lat="47.8022844" lon="12.3080001"><ele>621.0</ele><time>2026-04-06T12:24:39.124Z</time></trkpt><trkpt lat="47.8023602" lon="12.308017"><ele>621.0</ele><time>2026-04-06T12:24:42.097Z</time></trkpt><trkpt lat="47.8024398" lon="12.3080513"><ele>621.0</ele><time>2026-04-06T12:24:45.103Z</time></trkpt><trkpt lat="47.802509" lon="12.3080677"><ele>621.0</ele><time>2026-04-06T12:24:48.098Z</time></trkpt><trkpt lat="47.8025905" lon="12.308071"><ele>621.0</ele><time>2026-04-06T12:24:51.1Z</time></trkpt><trkpt lat="47.802671" lon="12.308067"><ele>621.0</ele><time>2026-04-06T12:24:54.114Z</time></trkpt><trkpt lat="47.8027482" lon="12.3080567"><ele>622.5</ele><time>2026-04-06T12:24:57.13Z</time></trkpt><trkpt lat="47.8028228" lon="12.3080395"><ele>624.0</ele><time>2026-04-06T12:25:00.093Z</time></trkpt><trkpt lat="47.8029005" lon="12.3080375"><ele>625.5</ele><time>2026-04-06T12:25:03.081Z</time></trkpt><trkpt lat="47.8029785" lon="12.3080226"><ele>627.0</ele><time>2026-04-06T12:25:06.088Z</time></trkpt><trkpt lat="47.8030554" lon="12.3080079"><ele>628.5</ele><time>2026-04-06T12:25:09.067Z</time></trkpt><trkpt lat="47.8031375" lon="12.3079917"><ele>630.0</ele><time>2026-04-06T12:25:12.092Z</time></trkpt><trkpt lat="47.8032172" lon="12.307978"><ele>630.0</ele><time>2026-04-06T12:25:15.099Z</time></trkpt><trkpt lat="47.8032944" lon="12.3079609"><ele>630.0</ele><time>2026-04-06T12:25:18.089Z</time></trkpt><trkpt lat="47.8033686" lon="12.3079145"><ele>630.0</ele><time>2026-04-06T12:25:21.083Z</time></trkpt><trkpt lat="47.8034351" lon="12.3078538"><ele>630.0</ele><time>2026-04-06T12:25:24.084Z</time></trkpt><trkpt lat="47.8035008" lon="12.3077924"><ele>630.0</ele><time>2026-04-06T12:25:27.097Z</time></trkpt><trkpt lat="47.8035586" lon="12.3077298"><ele>630.0</ele><time>2026-04-06T12:25:30.085Z</time></trkpt><trkpt lat="47.8036262" lon="12.3076711"><ele>630.6666666666666</ele><time>2026-04-06T12:25:33.09Z</time></trkpt><trkpt lat="47.8036939" lon="12.3076088"><ele>631.3333333333334</ele><time>2026-04-06T12:25:36.088Z</time></trkpt><trkpt lat="47.8037604" lon="12.307544"><ele>632.0</ele><time>2026-04-06T12:25:39.057Z</time></trkpt><trkpt lat="47.8038293" lon="12.307486"><ele>632.6666666666667</ele><time>2026-04-06T12:25:42.102Z</time></trkpt><trkpt lat="47.8038945" lon="12.3074306"><ele>633.3333333333334</ele><time>2026-04-06T12:25:45.093Z</time></trkpt><trkpt lat="47.8039644" lon="12.3073709"><ele>634.0</ele><time>2026-04-06T12:25:48.086Z</time></trkpt><trkpt lat="47.8040381" lon="12.3073118"><ele>634.0</ele><time>2026-04-06T12:25:51.084Z</time></trkpt><trkpt lat="47.804104" lon="12.3072597"><ele>634.0</ele><time>2026-04-06T12:25:54.08Z</time></trkpt><trkpt lat="47.8041741" lon="12.3072063"><ele>634.0</ele><time>2026-04-06T12:25:57.089Z</time></trkpt><trkpt lat="47.8042385" lon="12.3071491"><ele>634.0</ele><time>2026-04-06T12:26:00.094Z</time></trkpt><trkpt lat="47.804309" lon="12.3071048"><ele>634.0</ele><time>2026-04-06T12:26:03.102Z</time></trkpt><trkpt lat="47.8043768" lon="12.3070535"><ele>634.0</ele><time>2026-04-06T12:26:06.086Z</time></trkpt><trkpt lat="47.8044426" lon="12.3070101"><ele>633.5714285714286</ele><time>2026-04-06T12:26:09.098Z</time></trkpt><trkpt lat="47.8045077" lon="12.3069583"><ele>633.1428571428571</ele><time>2026-04-06T12:26:12.085Z</time></trkpt><trkpt lat="47.8045778" lon="12.3069029"><ele>632.7142857142858</ele><time>2026-04-06T12:26:15.084Z</time></trkpt><trkpt lat="47.8046365" lon="12.3068673"><ele>632.2857142857142</ele><time>2026-04-06T12:26:17.073Z</time></trkpt><trkpt lat="47.8046953" lon="12.3068205"><ele>631.8571428571428</ele><time>2026-04-06T12:26:20.095Z</time></trkpt><trkpt lat="47.804688" lon="12.3067184"><ele>631.4285714285714</ele><time>2026-04-06T12:26:23.084Z</time></trkpt><trkpt lat="47.804669" lon="12.3065905"><ele>631.0</ele><time>2026-04-06T12:26:26.086Z</time></trkpt><trkpt lat="47.8046525" lon="12.3064961"><ele>630.0</ele><time>2026-04-06T12:26:30.085Z</time></trkpt><trkpt lat="47.8046343" lon="12.3063707"><ele>629.0</ele><time>2026-04-06T12:26:34.075Z</time></trkpt><trkpt lat="47.8046244" lon="12.3062716"><ele>628.0</ele><time>2026-04-06T12:26:36.072Z</time></trkpt><trkpt lat="47.8046167" lon="12.3061651"><ele>627.0</ele><time>2026-04-06T12:26:38.091Z</time></trkpt><trkpt lat="47.8046108" lon="12.3060366"><ele>626.0</ele><time>2026-04-06T12:26:40.091Z</time></trkpt><trkpt lat="47.8046105" lon="12.3058895"><ele>625.0</ele><time>2026-04-06T12:26:42.092Z</time></trkpt><trkpt lat="47.8046121" lon="12.3057271"><ele>622.8333333333334</ele><time>2026-04-06T12:26:44.098Z</time></trkpt><trkpt lat="47.8046123" lon="12.3055444"><ele>620.6666666666667</ele><time>2026-04-06T12:26:46.265Z</time></trkpt><trkpt lat="47.8046104" lon="12.3054393"><ele>618.5</ele><time>2026-04-06T12:26:47.176Z</time></trkpt><trkpt lat="47.8046146" lon="12.3053394"><ele>616.3333333333334</ele><time>2026-04-06T12:26:48.145Z</time></trkpt><trkpt lat="47.8046177" lon="12.3052389"><ele>614.1666666666666</ele><time>2026-04-06T12:26:49.165Z</time></trkpt><trkpt lat="47.8046174" lon="12.3051379"><ele>612.0</ele><time>2026-04-06T12:26:50.094Z</time></trkpt><trkpt lat="47.8046185" lon="12.305039"><ele>612.0</ele><time>2026-04-06T12:26:51.092Z</time></trkpt><trkpt lat="47.8046177" lon="12.3049447"><ele>612.0</ele><time>2026-04-06T12:26:52.117Z</time></trkpt><trkpt lat="47.8046252" lon="12.3047749"><ele>612.0</ele><time>2026-04-06T12:26:54.084Z</time></trkpt><trkpt lat="47.804625" lon="12.3046026"><ele>612.0</ele><time>2026-04-06T12:26:56.132Z</time></trkpt><trkpt lat="47.8046261" lon="12.3044182"><ele>612.0</ele><time>2026-04-06T12:26:58.107Z</time></trkpt><trkpt lat="47.8046305" lon="12.3042326"><ele>610.8571428571429</ele><time>2026-04-06T12:27:00.116Z</time></trkpt><trkpt lat="47.8046365" lon="12.3040721"><ele>609.7142857142858</ele><time>2026-04-06T12:27:02.16Z</time></trkpt><trkpt lat="47.8046467" lon="12.3039738"><ele>608.5714285714287</ele><time>2026-04-06T12:27:05.094Z</time></trkpt><trkpt lat="47.804657" lon="12.3038618"><ele>607.4285714285714</ele><time>2026-04-06T12:27:08.079Z</time></trkpt><trkpt lat="47.8046722" lon="12.3037631"><ele>606.2857142857143</ele><time>2026-04-06T12:27:10.069Z</time></trkpt><trkpt lat="47.8046943" lon="12.3036745"><ele>605.1428571428572</ele><time>2026-04-06T12:27:12.08Z</time></trkpt><trkpt lat="47.8047208" lon="12.3035846"><ele>604.0</ele><time>2026-04-06T12:27:14.094Z</time></trkpt><trkpt lat="47.8047554" lon="12.3034936"><ele>603.5</ele><time>2026-04-06T12:27:16.103Z</time></trkpt><trkpt lat="47.804792" lon="12.3033954"><ele>603.0</ele><time>2026-04-06T12:27:18.086Z</time></trkpt><trkpt lat="47.8048314" lon="12.3032927"><ele>602.5</ele><time>2026-04-06T12:27:20.084Z</time></trkpt><trkpt lat="47.8048711" lon="12.3031977"><ele>602.0</ele><time>2026-04-06T12:27:22.111Z</time></trkpt><trkpt lat="47.8049164" lon="12.3030987"><ele>601.5</ele><time>2026-04-06T12:27:24.049Z</time></trkpt><trkpt lat="47.8049585" lon="12.3029893"><ele>601.0</ele><time>2026-04-06T12:27:26.089Z</time></trkpt><trkpt lat="47.8050004" lon="12.3028811"><ele>600.8</ele><time>2026-04-06T12:27:28.107Z</time></trkpt><trkpt lat="47.805044" lon="12.3027778"><ele>600.6</ele><time>2026-04-06T12:27:30.076Z</time></trkpt><trkpt lat="47.8050975" lon="12.3026669"><ele>600.4</ele><time>2026-04-06T12:27:32.097Z</time></trkpt><trkpt lat="47.805158" lon="12.3025583"><ele>600.2</ele><time>2026-04-06T12:27:34.116Z</time></trkpt><trkpt lat="47.805227" lon="12.3024508"><ele>600.0</ele><time>2026-04-06T12:27:36.096Z</time></trkpt><trkpt lat="47.8053066" lon="12.3023271"><ele>599.5714285714286</ele><time>2026-04-06T12:27:38.111Z</time></trkpt><trkpt lat="47.8053512" lon="12.3022554"><ele>599.1428571428571</ele><time>2026-04-06T12:27:39.087Z</time></trkpt><trkpt lat="47.8054033" lon="12.3021821"><ele>598.7142857142858</ele><time>2026-04-06T12:27:40.089Z</time></trkpt><trkpt lat="47.8054571" lon="12.3021111"><ele>598.2857142857142</ele><time>2026-04-06T12:27:41.101Z</time></trkpt><trkpt lat="47.8055084" lon="12.3020371"><ele>597.8571428571429</ele><time>2026-04-06T12:27:42.105Z</time></trkpt><trkpt lat="47.8055582" lon="12.3019634"><ele>597.4285714285714</ele><time>2026-04-06T12:27:43.088Z</time></trkpt><trkpt lat="47.805605" lon="12.3018965"><ele>597.0</ele><time>2026-04-06T12:27:44.093Z</time></trkpt><trkpt lat="47.8056941" lon="12.3017649"><ele>596.8000000000001</ele><time>2026-04-06T12:27:46.095Z</time></trkpt><trkpt lat="47.8057783" lon="12.3016469"><ele>596.6</ele><time>2026-04-06T12:27:48.09Z</time></trkpt><trkpt lat="47.80585" lon="12.3015466"><ele>596.4000000000001</ele><time>2026-04-06T12:27:50.092Z</time></trkpt><trkpt lat="47.8059218" lon="12.3014468"><ele>596.2</ele><time>2026-04-06T12:27:52.092Z</time></trkpt><trkpt lat="47.8059866" lon="12.3013513"><ele>596.0</ele><time>2026-04-06T12:27:54.091Z</time></trkpt><trkpt lat="47.8060526" lon="12.3012685"><ele>595.6666666666666</ele><time>2026-04-06T12:27:56.072Z</time></trkpt><trkpt lat="47.8061013" lon="12.3011969"><ele>595.3333333333333</ele><time>2026-04-06T12:27:58.114Z</time></trkpt><trkpt lat="47.8061496" lon="12.3011042"><ele>595.0</ele><time>2026-04-06T12:28:01.06Z</time></trkpt><trkpt lat="47.8061956" lon="12.3009998"><ele>594.6666666666666</ele><time>2026-04-06T12:28:04.081Z</time></trkpt><trkpt lat="47.8062337" lon="12.3008743"><ele>594.3333333333334</ele><time>2026-04-06T12:28:07.092Z</time></trkpt><trkpt lat="47.8062593" lon="12.3007628"><ele>594.0</ele><time>2026-04-06T12:28:10.067Z</time></trkpt><trkpt lat="47.8062968" lon="12.3006582"><ele>592.5</ele><time>2026-04-06T12:28:13.077Z</time></trkpt><trkpt lat="47.8063351" lon="12.3005736"><ele>591.0</ele><time>2026-04-06T12:28:16.089Z</time></trkpt><trkpt lat="47.8063765" lon="12.3005"><ele>589.5</ele><time>2026-04-06T12:28:19.09Z</time></trkpt><trkpt lat="47.8064306" lon="12.300446"><ele>588.0</ele><time>2026-04-06T12:28:21.1Z</time></trkpt><trkpt lat="47.8065132" lon="12.3003947"><ele>586.5</ele><time>2026-04-06T12:28:24.095Z</time></trkpt><trkpt lat="47.8066063" lon="12.3004278"><ele>585.0</ele><time>2026-04-06T12:28:26.095Z</time></trkpt><trkpt lat="47.8067232" lon="12.3004859"><ele>584.1666666666666</ele><time>2026-04-06T12:28:28.094Z</time></trkpt><trkpt lat="47.8068323" lon="12.3005"><ele>583.3333333333334</ele><time>2026-04-06T12:28:30.083Z</time></trkpt><trkpt lat="47.8069263" lon="12.3004812"><ele>582.5</ele><time>2026-04-06T12:28:32.086Z</time></trkpt><trkpt lat="47.8070056" lon="12.3004673"><ele>581.6666666666667</ele><time>2026-04-06T12:28:34.086Z</time></trkpt><trkpt lat="47.8070755" lon="12.3004381"><ele>580.8333333333334</ele><time>2026-04-06T12:28:36.103Z</time></trkpt><trkpt lat="47.8071462" lon="12.3004032"><ele>580.0</ele><time>2026-04-06T12:28:38.099Z</time></trkpt><trkpt lat="47.8072111" lon="12.3003637"><ele>580.0</ele><time>2026-04-06T12:28:40.12Z</time></trkpt><trkpt lat="47.8072784" lon="12.3003332"><ele>580.0</ele><time>2026-04-06T12:28:42.098Z</time></trkpt><trkpt lat="47.8073485" lon="12.3002779"><ele>580.0</ele><time>2026-04-06T12:28:44.105Z</time></trkpt><trkpt lat="47.8074416" lon="12.3002015"><ele>580.0</ele><time>2026-04-06T12:28:46.077Z</time></trkpt><trkpt lat="47.8075023" lon="12.3001615"><ele>580.0</ele><time>2026-04-06T12:28:47.124Z</time></trkpt><trkpt lat="47.8075672" lon="12.3001092"><ele>580.0</ele><time>2026-04-06T12:28:48.102Z</time></trkpt><trkpt lat="47.8076267" lon="12.3000452"><ele>580.0</ele><time>2026-04-06T12:28:49.096Z</time></trkpt><trkpt lat="47.8076787" lon="12.2999769"><ele>580.0</ele><time>2026-04-06T12:28:50.093Z</time></trkpt><trkpt lat="47.8077282" lon="12.2999129"><ele>580.0</ele><time>2026-04-06T12:28:51.093Z</time></trkpt><trkpt lat="47.8077772" lon="12.2998521"><ele>580.0</ele><time>2026-04-06T12:28:52.086Z</time></trkpt><trkpt lat="47.8078686" lon="12.299743"><ele>580.0</ele><time>2026-04-06T12:28:54.101Z</time></trkpt><trkpt lat="47.8079593" lon="12.2996355"><ele>580.0</ele><time>2026-04-06T12:28:56.087Z</time></trkpt><trkpt lat="47.8080373" lon="12.299533"><ele>580.0</ele><time>2026-04-06T12:28:58.089Z</time></trkpt><trkpt lat="47.8081039" lon="12.2994632"><ele>580.0</ele><time>2026-04-06T12:29:00.081Z</time></trkpt><trkpt lat="47.8081639" lon="12.2994025"><ele>580.0</ele><time>2026-04-06T12:29:02.109Z</time></trkpt><trkpt lat="47.8081908" lon="12.2993037"><ele>580.0</ele><time>2026-04-06T12:29:06.081Z</time></trkpt><trkpt lat="47.8081741" lon="12.2991895"><ele>580.0</ele><time>2026-04-06T12:29:09.089Z</time></trkpt><trkpt lat="47.8081608" lon="12.2990959"><ele>580.0</ele><time>2026-04-06T12:29:52.132Z</time></trkpt><trkpt lat="47.8081261" lon="12.2989854"><ele>579.8333333333334</ele><time>2026-04-06T12:29:56.11Z</time></trkpt><trkpt lat="47.8080992" lon="12.298885"><ele>579.6666666666667</ele><time>2026-04-06T12:29:59.067Z</time></trkpt><trkpt lat="47.808069" lon="12.2987742"><ele>579.5</ele><time>2026-04-06T12:30:02.087Z</time></trkpt><trkpt lat="47.8080371" lon="12.2986519"><ele>579.3333333333334</ele><time>2026-04-06T12:30:05.089Z</time></trkpt><trkpt lat="47.8080068" lon="12.2985307"><ele>579.1666666666666</ele><time>2026-04-06T12:30:08.095Z</time></trkpt><trkpt lat="47.8079675" lon="12.2984162"><ele>579.0</ele><time>2026-04-06T12:30:11.089Z</time></trkpt><trkpt lat="47.8079341" lon="12.2983364"><ele>579.0</ele><time>2026-04-06T12:30:13.083Z</time></trkpt><trkpt lat="47.8078959" lon="12.2982163"><ele>579.0</ele><time>2026-04-06T12:30:16.078Z</time></trkpt><trkpt lat="47.8078622" lon="12.2980958"><ele>579.0</ele><time>2026-04-06T12:30:19.083Z</time></trkpt><trkpt lat="47.8078208" lon="12.2979765"><ele>579.0</ele><time>2026-04-06T12:30:22.101Z</time></trkpt><trkpt lat="47.8077849" lon="12.2978581"><ele>579.0</ele><time>2026-04-06T12:30:25.084Z</time></trkpt><trkpt lat="47.807746" lon="12.2977435"><ele>579.0</ele><time>2026-04-06T12:30:28.09Z</time></trkpt><trkpt lat="47.8077025" lon="12.2976277"><ele>579.0</ele><time>2026-04-06T12:30:31.095Z</time></trkpt><trkpt lat="47.8076578" lon="12.2975045"><ele>579.0</ele><time>2026-04-06T12:30:34.088Z</time></trkpt><trkpt lat="47.807626" lon="12.2974158"><ele>579.0</ele><time>2026-04-06T12:30:36.061Z</time></trkpt><trkpt lat="47.8075778" lon="12.2972965"><ele>579.0</ele><time>2026-04-06T12:30:39.102Z</time></trkpt><trkpt lat="47.8075317" lon="12.2971741"><ele>579.0</ele><time>2026-04-06T12:30:42.097Z</time></trkpt><trkpt lat="47.80749" lon="12.2970489"><ele>579.0</ele><time>2026-04-06T12:30:45.092Z</time></trkpt><trkpt lat="47.8074596" lon="12.2969642"><ele>579.1666666666666</ele><time>2026-04-06T12:30:47.087Z</time></trkpt><trkpt lat="47.8074149" lon="12.2968377"><ele>579.3333333333334</ele><time>2026-04-06T12:30:50.092Z</time></trkpt><trkpt lat="47.8073814" lon="12.2967497"><ele>579.5</ele><time>2026-04-06T12:30:52.12Z</time></trkpt><trkpt lat="47.8073471" lon="12.2966635"><ele>579.6666666666667</ele><time>2026-04-06T12:30:54.079Z</time></trkpt><trkpt lat="47.8073126" lon="12.2965788"><ele>579.8333333333334</ele><time>2026-04-06T12:30:56.075Z</time></trkpt><trkpt lat="47.8072654" lon="12.2964592"><ele>580.0</ele><time>2026-04-06T12:30:59.087Z</time></trkpt><trkpt lat="47.8072199" lon="12.2963394"><ele>581.0</ele><time>2026-04-06T12:31:02.061Z</time></trkpt><trkpt lat="47.8071679" lon="12.2962243"><ele>582.0</ele><time>2026-04-06T12:31:05.083Z</time></trkpt><trkpt lat="47.80713" lon="12.2961424"><ele>583.0</ele><time>2026-04-06T12:31:07.099Z</time></trkpt><trkpt lat="47.8070761" lon="12.2960318"><ele>584.0</ele><time>2026-04-06T12:31:10.073Z</time></trkpt><trkpt lat="47.8070384" lon="12.2959532"><ele>585.0</ele><time>2026-04-06T12:31:12.107Z</time></trkpt><trkpt lat="47.8069977" lon="12.2958693"><ele>586.0</ele><time>2026-04-06T12:31:14.11Z</time></trkpt><trkpt lat="47.8069582" lon="12.2957925"><ele>585.9999999999999</ele><time>2026-04-06T12:31:16.103Z</time></trkpt><trkpt lat="47.8069201" lon="12.2957121"><ele>586.0</ele><time>2026-04-06T12:31:18.085Z</time></trkpt><trkpt lat="47.8068839" lon="12.2956345"><ele>586.0</ele><time>2026-04-06T12:31:20.121Z</time></trkpt><trkpt lat="47.8068442" lon="12.2955577"><ele>586.0</ele><time>2026-04-06T12:31:22.089Z</time></trkpt><trkpt lat="47.8067965" lon="12.2954709"><ele>586.0</ele><time>2026-04-06T12:31:24.093Z</time></trkpt><trkpt lat="47.8067565" lon="12.2953961"><ele>585.9999999999999</ele><time>2026-04-06T12:31:26.128Z</time></trkpt><trkpt lat="47.8067171" lon="12.295313"><ele>586.0</ele><time>2026-04-06T12:31:28.096Z</time></trkpt><trkpt lat="47.8066776" lon="12.2952371"><ele>586.7142857142857</ele><time>2026-04-06T12:31:30.127Z</time></trkpt><trkpt lat="47.8066363" lon="12.2951592"><ele>587.4285714285714</ele><time>2026-04-06T12:31:32.113Z</time></trkpt><trkpt lat="47.8065926" lon="12.2950869"><ele>588.1428571428571</ele><time>2026-04-06T12:31:34.109Z</time></trkpt><trkpt lat="47.8065449" lon="12.2950079"><ele>588.8571428571429</ele><time>2026-04-06T12:31:36.174Z</time></trkpt><trkpt lat="47.8064974" lon="12.2949402"><ele>589.5714285714286</ele><time>2026-04-06T12:31:38.107Z</time></trkpt><trkpt lat="47.8064514" lon="12.2948686"><ele>590.2857142857142</ele><time>2026-04-06T12:31:40.109Z</time></trkpt><trkpt lat="47.8064003" lon="12.2947941"><ele>591.0</ele><time>2026-04-06T12:31:42.105Z</time></trkpt><trkpt lat="47.806355" lon="12.2947202"><ele>591.1428571428571</ele><time>2026-04-06T12:31:44.099Z</time></trkpt><trkpt lat="47.8063063" lon="12.2946514"><ele>591.2857142857143</ele><time>2026-04-06T12:31:46.076Z</time></trkpt><trkpt lat="47.8062588" lon="12.2945804"><ele>591.4285714285714</ele><time>2026-04-06T12:31:48.056Z</time></trkpt><trkpt lat="47.8062066" lon="12.2945188"><ele>591.5714285714286</ele><time>2026-04-06T12:31:50.096Z</time></trkpt><trkpt lat="47.806154" lon="12.2944551"><ele>591.7142857142857</ele><time>2026-04-06T12:31:52.085Z</time></trkpt><trkpt lat="47.8061046" lon="12.294392"><ele>591.8571428571429</ele><time>2026-04-06T12:31:54.114Z</time></trkpt><trkpt lat="47.8060565" lon="12.2943301"><ele>592.0</ele><time>2026-04-06T12:31:56.137Z</time></trkpt><trkpt lat="47.8059834" lon="12.2942427"><ele>592.0</ele><time>2026-04-06T12:31:59.078Z</time></trkpt><trkpt lat="47.805931" lon="12.2941784"><ele>592.0</ele><time>2026-04-06T12:32:01.12Z</time></trkpt><trkpt lat="47.805881" lon="12.2941188"><ele>592.0</ele><time>2026-04-06T12:32:03.087Z</time></trkpt><trkpt lat="47.8058303" lon="12.2940558"><ele>592.0</ele><time>2026-04-06T12:32:05.082Z</time></trkpt><trkpt lat="47.8057823" lon="12.2939926"><ele>592.0</ele><time>2026-04-06T12:32:07.083Z</time></trkpt><trkpt lat="47.8057349" lon="12.2939279"><ele>592.0</ele><time>2026-04-06T12:32:09.097Z</time></trkpt><trkpt lat="47.8056882" lon="12.2938645"><ele>592.0</ele><time>2026-04-06T12:32:11.095Z</time></trkpt><trkpt lat="47.8056383" lon="12.2938007"><ele>592.2857142857143</ele><time>2026-04-06T12:32:13.072Z</time></trkpt><trkpt lat="47.8055874" lon="12.2937389"><ele>592.5714285714286</ele><time>2026-04-06T12:32:15.111Z</time></trkpt><trkpt lat="47.8055157" lon="12.2936526"><ele>592.8571428571429</ele><time>2026-04-06T12:32:18.098Z</time></trkpt><trkpt lat="47.805468" lon="12.2935914"><ele>593.1428571428571</ele><time>2026-04-06T12:32:20.1Z</time></trkpt><trkpt lat="47.8054017" lon="12.2935019"><ele>593.4285714285714</ele><time>2026-04-06T12:32:23.083Z</time></trkpt><trkpt lat="47.8053538" lon="12.2934207"><ele>593.7142857142858</ele><time>2026-04-06T12:32:26.111Z</time></trkpt><trkpt lat="47.8053908" lon="12.2933393"><ele>594.0</ele><time>2026-04-06T12:32:36.108Z</time></trkpt><trkpt lat="47.8054228" lon="12.2932539"><ele>594.0</ele><time>2026-04-06T12:32:40.102Z</time></trkpt><trkpt lat="47.8053712" lon="12.2931673"><ele>594.0</ele><time>2026-04-06T12:32:44.091Z</time></trkpt><trkpt lat="47.8053332" lon="12.2930893"><ele>594.0</ele><time>2026-04-06T12:32:47.046Z</time></trkpt><trkpt lat="47.8052867" lon="12.2929826"><ele>594.0</ele><time>2026-04-06T12:32:50.104Z</time></trkpt><trkpt lat="47.8052435" lon="12.2928704"><ele>594.0</ele><time>2026-04-06T12:32:53.107Z</time></trkpt><trkpt lat="47.8052117" lon="12.2927865"><ele>594.0</ele><time>2026-04-06T12:32:55.119Z</time></trkpt><trkpt lat="47.8051747" lon="12.2926649"><ele>594.0</ele><time>2026-04-06T12:32:58.089Z</time></trkpt><trkpt lat="47.8051538" lon="12.2925481"><ele>594.0</ele><time>2026-04-06T12:33:01.103Z</time></trkpt><trkpt lat="47.8051437" lon="12.2924238"><ele>594.0</ele><time>2026-04-06T12:33:04.088Z</time></trkpt><trkpt lat="47.8051656" lon="12.2923041"><ele>594.0</ele><time>2026-04-06T12:33:07.103Z</time></trkpt><trkpt lat="47.8052132" lon="12.2922038"><ele>594.0</ele><time>2026-04-06T12:33:10.082Z</time></trkpt><trkpt lat="47.8052426" lon="12.2921171"><ele>594.0</ele><time>2026-04-06T12:33:13.099Z</time></trkpt><trkpt lat="47.8052493" lon="12.2920112"><ele>594.5714285714286</ele><time>2026-04-06T12:34:06.101Z</time></trkpt><trkpt lat="47.8052028" lon="12.2919367"><ele>595.1428571428572</ele><time>2026-04-06T12:34:11.092Z</time></trkpt><trkpt lat="47.8051383" lon="12.291918"><ele>595.7142857142858</ele><time>2026-04-06T12:34:18.091Z</time></trkpt><trkpt lat="47.8050741" lon="12.2919151"><ele>596.2857142857143</ele><time>2026-04-06T12:34:21.102Z</time></trkpt><trkpt lat="47.8049995" lon="12.2918876"><ele>596.8571428571429</ele><time>2026-04-06T12:34:24.045Z</time></trkpt><trkpt lat="47.8049235" lon="12.2918318"><ele>597.4285714285714</ele><time>2026-04-06T12:34:27.112Z</time></trkpt><trkpt lat="47.8048734" lon="12.2917708"><ele>598.0</ele><time>2026-04-06T12:34:29.113Z</time></trkpt><trkpt lat="47.8048141" lon="12.2917253"><ele>598.0</ele><time>2026-04-06T12:34:31.106Z</time></trkpt><trkpt lat="47.804732" lon="12.2917131"><ele>598.0</ele><time>2026-04-06T12:34:33.108Z</time></trkpt><trkpt lat="47.8046509" lon="12.2916805"><ele>598.0</ele><time>2026-04-06T12:34:35.091Z</time></trkpt><trkpt lat="47.8045797" lon="12.2916412"><ele>598.0</ele><time>2026-04-06T12:34:37.097Z</time></trkpt><trkpt lat="47.8045078" lon="12.2916119"><ele>598.0</ele><time>2026-04-06T12:34:39.332Z</time></trkpt><trkpt lat="47.8044214" lon="12.2915696"><ele>598.0</ele><time>2026-04-06T12:34:41.947Z</time></trkpt><trkpt lat="47.8043545" lon="12.2915633"><ele>597.7142857142857</ele><time>2026-04-06T12:34:45.098Z</time></trkpt><trkpt lat="47.8042894" lon="12.2915427"><ele>597.4285714285714</ele><time>2026-04-06T12:34:48.092Z</time></trkpt><trkpt lat="47.8041993" lon="12.2915148"><ele>597.1428571428571</ele><time>2026-04-06T12:34:51.077Z</time></trkpt><trkpt lat="47.8041306" lon="12.2915202"><ele>596.8571428571429</ele><time>2026-04-06T12:34:53.085Z</time></trkpt><trkpt lat="47.8040596" lon="12.2915199"><ele>596.5714285714286</ele><time>2026-04-06T12:34:55.077Z</time></trkpt><trkpt lat="47.8039944" lon="12.2914634"><ele>596.2857142857142</ele><time>2026-04-06T12:34:57.098Z</time></trkpt><trkpt lat="47.8039394" lon="12.2913897"><ele>596.0</ele><time>2026-04-06T12:34:59.095Z</time></trkpt><trkpt lat="47.8038603" lon="12.2913283"><ele>596.0</ele><time>2026-04-06T12:35:02.079Z</time></trkpt><trkpt lat="47.8037775" lon="12.291274"><ele>596.0</ele><time>2026-04-06T12:35:05.082Z</time></trkpt><trkpt lat="47.8036987" lon="12.291204"><ele>596.0</ele><time>2026-04-06T12:35:08.086Z</time></trkpt><trkpt lat="47.8036331" lon="12.2911205"><ele>596.0</ele><time>2026-04-06T12:35:11.103Z</time></trkpt><trkpt lat="47.8035777" lon="12.291024"><ele>596.0</ele><time>2026-04-06T12:35:14.118Z</time></trkpt><trkpt lat="47.8035326" lon="12.2909225"><ele>596.0</ele><time>2026-04-06T12:35:17.079Z</time></trkpt><trkpt lat="47.8034891" lon="12.2908125"><ele>596.1666666666666</ele><time>2026-04-06T12:35:20.082Z</time></trkpt><trkpt lat="47.803451" lon="12.2906955"><ele>596.3333333333333</ele><time>2026-04-06T12:35:23.081Z</time></trkpt><trkpt lat="47.8034164" lon="12.2905769"><ele>596.5</ele><time>2026-04-06T12:35:26.103Z</time></trkpt><trkpt lat="47.8033784" lon="12.2904715"><ele>596.6666666666666</ele><time>2026-04-06T12:35:29.07Z</time></trkpt><trkpt lat="47.8033534" lon="12.2903806"><ele>596.8333333333334</ele><time>2026-04-06T12:35:32.097Z</time></trkpt><trkpt lat="47.8033219" lon="12.2902855"><ele>597.0</ele><time>2026-04-06T12:35:35.104Z</time></trkpt><trkpt lat="47.8032978" lon="12.2901927"><ele>597.0</ele><time>2026-04-06T12:35:38.115Z</time></trkpt><trkpt lat="47.8032672" lon="12.2900793"><ele>597.0</ele><time>2026-04-06T12:35:42.05Z</time></trkpt><trkpt lat="47.8032452" lon="12.289971"><ele>597.0</ele><time>2026-04-06T12:35:47.096Z</time></trkpt><trkpt lat="47.8032297" lon="12.289867"><ele>597.0</ele><time>2026-04-06T12:35:53.08Z</time></trkpt><trkpt lat="47.8032115" lon="12.2897711"><ele>597.0</ele><time>2026-04-06T12:36:03.097Z</time></trkpt><trkpt lat="47.8031645" lon="12.2896597"><ele>597.0</ele><time>2026-04-06T12:36:06.077Z</time></trkpt><trkpt lat="47.803143" lon="12.2895335"><ele>597.0000000000001</ele><time>2026-04-06T12:36:09.09Z</time></trkpt><trkpt lat="47.8031808" lon="12.2894433"><ele>597.0</ele><time>2026-04-06T12:36:12.081Z</time></trkpt><trkpt lat="47.8031806" lon="12.2893385"><ele>597.0</ele><time>2026-04-06T12:36:15.113Z</time></trkpt><trkpt lat="47.8031446" lon="12.2892169"><ele>597.0</ele><time>2026-04-06T12:36:18.11Z</time></trkpt><trkpt lat="47.8030979" lon="12.2891496"><ele>597.0</ele><time>2026-04-06T12:36:20.093Z</time></trkpt><trkpt lat="47.8030502" lon="12.2890786"><ele>597.0000000000001</ele><time>2026-04-06T12:36:23.106Z</time></trkpt><trkpt lat="47.8030102" lon="12.2889997"><ele>597.0</ele><time>2026-04-06T12:37:00.1Z</time></trkpt><trkpt lat="47.8029767" lon="12.2889149"><ele>596.8333333333334</ele><time>2026-04-06T12:37:05.087Z</time></trkpt><trkpt lat="47.802968" lon="12.2888032"><ele>596.6666666666666</ele><time>2026-04-06T12:37:08.082Z</time></trkpt><trkpt lat="47.8029647" lon="12.2886662"><ele>596.5</ele><time>2026-04-06T12:37:11.089Z</time></trkpt><trkpt lat="47.8029073" lon="12.2886079"><ele>596.3333333333333</ele><time>2026-04-06T12:37:18.088Z</time></trkpt><trkpt lat="47.8028323" lon="12.2885852"><ele>596.1666666666666</ele><time>2026-04-06T12:37:22.102Z</time></trkpt><trkpt lat="47.8027681" lon="12.28856"><ele>596.0</ele><time>2026-04-06T12:37:25.083Z</time></trkpt><trkpt lat="47.8026889" lon="12.2885259"><ele>596.5714285714286</ele><time>2026-04-06T12:37:36.075Z</time></trkpt><trkpt lat="47.8026477" lon="12.2884424"><ele>597.1428571428571</ele><time>2026-04-06T12:37:40.073Z</time></trkpt><trkpt lat="47.8026135" lon="12.2883458"><ele>597.7142857142857</ele><time>2026-04-06T12:37:45.07Z</time></trkpt><trkpt lat="47.802596" lon="12.2882487"><ele>598.2857142857142</ele><time>2026-04-06T12:37:48.049Z</time></trkpt><trkpt lat="47.8025867" lon="12.2881229"><ele>598.8571428571429</ele><time>2026-04-06T12:37:52.068Z</time></trkpt><trkpt lat="47.8025592" lon="12.2880321"><ele>599.4285714285713</ele><time>2026-04-06T12:37:55.053Z</time></trkpt><trkpt lat="47.8025402" lon="12.2879226"><ele>600.0</ele><time>2026-04-06T12:38:00.084Z</time></trkpt><trkpt lat="47.8024633" lon="12.2878945"><ele>599.9999999999999</ele><time>2026-04-06T12:38:04.096Z</time></trkpt><trkpt lat="47.8023959" lon="12.2879173"><ele>600.0</ele><time>2026-04-06T12:38:07.098Z</time></trkpt><trkpt lat="47.8023226" lon="12.2879518"><ele>600.0</ele><time>2026-04-06T12:38:10.087Z</time></trkpt><trkpt lat="47.8022579" lon="12.2879452"><ele>600.0</ele><time>2026-04-06T12:38:13.087Z</time></trkpt><trkpt lat="47.8022077" lon="12.2878869"><ele>600.0</ele><time>2026-04-06T12:38:17.068Z</time></trkpt><trkpt lat="47.8021966" lon="12.2877939"><ele>599.9999999999999</ele><time>2026-04-06T12:38:20.089Z</time></trkpt><trkpt lat="47.8021882" lon="12.2876882"><ele>600.0</ele><time>2026-04-06T12:38:23.092Z</time></trkpt><trkpt lat="47.8022088" lon="12.2875561"><ele>599.9999999999999</ele><time>2026-04-06T12:38:26.093Z</time></trkpt><trkpt lat="47.8022141" lon="12.2874594"><ele>600.0</ele><time>2026-04-06T12:38:28.082Z</time></trkpt><trkpt lat="47.8022181" lon="12.2873555"><ele>600.0</ele><time>2026-04-06T12:38:30.089Z</time></trkpt><trkpt lat="47.8022115" lon="12.28725"><ele>600.0</ele><time>2026-04-06T12:38:32.07Z</time></trkpt><trkpt lat="47.8021804" lon="12.2871522"><ele>600.0</ele><time>2026-04-06T12:38:34.089Z</time></trkpt><trkpt lat="47.8021645" lon="12.2870504"><ele>599.9999999999999</ele><time>2026-04-06T12:38:36.091Z</time></trkpt><trkpt lat="47.8021358" lon="12.286916"><ele>600.0</ele><time>2026-04-06T12:38:39.074Z</time></trkpt><trkpt lat="47.8021222" lon="12.286793"><ele>599.8333333333334</ele><time>2026-04-06T12:38:42.091Z</time></trkpt><trkpt lat="47.8020991" lon="12.2866734"><ele>599.6666666666666</ele><time>2026-04-06T12:38:45.073Z</time></trkpt><trkpt lat="47.8020933" lon="12.286558"><ele>599.5</ele><time>2026-04-06T12:38:48.101Z</time></trkpt><trkpt lat="47.8020753" lon="12.2864341"><ele>599.3333333333333</ele><time>2026-04-06T12:38:51.083Z</time></trkpt><trkpt lat="47.8020634" lon="12.2863226"><ele>599.1666666666666</ele><time>2026-04-06T12:38:54.096Z</time></trkpt><trkpt lat="47.8020561" lon="12.2862178"><ele>599.0</ele><time>2026-04-06T12:38:57.073Z</time></trkpt><trkpt lat="47.8020435" lon="12.2861085"><ele>599.0</ele><time>2026-04-06T12:39:00.083Z</time></trkpt><trkpt lat="47.8020272" lon="12.2859926"><ele>599.0</ele><time>2026-04-06T12:39:03.086Z</time></trkpt><trkpt lat="47.8019914" lon="12.2858711"><ele>599.0</ele><time>2026-04-06T12:39:06.102Z</time></trkpt><trkpt lat="47.8019635" lon="12.2857619"><ele>599.0</ele><time>2026-04-06T12:39:09.06Z</time></trkpt><trkpt lat="47.801941" lon="12.285656"><ele>599.0</ele><time>2026-04-06T12:39:12.084Z</time></trkpt><trkpt lat="47.8019285" lon="12.2855543"><ele>599.0</ele><time>2026-04-06T12:39:16.068Z</time></trkpt><trkpt lat="47.8019072" lon="12.2854649"><ele>599.0</ele><time>2026-04-06T12:39:19.101Z</time></trkpt><trkpt lat="47.8018761" lon="12.285365"><ele>599.0</ele><time>2026-04-06T12:39:22.103Z</time></trkpt><trkpt lat="47.8018427" lon="12.2852537"><ele>599.0</ele><time>2026-04-06T12:39:25.089Z</time></trkpt><trkpt lat="47.8018137" lon="12.2851386"><ele>599.0</ele><time>2026-04-06T12:39:28.075Z</time></trkpt><trkpt lat="47.8017949" lon="12.2850433"><ele>599.0</ele><time>2026-04-06T12:39:30.093Z</time></trkpt><trkpt lat="47.8017725" lon="12.2849552"><ele>599.0</ele><time>2026-04-06T12:39:32.071Z</time></trkpt><trkpt lat="47.8017496" lon="12.2848345"><ele>599.0</ele><time>2026-04-06T12:39:35.093Z</time></trkpt><trkpt lat="47.801722" lon="12.2847081"><ele>599.0</ele><time>2026-04-06T12:39:38.087Z</time></trkpt><trkpt lat="47.8017082" lon="12.2846143"><ele>599.0</ele><time>2026-04-06T12:39:40.115Z</time></trkpt><trkpt lat="47.8016987" lon="12.2845216"><ele>599.0</ele><time>2026-04-06T12:39:42.094Z</time></trkpt><trkpt lat="47.8016827" lon="12.2844304"><ele>599.0</ele><time>2026-04-06T12:39:44.094Z</time></trkpt><trkpt lat="47.8016593" lon="12.2843003"><ele>599.0</ele><time>2026-04-06T12:39:47.087Z</time></trkpt><trkpt lat="47.8016437" lon="12.2842018"><ele>599.0</ele><time>2026-04-06T12:39:49.067Z</time></trkpt><trkpt lat="47.8016236" lon="12.2841076"><ele>599.0</ele><time>2026-04-06T12:39:51.078Z</time></trkpt><trkpt lat="47.8016057" lon="12.2840151"><ele>599.0</ele><time>2026-04-06T12:39:53.103Z</time></trkpt><trkpt lat="47.8015895" lon="12.2839221"><ele>599.0</ele><time>2026-04-06T12:39:55.103Z</time></trkpt><trkpt lat="47.8015727" lon="12.2837815"><ele>599.0</ele><time>2026-04-06T12:39:58.106Z</time></trkpt><trkpt lat="47.8015499" lon="12.2836476"><ele>599.0</ele><time>2026-04-06T12:40:01.107Z</time></trkpt><trkpt lat="47.801535" lon="12.2835237"><ele>599.0</ele><time>2026-04-06T12:40:04.039Z</time></trkpt><trkpt lat="47.8015197" lon="12.2834302"><ele>599.0</ele><time>2026-04-06T12:40:06.084Z</time></trkpt><trkpt lat="47.8015096" lon="12.2833289"><ele>599.0</ele><time>2026-04-06T12:40:08.076Z</time></trkpt><trkpt lat="47.8014927" lon="12.2832182"><ele>599.0</ele><time>2026-04-06T12:40:10.073Z</time></trkpt><trkpt lat="47.8014776" lon="12.2831144"><ele>599.0</ele><time>2026-04-06T12:40:12.112Z</time></trkpt><trkpt lat="47.8014631" lon="12.2830203"><ele>599.0</ele><time>2026-04-06T12:40:14.112Z</time></trkpt><trkpt lat="47.801444" lon="12.2828912"><ele>599.0</ele><time>2026-04-06T12:40:17.092Z</time></trkpt><trkpt lat="47.8014422" lon="12.2827653"><ele>599.0</ele><time>2026-04-06T12:40:20.096Z</time></trkpt><trkpt lat="47.8014273" lon="12.2826499"><ele>599.0</ele><time>2026-04-06T12:40:23.106Z</time></trkpt><trkpt lat="47.8014235" lon="12.2825379"><ele>599.0</ele><time>2026-04-06T12:40:50.94Z</time></trkpt><trkpt lat="47.8013586" lon="12.2825226"><ele>599.0</ele><time>2026-04-06T12:40:54.105Z</time></trkpt><trkpt lat="47.8012801" lon="12.2825176"><ele>599.0</ele><time>2026-04-06T12:40:58.083Z</time></trkpt><trkpt lat="47.8012177" lon="12.2824929"><ele>599.0</ele><time>2026-04-06T12:41:01.068Z</time></trkpt><trkpt lat="47.8011546" lon="12.2824763"><ele>599.0</ele><time>2026-04-06T12:41:04.089Z</time></trkpt><trkpt lat="47.8010801" lon="12.2824485"><ele>599.0</ele><time>2026-04-06T12:41:08.065Z</time></trkpt><trkpt lat="47.8010212" lon="12.2824086"><ele>599.0</ele><time>2026-04-06T12:41:11.089Z</time></trkpt><trkpt lat="47.8009501" lon="12.2823403"><ele>599.0</ele><time>2026-04-06T12:41:15.079Z</time></trkpt><trkpt lat="47.8008906" lon="12.2822809"><ele>599.0</ele><time>2026-04-06T12:41:18.105Z</time></trkpt><trkpt lat="47.8008251" lon="12.2822143"><ele>599.0</ele><time>2026-04-06T12:41:21.095Z</time></trkpt><trkpt lat="47.8007588" lon="12.2821439"><ele>599.0</ele><time>2026-04-06T12:41:24.081Z</time></trkpt><trkpt lat="47.8006893" lon="12.2820849"><ele>599.3333333333333</ele><time>2026-04-06T12:41:27.047Z</time></trkpt><trkpt lat="47.8006107" lon="12.2820301"><ele>599.6666666666666</ele><time>2026-04-06T12:41:30.097Z</time></trkpt><trkpt lat="47.8005269" lon="12.281984"><ele>600.0</ele><time>2026-04-06T12:41:33.082Z</time></trkpt><trkpt lat="47.8004415" lon="12.2819495"><ele>600.3333333333334</ele><time>2026-04-06T12:41:36.096Z</time></trkpt><trkpt lat="47.8003536" lon="12.2819296"><ele>600.6666666666667</ele><time>2026-04-06T12:41:39.098Z</time></trkpt><trkpt lat="47.8002633" lon="12.2819207"><ele>601.0</ele><time>2026-04-06T12:41:42.099Z</time></trkpt><trkpt lat="47.8001739" lon="12.281906"><ele>601.3333333333334</ele><time>2026-04-06T12:41:45.104Z</time></trkpt><trkpt lat="47.8000922" lon="12.2818848"><ele>601.6666666666667</ele><time>2026-04-06T12:41:48.097Z</time></trkpt><trkpt lat="47.8000103" lon="12.281873"><ele>602.0</ele><time>2026-04-06T12:41:51.096Z</time></trkpt><trkpt lat="47.7999324" lon="12.2818535"><ele>602.3333333333334</ele><time>2026-04-06T12:41:54.09Z</time></trkpt><trkpt lat="47.7998426" lon="12.2818206"><ele>602.6666666666666</ele><time>2026-04-06T12:41:57.094Z</time></trkpt><trkpt lat="47.7997572" lon="12.2817846"><ele>603.0</ele><time>2026-04-06T12:42:00.121Z</time></trkpt><trkpt lat="47.7996676" lon="12.2817392"><ele>603.0</ele><time>2026-04-06T12:42:03.104Z</time></trkpt><trkpt lat="47.7996095" lon="12.2817016"><ele>603.0</ele><time>2026-04-06T12:42:05.114Z</time></trkpt><trkpt lat="47.7995521" lon="12.2816631"><ele>603.0</ele><time>2026-04-06T12:42:07.092Z</time></trkpt><trkpt lat="47.7994949" lon="12.2816224"><ele>603.0</ele><time>2026-04-06T12:42:09.099Z</time></trkpt><trkpt lat="47.7994334" lon="12.281585"><ele>603.0</ele><time>2026-04-06T12:42:11.098Z</time></trkpt><trkpt lat="47.7993731" lon="12.2815465"><ele>603.0</ele><time>2026-04-06T12:42:13.104Z</time></trkpt><trkpt lat="47.7993127" lon="12.2815052"><ele>603.0</ele><time>2026-04-06T12:42:15.087Z</time></trkpt><trkpt lat="47.7992514" lon="12.2814641"><ele>603.0</ele><time>2026-04-06T12:42:17.098Z</time></trkpt><trkpt lat="47.7991892" lon="12.281434"><ele>603.0</ele><time>2026-04-06T12:42:19.093Z</time></trkpt><trkpt lat="47.7991244" lon="12.2814118"><ele>603.0</ele><time>2026-04-06T12:42:21.097Z</time></trkpt><trkpt lat="47.7990572" lon="12.281387"><ele>603.0</ele><time>2026-04-06T12:42:23.098Z</time></trkpt><trkpt lat="47.798994" lon="12.2813578"><ele>603.0</ele><time>2026-04-06T12:42:25.089Z</time></trkpt><trkpt lat="47.7989303" lon="12.2813292"><ele>603.0</ele><time>2026-04-06T12:42:27.093Z</time></trkpt><trkpt lat="47.7988679" lon="12.2813069"><ele>603.0</ele><time>2026-04-06T12:42:29.067Z</time></trkpt><trkpt lat="47.7988006" lon="12.2812853"><ele>603.0</ele><time>2026-04-06T12:42:31.087Z</time></trkpt><trkpt lat="47.7987308" lon="12.281264"><ele>603.0</ele><time>2026-04-06T12:42:33.071Z</time></trkpt><trkpt lat="47.7986589" lon="12.2812476"><ele>603.0</ele><time>2026-04-06T12:42:35.067Z</time></trkpt><trkpt lat="47.7985941" lon="12.2812367"><ele>603.0</ele><time>2026-04-06T12:42:37.107Z</time></trkpt><trkpt lat="47.798532" lon="12.2812132"><ele>603.0</ele><time>2026-04-06T12:42:39.111Z</time></trkpt><trkpt lat="47.7984655" lon="12.2811678"><ele>603.0</ele><time>2026-04-06T12:42:42.111Z</time></trkpt><trkpt lat="47.7984024" lon="12.2811459"><ele>603.0</ele><time>2026-04-06T12:42:46.061Z</time></trkpt><trkpt lat="47.7983329" lon="12.2811287"><ele>603.5</ele><time>2026-04-06T12:42:49.076Z</time></trkpt><trkpt lat="47.7982458" lon="12.2811084"><ele>604.0</ele><time>2026-04-06T12:42:52.087Z</time></trkpt><trkpt lat="47.7981623" lon="12.2810963"><ele>604.5</ele><time>2026-04-06T12:42:55.079Z</time></trkpt><trkpt lat="47.7980714" lon="12.2810763"><ele>605.0</ele><time>2026-04-06T12:42:58.096Z</time></trkpt><trkpt lat="47.7979807" lon="12.2810508"><ele>605.5</ele><time>2026-04-06T12:43:01.102Z</time></trkpt><trkpt lat="47.7979194" lon="12.2810253"><ele>606.0</ele><time>2026-04-06T12:43:03.083Z</time></trkpt><trkpt lat="47.7978313" lon="12.2809977"><ele>606.0</ele><time>2026-04-06T12:43:06.114Z</time></trkpt><trkpt lat="47.7977388" lon="12.2809767"><ele>606.0</ele><time>2026-04-06T12:43:09.102Z</time></trkpt><trkpt lat="47.7976448" lon="12.2809507"><ele>606.0</ele><time>2026-04-06T12:43:12.079Z</time></trkpt><trkpt lat="47.7975825" lon="12.2809367"><ele>606.0</ele><time>2026-04-06T12:43:14.095Z</time></trkpt><trkpt lat="47.7974948" lon="12.2809115"><ele>606.0</ele><time>2026-04-06T12:43:17.094Z</time></trkpt><trkpt lat="47.797404" lon="12.2808877"><ele>606.0</ele><time>2026-04-06T12:43:20.074Z</time></trkpt><trkpt lat="47.7973139" lon="12.280864"><ele>606.3333333333334</ele><time>2026-04-06T12:43:23.105Z</time></trkpt><trkpt lat="47.797249" lon="12.2808458"><ele>606.6666666666666</ele><time>2026-04-06T12:43:25.1Z</time></trkpt><trkpt lat="47.7971828" lon="12.2808234"><ele>607.0</ele><time>2026-04-06T12:43:27.102Z</time></trkpt><trkpt lat="47.7971203" lon="12.2808049"><ele>607.3333333333333</ele><time>2026-04-06T12:43:29.108Z</time></trkpt><trkpt lat="47.7970299" lon="12.2807594"><ele>607.6666666666666</ele><time>2026-04-06T12:43:32.092Z</time></trkpt><trkpt lat="47.7969373" lon="12.2807317"><ele>608.0</ele><time>2026-04-06T12:43:35.126Z</time></trkpt><trkpt lat="47.7968701" lon="12.2807143"><ele>608.5714285714286</ele><time>2026-04-06T12:43:37.1Z</time></trkpt><trkpt lat="47.7968095" lon="12.2806851"><ele>609.1428571428572</ele><time>2026-04-06T12:43:39.124Z</time></trkpt><trkpt lat="47.7967491" lon="12.2806562"><ele>609.7142857142858</ele><time>2026-04-06T12:43:41.097Z</time></trkpt><trkpt lat="47.7966851" lon="12.2806456"><ele>610.2857142857142</ele><time>2026-04-06T12:43:43.071Z</time></trkpt><trkpt lat="47.7965975" lon="12.2806158"><ele>610.8571428571429</ele><time>2026-04-06T12:43:46.102Z</time></trkpt><trkpt lat="47.79653" lon="12.2805825"><ele>611.4285714285714</ele><time>2026-04-06T12:43:48.064Z</time></trkpt><trkpt lat="47.7964596" lon="12.2805657"><ele>612.0</ele><time>2026-04-06T12:43:50.109Z</time></trkpt><trkpt lat="47.7963924" lon="12.2805605"><ele>612.4285714285714</ele><time>2026-04-06T12:43:52.111Z</time></trkpt><trkpt lat="47.7963188" lon="12.2805332"><ele>612.8571428571429</ele><time>2026-04-06T12:43:54.094Z</time></trkpt><trkpt lat="47.7962535" lon="12.2805014"><ele>613.2857142857142</ele><time>2026-04-06T12:43:56.062Z</time></trkpt><trkpt lat="47.7961872" lon="12.280473"><ele>613.7142857142858</ele><time>2026-04-06T12:43:58.095Z</time></trkpt><trkpt lat="47.7961179" lon="12.2804458"><ele>614.1428571428572</ele><time>2026-04-06T12:44:00.067Z</time></trkpt><trkpt lat="47.7960518" lon="12.2804277"><ele>614.5714285714286</ele><time>2026-04-06T12:44:02.004Z</time></trkpt><trkpt lat="47.7959827" lon="12.2804132"><ele>615.0</ele><time>2026-04-06T12:44:04.093Z</time></trkpt><trkpt lat="47.7959161" lon="12.2803911"><ele>615.6666666666666</ele><time>2026-04-06T12:44:06.101Z</time></trkpt><trkpt lat="47.7958514" lon="12.2803696"><ele>616.3333333333334</ele><time>2026-04-06T12:44:08.083Z</time></trkpt><trkpt lat="47.7957921" lon="12.280336"><ele>617.0</ele><time>2026-04-06T12:44:10.086Z</time></trkpt><trkpt lat="47.7956986" lon="12.2803169"><ele>617.6666666666667</ele><time>2026-04-06T12:44:13.007Z</time></trkpt><trkpt lat="47.7956311" lon="12.2803028"><ele>618.3333333333334</ele><time>2026-04-06T12:44:15.1Z</time></trkpt><trkpt lat="47.7955501" lon="12.2802743"><ele>619.0</ele><time>2026-04-06T12:44:18.125Z</time></trkpt><trkpt lat="47.7954776" lon="12.280247"><ele>619.0</ele><time>2026-04-06T12:44:21.101Z</time></trkpt><trkpt lat="47.7953967" lon="12.280211"><ele>619.0</ele><time>2026-04-06T12:44:24.114Z</time></trkpt><trkpt lat="47.7953218" lon="12.2802022"><ele>619.0</ele><time>2026-04-06T12:44:27.116Z</time></trkpt><trkpt lat="47.7952426" lon="12.2801719"><ele>619.0</ele><time>2026-04-06T12:44:30.125Z</time></trkpt><trkpt lat="47.7951588" lon="12.2801343"><ele>619.0</ele><time>2026-04-06T12:44:33.079Z</time></trkpt><trkpt lat="47.7950825" lon="12.2800922"><ele>619.0</ele><time>2026-04-06T12:44:36.063Z</time></trkpt><trkpt lat="47.7950047" lon="12.280035"><ele>620.4285714285714</ele><time>2026-04-06T12:44:39.103Z</time></trkpt><trkpt lat="47.7949342" lon="12.279977"><ele>621.8571428571429</ele><time>2026-04-06T12:44:42.092Z</time></trkpt><trkpt lat="47.7948617" lon="12.2799114"><ele>623.2857142857142</ele><time>2026-04-06T12:44:45.099Z</time></trkpt><trkpt lat="47.7948097" lon="12.2798581"><ele>624.7142857142858</ele><time>2026-04-06T12:44:47.064Z</time></trkpt><trkpt lat="47.7947334" lon="12.2798327"><ele>626.1428571428572</ele><time>2026-04-06T12:44:50.091Z</time></trkpt><trkpt lat="47.7946804" lon="12.2797725"><ele>627.5714285714286</ele><time>2026-04-06T12:44:53.092Z</time></trkpt><trkpt lat="47.7946224" lon="12.2797093"><ele>629.0</ele><time>2026-04-06T12:44:56.104Z</time></trkpt><trkpt lat="47.7945797" lon="12.2796404"><ele>629.0</ele><time>2026-04-06T12:45:28.065Z</time></trkpt><trkpt lat="47.79451" lon="12.2795822"><ele>629.0</ele><time>2026-04-06T12:45:34.074Z</time></trkpt><trkpt lat="47.7944549" lon="12.2795094"><ele>629.0</ele><time>2026-04-06T12:45:39.103Z</time></trkpt><trkpt lat="47.7943979" lon="12.2794617"><ele>629.0</ele><time>2026-04-06T12:45:42.084Z</time></trkpt><trkpt lat="47.7943478" lon="12.2793799"><ele>629.0</ele><time>2026-04-06T12:45:45.092Z</time></trkpt><trkpt lat="47.7943007" lon="12.2793124"><ele>629.0</ele><time>2026-04-06T12:45:48.075Z</time></trkpt><trkpt lat="47.7942575" lon="12.2792273"><ele>629.0</ele><time>2026-04-06T12:45:52.078Z</time></trkpt><trkpt lat="47.7942141" lon="12.279128"><ele>629.8571428571428</ele><time>2026-04-06T12:45:55.09Z</time></trkpt><trkpt lat="47.7941917" lon="12.2790402"><ele>630.7142857142858</ele><time>2026-04-06T12:45:58.074Z</time></trkpt><trkpt lat="47.7941598" lon="12.2789241"><ele>631.5714285714286</ele><time>2026-04-06T12:46:01.103Z</time></trkpt><trkpt lat="47.7941337" lon="12.2788152"><ele>632.4285714285713</ele><time>2026-04-06T12:46:04.088Z</time></trkpt><trkpt lat="47.7941014" lon="12.2787115"><ele>633.2857142857142</ele><time>2026-04-06T12:46:07.093Z</time></trkpt><trkpt lat="47.7940721" lon="12.2786181"><ele>634.1428571428571</ele><time>2026-04-06T12:46:10.098Z</time></trkpt><trkpt lat="47.7940463" lon="12.2785279"><ele>635.0</ele><time>2026-04-06T12:46:13.096Z</time></trkpt><trkpt lat="47.7940174" lon="12.2784343"><ele>634.9999999999999</ele><time>2026-04-06T12:46:16.095Z</time></trkpt><trkpt lat="47.7939861" lon="12.2783443"><ele>635.0</ele><time>2026-04-06T12:46:19.077Z</time></trkpt><trkpt lat="47.793947" lon="12.2782476"><ele>635.0</ele><time>2026-04-06T12:46:22.083Z</time></trkpt><trkpt lat="47.7939097" lon="12.2781525"><ele>635.0</ele><time>2026-04-06T12:46:25.097Z</time></trkpt><trkpt lat="47.7938692" lon="12.2780505"><ele>635.0</ele><time>2026-04-06T12:46:28.088Z</time></trkpt><trkpt lat="47.7938248" lon="12.2779585"><ele>634.9999999999999</ele><time>2026-04-06T12:46:31.094Z</time></trkpt><trkpt lat="47.7937798" lon="12.2778752"><ele>635.0</ele><time>2026-04-06T12:46:35.062Z</time></trkpt><trkpt lat="47.7937259" lon="12.2777769"><ele>634.8571428571428</ele><time>2026-04-06T12:46:39.09Z</time></trkpt><trkpt lat="47.793676" lon="12.2777162"><ele>634.7142857142857</ele><time>2026-04-06T12:46:42.088Z</time></trkpt><trkpt lat="47.7936301" lon="12.2776385"><ele>634.5714285714286</ele><time>2026-04-06T12:46:45.078Z</time></trkpt><trkpt lat="47.7935849" lon="12.2775629"><ele>634.4285714285713</ele><time>2026-04-06T12:46:49.086Z</time></trkpt><trkpt lat="47.7935457" lon="12.277479"><ele>634.2857142857142</ele><time>2026-04-06T12:47:25.089Z</time></trkpt><trkpt lat="47.7934878" lon="12.2774028"><ele>634.1428571428571</ele><time>2026-04-06T12:47:29.093Z</time></trkpt><trkpt lat="47.793427" lon="12.2773133"><ele>634.0</ele><time>2026-04-06T12:47:32.098Z</time></trkpt><trkpt lat="47.7933839" lon="12.2772431"><ele>635.1428571428571</ele><time>2026-04-06T12:47:34.113Z</time></trkpt><trkpt lat="47.7933334" lon="12.2771524"><ele>636.2857142857142</ele><time>2026-04-06T12:47:37.091Z</time></trkpt><trkpt lat="47.7932847" lon="12.2770766"><ele>637.4285714285713</ele><time>2026-04-06T12:47:40.082Z</time></trkpt><trkpt lat="47.7932399" lon="12.2770088"><ele>638.5714285714286</ele><time>2026-04-06T12:47:43.102Z</time></trkpt><trkpt lat="47.7931865" lon="12.2769442"><ele>639.7142857142857</ele><time>2026-04-06T12:47:46.113Z</time></trkpt><trkpt lat="47.7931295" lon="12.2768784"><ele>640.8571428571428</ele><time>2026-04-06T12:47:50.101Z</time></trkpt><trkpt lat="47.793051" lon="12.2768538"><ele>642.0</ele><time>2026-04-06T12:47:55.116Z</time></trkpt><trkpt lat="47.7929808" lon="12.2768106"><ele>642.0</ele><time>2026-04-06T12:49:12.108Z</time></trkpt><trkpt lat="47.7929311" lon="12.2767283"><ele>642.0</ele><time>2026-04-06T12:49:16.085Z</time></trkpt><trkpt lat="47.7928758" lon="12.2766452"><ele>642.0</ele><time>2026-04-06T12:49:19.085Z</time></trkpt><trkpt lat="47.7928034" lon="12.2765634"><ele>642.0</ele><time>2026-04-06T12:49:22.094Z</time></trkpt><trkpt lat="47.7927371" lon="12.2764962"><ele>642.0</ele><time>2026-04-06T12:49:25.109Z</time></trkpt><trkpt lat="47.7926675" lon="12.2764299"><ele>642.0</ele><time>2026-04-06T12:49:28.075Z</time></trkpt><trkpt lat="47.7925957" lon="12.2763636"><ele>643.3333333333334</ele><time>2026-04-06T12:49:31.07Z</time></trkpt><trkpt lat="47.7925227" lon="12.2762956"><ele>644.6666666666666</ele><time>2026-04-06T12:49:34.1Z</time></trkpt><trkpt lat="47.7924463" lon="12.2762269"><ele>646.0</ele><time>2026-04-06T12:49:37.082Z</time></trkpt><trkpt lat="47.7923718" lon="12.2761479"><ele>647.3333333333333</ele><time>2026-04-06T12:49:40.112Z</time></trkpt><trkpt lat="47.7923066" lon="12.2760662"><ele>648.6666666666666</ele><time>2026-04-06T12:49:43.083Z</time></trkpt><trkpt lat="47.7923164" lon="12.2759266"><ele>650.0</ele><time>2026-04-06T12:49:46.076Z</time></trkpt><trkpt lat="47.7923757" lon="12.2758589"><ele>650.0</ele><time>2026-04-06T12:49:48.084Z</time></trkpt><trkpt lat="47.7924402" lon="12.2758019"><ele>650.0</ele><time>2026-04-06T12:49:50.109Z</time></trkpt><trkpt lat="47.7925167" lon="12.2757282"><ele>650.0</ele><time>2026-04-06T12:49:52.102Z</time></trkpt><trkpt lat="47.792581" lon="12.2756554"><ele>650.0</ele><time>2026-04-06T12:49:54.111Z</time></trkpt><trkpt lat="47.7926508" lon="12.2756321"><ele>650.0</ele><time>2026-04-06T12:49:56.114Z</time></trkpt><trkpt lat="47.7927096" lon="12.2756799"><ele>650.0</ele><time>2026-04-06T12:49:58.077Z</time></trkpt><trkpt lat="47.7927714" lon="12.2757124"><ele>649.0</ele><time>2026-04-06T12:50:00.083Z</time></trkpt><trkpt lat="47.7928357" lon="12.2757189"><ele>648.0</ele><time>2026-04-06T12:50:02.077Z</time></trkpt><trkpt lat="47.7928972" lon="12.2756945"><ele>647.0</ele><time>2026-04-06T12:50:04.092Z</time></trkpt><trkpt lat="47.7929496" lon="12.2756381"><ele>646.0</ele><time>2026-04-06T12:50:06.095Z</time></trkpt><trkpt lat="47.792991" lon="12.2755505"><ele>645.0</ele><time>2026-04-06T12:50:08.102Z</time></trkpt><trkpt lat="47.7930264" lon="12.2754717"><ele>644.0</ele><time>2026-04-06T12:50:10.099Z</time></trkpt><trkpt lat="47.7930745" lon="12.2753611"><ele>643.0</ele><time>2026-04-06T12:50:13.098Z</time></trkpt><trkpt lat="47.7931025" lon="12.2752498"><ele>643.0</ele><time>2026-04-06T12:50:16.081Z</time></trkpt><trkpt lat="47.7931265" lon="12.2751261"><ele>643.0</ele><time>2026-04-06T12:50:19.076Z</time></trkpt><trkpt lat="47.7931342" lon="12.2750038"><ele>643.0</ele><time>2026-04-06T12:50:22.085Z</time></trkpt><trkpt lat="47.7931414" lon="12.2748737"><ele>643.0</ele><time>2026-04-06T12:50:25.073Z</time></trkpt><trkpt lat="47.7931533" lon="12.274748"><ele>643.0</ele><time>2026-04-06T12:50:28.088Z</time></trkpt><trkpt lat="47.7931789" lon="12.274633"><ele>643.0</ele><time>2026-04-06T12:50:31.097Z</time></trkpt><trkpt lat="47.793204" lon="12.2745408"><ele>643.1666666666667</ele><time>2026-04-06T12:50:32.946Z</time></trkpt><trkpt lat="47.7932444" lon="12.2744413"><ele>643.3333333333334</ele><time>2026-04-06T12:50:36.106Z</time></trkpt><trkpt lat="47.7932863" lon="12.2743309"><ele>643.5</ele><time>2026-04-06T12:50:39.093Z</time></trkpt><trkpt lat="47.7933333" lon="12.2742235"><ele>643.6666666666666</ele><time>2026-04-06T12:50:42.088Z</time></trkpt><trkpt lat="47.7933905" lon="12.2741141"><ele>643.8333333333333</ele><time>2026-04-06T12:50:45.1Z</time></trkpt><trkpt lat="47.7934371" lon="12.2740383"><ele>644.0</ele><time>2026-04-06T12:50:47.098Z</time></trkpt><trkpt lat="47.7935159" lon="12.2739777"><ele>643.0</ele><time>2026-04-06T12:50:50.091Z</time></trkpt><trkpt lat="47.7935858" lon="12.2739053"><ele>642.0</ele><time>2026-04-06T12:50:53.076Z</time></trkpt><trkpt lat="47.793664" lon="12.2738322"><ele>641.0</ele><time>2026-04-06T12:50:56.23Z</time></trkpt><trkpt lat="47.7937294" lon="12.2737728"><ele>640.0</ele><time>2026-04-06T12:50:58.54Z</time></trkpt><trkpt lat="47.7938002" lon="12.2737031"><ele>639.0</ele><time>2026-04-06T12:51:00.799Z</time></trkpt><trkpt lat="47.793879" lon="12.2736305"><ele>638.0</ele><time>2026-04-06T12:51:03.04Z</time></trkpt><trkpt lat="47.7939542" lon="12.2735582"><ele>638.0</ele><time>2026-04-06T12:51:05.199Z</time></trkpt><trkpt lat="47.7940335" lon="12.2735113"><ele>638.0</ele><time>2026-04-06T12:51:07.088Z</time></trkpt><trkpt lat="47.7941174" lon="12.2734605"><ele>638.0</ele><time>2026-04-06T12:51:09.086Z</time></trkpt><trkpt lat="47.7941802" lon="12.2734429"><ele>638.0</ele><time>2026-04-06T12:51:11.088Z</time></trkpt><trkpt lat="47.7942617" lon="12.2734192"><ele>638.0</ele><time>2026-04-06T12:51:14.119Z</time></trkpt><trkpt lat="47.7943292" lon="12.2734147"><ele>638.0</ele><time>2026-04-06T12:51:17.094Z</time></trkpt><trkpt lat="47.7943935" lon="12.2733908"><ele>637.0</ele><time>2026-04-06T12:51:20.107Z</time></trkpt><trkpt lat="47.7944611" lon="12.2733756"><ele>636.0</ele><time>2026-04-06T12:52:02.092Z</time></trkpt><trkpt lat="47.7945463" lon="12.2733557"><ele>635.0</ele><time>2026-04-06T12:52:05.074Z</time></trkpt><trkpt lat="47.7946217" lon="12.2733417"><ele>634.0</ele><time>2026-04-06T12:52:07.079Z</time></trkpt><trkpt lat="47.7946887" lon="12.2733024"><ele>633.0</ele><time>2026-04-06T12:52:09.117Z</time></trkpt><trkpt lat="47.7946839" lon="12.2731766"><ele>632.0</ele><time>2026-04-06T12:52:11.075Z</time></trkpt><trkpt lat="47.7946084" lon="12.2731318"><ele>632.0</ele><time>2026-04-06T12:52:13.059Z</time></trkpt><trkpt lat="47.7945475" lon="12.2730884"><ele>632.0</ele><time>2026-04-06T12:52:16.004Z</time></trkpt><trkpt lat="47.7945017" lon="12.273024"><ele>632.0</ele><time>2026-04-06T12:52:20.075Z</time></trkpt><trkpt lat="47.7944415" lon="12.2729585"><ele>632.0</ele><time>2026-04-06T12:52:23.083Z</time></trkpt><trkpt lat="47.794359" lon="12.2728915"><ele>632.0</ele><time>2026-04-06T12:52:26.092Z</time></trkpt><trkpt lat="47.794274" lon="12.2728394"><ele>632.0</ele><time>2026-04-06T12:52:29.079Z</time></trkpt><trkpt lat="47.7941992" lon="12.272795"><ele>632.0000000000001</ele><time>2026-04-06T12:52:32.076Z</time></trkpt><trkpt lat="47.7941368" lon="12.2727567"><ele>632.0</ele><time>2026-04-06T12:52:34.06Z</time></trkpt><trkpt lat="47.7940737" lon="12.272724"><ele>632.0</ele><time>2026-04-06T12:52:36.092Z</time></trkpt><trkpt lat="47.7940068" lon="12.2726899"><ele>632.0</ele><time>2026-04-06T12:52:38.1Z</time></trkpt><trkpt lat="47.7939381" lon="12.2726537"><ele>632.0</ele><time>2026-04-06T12:52:40.117Z</time></trkpt><trkpt lat="47.7938718" lon="12.2726136"><ele>632.0000000000001</ele><time>2026-04-06T12:52:42.094Z</time></trkpt><trkpt lat="47.7937973" lon="12.2725759"><ele>632.0</ele><time>2026-04-06T12:52:44.096Z</time></trkpt><trkpt lat="47.7937341" lon="12.2725304"><ele>632.0000000000001</ele><time>2026-04-06T12:52:46.094Z</time></trkpt><trkpt lat="47.7936662" lon="12.2724749"><ele>632.0</ele><time>2026-04-06T12:52:48.075Z</time></trkpt><trkpt lat="47.7936076" lon="12.2724125"><ele>632.0</ele><time>2026-04-06T12:52:50.086Z</time></trkpt><trkpt lat="47.7935494" lon="12.2723524"><ele>632.0</ele><time>2026-04-06T12:52:52.092Z</time></trkpt><trkpt lat="47.7934902" lon="12.272292"><ele>632.0</ele><time>2026-04-06T12:52:54.075Z</time></trkpt><trkpt lat="47.7934331" lon="12.2722218"><ele>632.0000000000001</ele><time>2026-04-06T12:52:56.105Z</time></trkpt><trkpt lat="47.7933739" lon="12.272155"><ele>632.0</ele><time>2026-04-06T12:52:58.089Z</time></trkpt><trkpt lat="47.7933191" lon="12.2720852"><ele>632.5</ele><time>2026-04-06T12:53:00.092Z</time></trkpt><trkpt lat="47.7932525" lon="12.2720033"><ele>633.0</ele><time>2026-04-06T12:53:03.11Z</time></trkpt><trkpt lat="47.7931852" lon="12.2719286"><ele>633.5</ele><time>2026-04-06T12:53:06.084Z</time></trkpt><trkpt lat="47.7931142" lon="12.2718538"><ele>634.0</ele><time>2026-04-06T12:53:09.096Z</time></trkpt><trkpt lat="47.7930432" lon="12.2717744"><ele>634.5</ele><time>2026-04-06T12:53:12.066Z</time></trkpt><trkpt lat="47.7929856" lon="12.2716931"><ele>635.0</ele><time>2026-04-06T12:53:15.076Z</time></trkpt><trkpt lat="47.7929072" lon="12.2716117"><ele>635.0</ele><time>2026-04-06T12:53:18.075Z</time></trkpt><trkpt lat="47.7928526" lon="12.2715508"><ele>635.0</ele><time>2026-04-06T12:53:20.082Z</time></trkpt><trkpt lat="47.7927945" lon="12.2714838"><ele>635.0</ele><time>2026-04-06T12:53:22.056Z</time></trkpt><trkpt lat="47.7927443" lon="12.2714159"><ele>635.0</ele><time>2026-04-06T12:53:24.101Z</time></trkpt><trkpt lat="47.7926918" lon="12.271352"><ele>635.0</ele><time>2026-04-06T12:53:26.077Z</time></trkpt><trkpt lat="47.7926264" lon="12.2712523"><ele>635.0</ele><time>2026-04-06T12:53:29.092Z</time></trkpt><trkpt lat="47.792568" lon="12.2711425"><ele>635.1428571428571</ele><time>2026-04-06T12:53:32.066Z</time></trkpt><trkpt lat="47.7925336" lon="12.2710605"><ele>635.2857142857142</ele><time>2026-04-06T12:53:34.078Z</time></trkpt><trkpt lat="47.7924838" lon="12.270942"><ele>635.4285714285713</ele><time>2026-04-06T12:53:37.067Z</time></trkpt><trkpt lat="47.7924439" lon="12.2708623"><ele>635.5714285714286</ele><time>2026-04-06T12:53:39.069Z</time></trkpt><trkpt lat="47.7924029" lon="12.2707798"><ele>635.7142857142858</ele><time>2026-04-06T12:53:41.078Z</time></trkpt><trkpt lat="47.7923582" lon="12.2707033"><ele>635.8571428571428</ele><time>2026-04-06T12:53:43.081Z</time></trkpt><trkpt lat="47.79231" lon="12.270627"><ele>636.0</ele><time>2026-04-06T12:53:45.08Z</time></trkpt><trkpt lat="47.7922614" lon="12.2705567"><ele>636.0</ele><time>2026-04-06T12:53:47.085Z</time></trkpt><trkpt lat="47.7922023" lon="12.2705015"><ele>636.0</ele><time>2026-04-06T12:53:49.054Z</time></trkpt><trkpt lat="47.7921495" lon="12.270425"><ele>636.0</ele><time>2026-04-06T12:53:51.095Z</time></trkpt><trkpt lat="47.7920672" lon="12.2703149"><ele>636.0</ele><time>2026-04-06T12:53:54.09Z</time></trkpt><trkpt lat="47.7920106" lon="12.2702381"><ele>636.0</ele><time>2026-04-06T12:53:56.096Z</time></trkpt><trkpt lat="47.7919553" lon="12.2701596"><ele>636.0</ele><time>2026-04-06T12:53:58.108Z</time></trkpt><trkpt lat="47.7918987" lon="12.2700801"><ele>636.0</ele><time>2026-04-06T12:54:00.111Z</time></trkpt><trkpt lat="47.7918503" lon="12.269999"><ele>636.0</ele><time>2026-04-06T12:54:02.099Z</time></trkpt><trkpt lat="47.7918086" lon="12.2699075"><ele>636.0</ele><time>2026-04-06T12:54:04.108Z</time></trkpt><trkpt lat="47.7917595" lon="12.269816"><ele>636.0</ele><time>2026-04-06T12:54:06.103Z</time></trkpt><trkpt lat="47.7917071" lon="12.2697357"><ele>636.0</ele><time>2026-04-06T12:54:08.094Z</time></trkpt><trkpt lat="47.791654" lon="12.2696477"><ele>636.0</ele><time>2026-04-06T12:54:10.075Z</time></trkpt><trkpt lat="47.7916074" lon="12.2695605"><ele>636.5</ele><time>2026-04-06T12:54:12.073Z</time></trkpt><trkpt lat="47.7915568" lon="12.2694834"><ele>637.0</ele><time>2026-04-06T12:54:14.087Z</time></trkpt><trkpt lat="47.7915212" lon="12.2694041"><ele>637.5</ele><time>2026-04-06T12:54:16.079Z</time></trkpt><trkpt lat="47.7914658" lon="12.2693061"><ele>638.0</ele><time>2026-04-06T12:54:19.108Z</time></trkpt><trkpt lat="47.7914096" lon="12.2692187"><ele>638.5</ele><time>2026-04-06T12:54:22.103Z</time></trkpt><trkpt lat="47.7913517" lon="12.2691379"><ele>639.0</ele><time>2026-04-06T12:54:25.104Z</time></trkpt><trkpt lat="47.7912872" lon="12.269066"><ele>639.0</ele><time>2026-04-06T12:54:28.092Z</time></trkpt><trkpt lat="47.791223" lon="12.268999"><ele>639.0</ele><time>2026-04-06T12:54:31.097Z</time></trkpt><trkpt lat="47.7911603" lon="12.2689394"><ele>639.0</ele><time>2026-04-06T12:54:34.099Z</time></trkpt><trkpt lat="47.7910957" lon="12.2688823"><ele>639.0</ele><time>2026-04-06T12:54:37.107Z</time></trkpt><trkpt lat="47.7910277" lon="12.2688289"><ele>639.0</ele><time>2026-04-06T12:54:40.113Z</time></trkpt><trkpt lat="47.7909549" lon="12.2687735"><ele>639.0</ele><time>2026-04-06T12:54:43.1Z</time></trkpt><trkpt lat="47.7908877" lon="12.2687234"><ele>641.0</ele><time>2026-04-06T12:54:46.114Z</time></trkpt><trkpt lat="47.7908176" lon="12.2686736"><ele>643.0</ele><time>2026-04-06T12:54:49.072Z</time></trkpt><trkpt lat="47.7907477" lon="12.2686255"><ele>645.0</ele><time>2026-04-06T12:54:52.099Z</time></trkpt><trkpt lat="47.7906768" lon="12.2685762"><ele>647.0</ele><time>2026-04-06T12:54:55.077Z</time></trkpt><trkpt lat="47.7906066" lon="12.2685311"><ele>649.0</ele><time>2026-04-06T12:54:58.06Z</time></trkpt><trkpt lat="47.7905424" lon="12.2684848"><ele>651.0</ele><time>2026-04-06T12:55:01.095Z</time></trkpt><trkpt lat="47.7904802" lon="12.2684234"><ele>651.0</ele><time>2026-04-06T12:55:04.104Z</time></trkpt><trkpt lat="47.790406" lon="12.268383"><ele>651.0</ele><time>2026-04-06T12:55:07.081Z</time></trkpt><trkpt lat="47.790336" lon="12.26834"><ele>651.0</ele><time>2026-04-06T12:55:10.106Z</time></trkpt><trkpt lat="47.7902584" lon="12.268282"><ele>651.0</ele><time>2026-04-06T12:55:13.058Z</time></trkpt><trkpt lat="47.790181" lon="12.2682098"><ele>651.0</ele><time>2026-04-06T12:55:16.105Z</time></trkpt><trkpt lat="47.7901192" lon="12.2681301"><ele>651.0</ele><time>2026-04-06T12:55:19.077Z</time></trkpt><trkpt lat="47.7900404" lon="12.2680443"><ele>652.0</ele><time>2026-04-06T12:55:22.108Z</time></trkpt><trkpt lat="47.7899929" lon="12.2679796"><ele>653.0</ele><time>2026-04-06T12:55:24.095Z</time></trkpt><trkpt lat="47.7899431" lon="12.2679095"><ele>654.0</ele><time>2026-04-06T12:55:26.097Z</time></trkpt><trkpt lat="47.7898938" lon="12.2678366"><ele>655.0</ele><time>2026-04-06T12:55:28.102Z</time></trkpt><trkpt lat="47.7898312" lon="12.2677367"><ele>656.0</ele><time>2026-04-06T12:55:31.083Z</time></trkpt><trkpt lat="47.7897809" lon="12.267664"><ele>657.0</ele><time>2026-04-06T12:55:33.079Z</time></trkpt><trkpt lat="47.7897131" lon="12.2675814"><ele>657.0</ele><time>2026-04-06T12:55:36.095Z</time></trkpt><trkpt lat="47.7896511" lon="12.2674937"><ele>657.0</ele><time>2026-04-06T12:55:39.066Z</time></trkpt><trkpt lat="47.7895822" lon="12.2674046"><ele>657.0</ele><time>2026-04-06T12:55:42.096Z</time></trkpt><trkpt lat="47.7895311" lon="12.2673384"><ele>657.0</ele><time>2026-04-06T12:55:44.106Z</time></trkpt><trkpt lat="47.7894786" lon="12.2672678"><ele>657.0</ele><time>2026-04-06T12:55:46.093Z</time></trkpt><trkpt lat="47.7894098" lon="12.2672067"><ele>657.0</ele><time>2026-04-06T12:55:48.111Z</time></trkpt><trkpt lat="47.7893534" lon="12.2671357"><ele>657.5714285714286</ele><time>2026-04-06T12:55:50.09Z</time></trkpt><trkpt lat="47.7892836" lon="12.2671204"><ele>658.1428571428572</ele><time>2026-04-06T12:56:27.088Z</time></trkpt><trkpt lat="47.7892099" lon="12.2670746"><ele>658.7142857142858</ele><time>2026-04-06T12:56:30.109Z</time></trkpt><trkpt lat="47.7891385" lon="12.2670468"><ele>659.2857142857142</ele><time>2026-04-06T12:56:33.095Z</time></trkpt><trkpt lat="47.7890713" lon="12.2670075"><ele>659.8571428571429</ele><time>2026-04-06T12:56:36.106Z</time></trkpt><trkpt lat="47.7889989" lon="12.2669611"><ele>660.4285714285714</ele><time>2026-04-06T12:56:39.059Z</time></trkpt><trkpt lat="47.7889351" lon="12.2669264"><ele>661.0</ele><time>2026-04-06T12:56:42.086Z</time></trkpt><trkpt lat="47.7888701" lon="12.2668523"><ele>661.0</ele><time>2026-04-06T12:56:45.107Z</time></trkpt><trkpt lat="47.7888107" lon="12.2667722"><ele>661.0</ele><time>2026-04-06T12:56:48.088Z</time></trkpt><trkpt lat="47.7887673" lon="12.2666699"><ele>661.0</ele><time>2026-04-06T12:56:51.092Z</time></trkpt><trkpt lat="47.7887284" lon="12.2665505"><ele>661.0</ele><time>2026-04-06T12:56:54.115Z</time></trkpt><trkpt lat="47.788712" lon="12.2664542"><ele>661.0</ele><time>2026-04-06T12:56:56.083Z</time></trkpt><trkpt lat="47.7886895" lon="12.2663623"><ele>661.0</ele><time>2026-04-06T12:56:58.099Z</time></trkpt><trkpt lat="47.7886702" lon="12.2662713"><ele>661.0</ele><time>2026-04-06T12:57:00.085Z</time></trkpt><trkpt lat="47.7886494" lon="12.2661747"><ele>660.7142857142857</ele><time>2026-04-06T12:57:02.112Z</time></trkpt><trkpt lat="47.7886225" lon="12.2660805"><ele>660.4285714285714</ele><time>2026-04-06T12:57:04.108Z</time></trkpt><trkpt lat="47.7885966" lon="12.2659807"><ele>660.1428571428571</ele><time>2026-04-06T12:57:06.091Z</time></trkpt><trkpt lat="47.7885751" lon="12.265881"><ele>659.8571428571429</ele><time>2026-04-06T12:57:08.102Z</time></trkpt><trkpt lat="47.788551" lon="12.2657769"><ele>659.5714285714286</ele><time>2026-04-06T12:57:10.075Z</time></trkpt><trkpt lat="47.7885304" lon="12.2656695"><ele>659.2857142857143</ele><time>2026-04-06T12:57:12.098Z</time></trkpt><trkpt lat="47.7885053" lon="12.2655719"><ele>659.0</ele><time>2026-04-06T12:57:14.095Z</time></trkpt><trkpt lat="47.7884763" lon="12.2654709"><ele>659.0</ele><time>2026-04-06T12:57:16.092Z</time></trkpt><trkpt lat="47.7884468" lon="12.2653719"><ele>659.0</ele><time>2026-04-06T12:57:18.102Z</time></trkpt><trkpt lat="47.7884152" lon="12.2652622"><ele>659.0</ele><time>2026-04-06T12:57:20.111Z</time></trkpt><trkpt lat="47.7883909" lon="12.2651463"><ele>659.0</ele><time>2026-04-06T12:57:22.079Z</time></trkpt><trkpt lat="47.788356" lon="12.2650289"><ele>659.0</ele><time>2026-04-06T12:57:24.104Z</time></trkpt><trkpt lat="47.7883297" lon="12.2648973"><ele>659.0</ele><time>2026-04-06T12:57:26.11Z</time></trkpt><trkpt lat="47.7883017" lon="12.2647672"><ele>658.6</ele><time>2026-04-06T12:57:28.097Z</time></trkpt><trkpt lat="47.7882579" lon="12.2646286"><ele>658.2</ele><time>2026-04-06T12:57:30.087Z</time></trkpt><trkpt lat="47.7882253" lon="12.2644813"><ele>657.8000000000001</ele><time>2026-04-06T12:57:32.101Z</time></trkpt><trkpt lat="47.7881922" lon="12.2643313"><ele>657.4000000000001</ele><time>2026-04-06T12:57:34.105Z</time></trkpt><trkpt lat="47.7881559" lon="12.264173"><ele>657.0</ele><time>2026-04-06T12:57:36.098Z</time></trkpt><trkpt lat="47.7881333" lon="12.2640192"><ele>656.8</ele><time>2026-04-06T12:57:38.109Z</time></trkpt><trkpt lat="47.7881127" lon="12.2638701"><ele>656.6</ele><time>2026-04-06T12:57:40.111Z</time></trkpt><trkpt lat="47.7880921" lon="12.2637142"><ele>656.4</ele><time>2026-04-06T12:57:42.097Z</time></trkpt><trkpt lat="47.7880756" lon="12.2635585"><ele>656.1999999999999</ele><time>2026-04-06T12:57:44.098Z</time></trkpt><trkpt lat="47.7880501" lon="12.2634171"><ele>656.0</ele><time>2026-04-06T12:57:46.095Z</time></trkpt><trkpt lat="47.7880388" lon="12.2633065"><ele>656.0</ele><time>2026-04-06T12:57:48.076Z</time></trkpt><trkpt lat="47.7880613" lon="12.2632146"><ele>656.0</ele><time>2026-04-06T12:57:50.088Z</time></trkpt><trkpt lat="47.7881064" lon="12.2631019"><ele>656.0</ele><time>2026-04-06T12:57:53.08Z</time></trkpt><trkpt lat="47.7881693" lon="12.2630243"><ele>656.0</ele><time>2026-04-06T12:57:56.098Z</time></trkpt><trkpt lat="47.7882507" lon="12.2629627"><ele>656.0</ele><time>2026-04-06T12:57:59.096Z</time></trkpt><trkpt lat="47.788331" lon="12.262904"><ele>656.0</ele><time>2026-04-06T12:58:02.079Z</time></trkpt><trkpt lat="47.7884151" lon="12.2628548"><ele>656.1428571428571</ele><time>2026-04-06T12:58:05.094Z</time></trkpt><trkpt lat="47.7885038" lon="12.2628133"><ele>656.2857142857142</ele><time>2026-04-06T12:58:08.086Z</time></trkpt><trkpt lat="47.7885699" lon="12.2627947"><ele>656.4285714285713</ele><time>2026-04-06T12:58:10.09Z</time></trkpt><trkpt lat="47.7886375" lon="12.2627921"><ele>656.5714285714286</ele><time>2026-04-06T12:58:12.082Z</time></trkpt><trkpt lat="47.7887079" lon="12.2628155"><ele>656.7142857142858</ele><time>2026-04-06T12:58:14.087Z</time></trkpt><trkpt lat="47.7887839" lon="12.2628438"><ele>656.8571428571428</ele><time>2026-04-06T12:58:16.084Z</time></trkpt><trkpt lat="47.7888522" lon="12.2628555"><ele>657.0</ele><time>2026-04-06T12:58:18.1Z</time></trkpt><trkpt lat="47.7889213" lon="12.2628559"><ele>657.0</ele><time>2026-04-06T12:58:20.098Z</time></trkpt><trkpt lat="47.7889916" lon="12.2628643"><ele>657.0</ele><time>2026-04-06T12:58:22.08Z</time></trkpt><trkpt lat="47.7890617" lon="12.2628532"><ele>657.0</ele><time>2026-04-06T12:58:24.089Z</time></trkpt><trkpt lat="47.7891412" lon="12.2628455"><ele>657.0</ele><time>2026-04-06T12:58:26.094Z</time></trkpt><trkpt lat="47.7892162" lon="12.2628576"><ele>657.0</ele><time>2026-04-06T12:58:28.103Z</time></trkpt><trkpt lat="47.7892927" lon="12.2628691"><ele>657.0</ele><time>2026-04-06T12:58:30.101Z</time></trkpt><trkpt lat="47.7893547" lon="12.2628969"><ele>657.0</ele><time>2026-04-06T12:58:32.101Z</time></trkpt><trkpt lat="47.7894179" lon="12.2629348"><ele>655.7142857142857</ele><time>2026-04-06T12:58:34.086Z</time></trkpt><trkpt lat="47.7894801" lon="12.2629662"><ele>654.4285714285714</ele><time>2026-04-06T12:58:36.108Z</time></trkpt><trkpt lat="47.7895635" lon="12.263031"><ele>653.1428571428571</ele><time>2026-04-06T12:58:39.112Z</time></trkpt><trkpt lat="47.7896216" lon="12.2630903"><ele>651.8571428571429</ele><time>2026-04-06T12:58:42.088Z</time></trkpt><trkpt lat="47.7896793" lon="12.2631294"><ele>650.5714285714286</ele><time>2026-04-06T12:58:45.096Z</time></trkpt><trkpt lat="47.7897436" lon="12.2631648"><ele>649.2857142857143</ele><time>2026-04-06T12:58:48.116Z</time></trkpt><trkpt lat="47.7898116" lon="12.2631681"><ele>648.0</ele><time>2026-04-06T12:58:51.104Z</time></trkpt><trkpt lat="47.789856" lon="12.2630895"><ele>648.0</ele><time>2026-04-06T12:58:54.066Z</time></trkpt><trkpt lat="47.789893" lon="12.2629936"><ele>648.0</ele><time>2026-04-06T12:58:57.074Z</time></trkpt><trkpt lat="47.7899007" lon="12.2628822"><ele>648.0</ele><time>2026-04-06T12:59:00.084Z</time></trkpt><trkpt lat="47.7899096" lon="12.2627687"><ele>648.0</ele><time>2026-04-06T12:59:04.093Z</time></trkpt><trkpt lat="47.7899278" lon="12.2626419"><ele>648.0</ele><time>2026-04-06T12:59:08.079Z</time></trkpt><trkpt lat="47.789951" lon="12.262533"><ele>648.0</ele><time>2026-04-06T12:59:12.103Z</time></trkpt><trkpt lat="47.7899722" lon="12.262422"><ele>648.0</ele><time>2026-04-06T12:59:17.077Z</time></trkpt><trkpt lat="47.7900014" lon="12.2623249"><ele>648.0</ele><time>2026-04-06T12:59:21.094Z</time></trkpt><trkpt lat="47.7900352" lon="12.2622285"><ele>648.0</ele><time>2026-04-06T12:59:25.084Z</time></trkpt><trkpt lat="47.7900792" lon="12.2621236"><ele>648.0</ele><time>2026-04-06T12:59:29.102Z</time></trkpt><trkpt lat="47.7901308" lon="12.2620609"><ele>648.0</ele><time>2026-04-06T12:59:32.09Z</time></trkpt><trkpt lat="47.7901999" lon="12.2620088"><ele>648.0</ele><time>2026-04-06T12:59:35.094Z</time></trkpt><trkpt lat="47.7902775" lon="12.2620007"><ele>648.0</ele><time>2026-04-06T12:59:38.092Z</time></trkpt><trkpt lat="47.7903541" lon="12.2620278"><ele>644.7142857142858</ele><time>2026-04-06T12:59:41.086Z</time></trkpt><trkpt lat="47.7904304" lon="12.2620839"><ele>641.4285714285714</ele><time>2026-04-06T12:59:44.086Z</time></trkpt><trkpt lat="47.7904903" lon="12.2621317"><ele>638.1428571428571</ele><time>2026-04-06T12:59:46.089Z</time></trkpt><trkpt lat="47.7905502" lon="12.2621847"><ele>634.8571428571429</ele><time>2026-04-06T12:59:48.078Z</time></trkpt><trkpt lat="47.7906102" lon="12.2622377"><ele>631.5714285714286</ele><time>2026-04-06T12:59:50.078Z</time></trkpt><trkpt lat="47.7906702" lon="12.262299"><ele>628.2857142857143</ele><time>2026-04-06T12:59:52.089Z</time></trkpt><trkpt lat="47.7907213" lon="12.2623583"><ele>625.0</ele><time>2026-04-06T12:59:54.079Z</time></trkpt><trkpt lat="47.7907778" lon="12.2624253"><ele>625.0</ele><time>2026-04-06T12:59:56.087Z</time></trkpt><trkpt lat="47.7908339" lon="12.2624912"><ele>625.0</ele><time>2026-04-06T12:59:58.09Z</time></trkpt><trkpt lat="47.7908802" lon="12.262566"><ele>625.0</ele><time>2026-04-06T13:00:00.101Z</time></trkpt><trkpt lat="47.7909331" lon="12.2626629"><ele>625.0</ele><time>2026-04-06T13:00:02.092Z</time></trkpt><trkpt lat="47.790991" lon="12.2627498"><ele>625.0</ele><time>2026-04-06T13:00:04.065Z</time></trkpt><trkpt lat="47.7910523" lon="12.2628319"><ele>625.0</ele><time>2026-04-06T13:00:06.09Z</time></trkpt><trkpt lat="47.7911381" lon="12.2628648"><ele>623.6</ele><time>2026-04-06T13:00:09.083Z</time></trkpt><trkpt lat="47.791196" lon="12.2628056"><ele>622.2</ele><time>2026-04-06T13:00:11.094Z</time></trkpt><trkpt lat="47.7912539" lon="12.2627243"><ele>620.8</ele><time>2026-04-06T13:00:13.089Z</time></trkpt><trkpt lat="47.7913393" lon="12.2626422"><ele>619.4</ele><time>2026-04-06T13:00:15.086Z</time></trkpt><trkpt lat="47.7914217" lon="12.2625599"><ele>618.0</ele><time>2026-04-06T13:00:17.112Z</time></trkpt><trkpt lat="47.7915118" lon="12.2624819"><ele>618.0000000000001</ele><time>2026-04-06T13:00:19.124Z</time></trkpt><trkpt lat="47.7915981" lon="12.2624368"><ele>618.0</ele><time>2026-04-06T13:00:21.102Z</time></trkpt><trkpt lat="47.7916641" lon="12.2624194"><ele>618.0</ele><time>2026-04-06T13:00:23.094Z</time></trkpt><trkpt lat="47.7917381" lon="12.262398"><ele>618.0</ele><time>2026-04-06T13:00:26.062Z</time></trkpt><trkpt lat="47.7918047" lon="12.2623672"><ele>618.0</ele><time>2026-04-06T13:00:46.079Z</time></trkpt><trkpt lat="47.7917991" lon="12.2622692"><ele>618.0000000000001</ele><time>2026-04-06T13:00:50.111Z</time></trkpt><trkpt lat="47.7917737" lon="12.2621786"><ele>618.0</ele><time>2026-04-06T13:00:52.11Z</time></trkpt><trkpt lat="47.7917413" lon="12.2620846"><ele>617.6</ele><time>2026-04-06T13:00:54.087Z</time></trkpt><trkpt lat="47.7917011" lon="12.2619881"><ele>617.1999999999999</ele><time>2026-04-06T13:00:56.11Z</time></trkpt><trkpt lat="47.7916447" lon="12.2618949"><ele>616.8</ele><time>2026-04-06T13:00:58.107Z</time></trkpt><trkpt lat="47.7915871" lon="12.2617736"><ele>616.4</ele><time>2026-04-06T13:01:00.049Z</time></trkpt><trkpt lat="47.7915154" lon="12.261648"><ele>616.0</ele><time>2026-04-06T13:01:02.088Z</time></trkpt><trkpt lat="47.7914544" lon="12.2615136"><ele>612.75</ele><time>2026-04-06T13:01:04.087Z</time></trkpt><trkpt lat="47.7913842" lon="12.2613773"><ele>609.5</ele><time>2026-04-06T13:01:06.079Z</time></trkpt><trkpt lat="47.7913134" lon="12.2612484"><ele>606.25</ele><time>2026-04-06T13:01:08.102Z</time></trkpt><trkpt lat="47.7912342" lon="12.2611298"><ele>603.0</ele><time>2026-04-06T13:01:10.098Z</time></trkpt><trkpt lat="47.7911453" lon="12.2610205"><ele>603.0</ele><time>2026-04-06T13:01:12.119Z</time></trkpt><trkpt lat="47.791046" lon="12.2609163"><ele>603.0</ele><time>2026-04-06T13:01:14.107Z</time></trkpt><trkpt lat="47.7909539" lon="12.260819"><ele>603.0</ele><time>2026-04-06T13:01:16.105Z</time></trkpt><trkpt lat="47.7908609" lon="12.260716"><ele>603.0</ele><time>2026-04-06T13:01:18.106Z</time></trkpt><trkpt lat="47.7907875" lon="12.2605969"><ele>602.1999999999999</ele><time>2026-04-06T13:01:20.105Z</time></trkpt><trkpt lat="47.7907275" lon="12.2604721"><ele>601.4</ele><time>2026-04-06T13:01:22.094Z</time></trkpt><trkpt lat="47.790685" lon="12.2603401"><ele>600.5999999999999</ele><time>2026-04-06T13:01:24.105Z</time></trkpt><trkpt lat="47.7906623" lon="12.2602092"><ele>599.8</ele><time>2026-04-06T13:01:26.082Z</time></trkpt><trkpt lat="47.7906436" lon="12.260077"><ele>599.0</ele><time>2026-04-06T13:01:28.105Z</time></trkpt><trkpt lat="47.7906273" lon="12.2599484"><ele>599.0</ele><time>2026-04-06T13:01:30.092Z</time></trkpt><trkpt lat="47.7906177" lon="12.2598288"><ele>599.0</ele><time>2026-04-06T13:01:32.112Z</time></trkpt><trkpt lat="47.7906361" lon="12.259732"><ele>599.0</ele><time>2026-04-06T13:01:34.062Z</time></trkpt><trkpt lat="47.7907255" lon="12.2597466"><ele>599.0</ele><time>2026-04-06T13:01:37.1Z</time></trkpt><trkpt lat="47.7907565" lon="12.2598539"><ele>599.0</ele><time>2026-04-06T13:01:39.088Z</time></trkpt><trkpt lat="47.7908117" lon="12.2599459"><ele>599.0</ele><time>2026-04-06T13:01:42.096Z</time></trkpt><trkpt lat="47.7908807" lon="12.2599485"><ele>599.0</ele><time>2026-04-06T13:01:46.111Z</time></trkpt><trkpt lat="47.790863" lon="12.2598552"><ele>599.0</ele><time>2026-04-06T13:02:50.048Z</time></trkpt></trkseg></trk></gpx>